<?xml version="1.0" encoding="UTF-8" standalone="no" ?>
<gpx xmlns="http://www.topografix.com/GPX/1/1" xmlns:xsi="http://www.w3.org/2001/XMLSchema-instance" xsi:schemaLocation="http://www.topografix.com/GPX/1/1 http://www.topografix.com/GPX/1/1/gpx.xsd" version="1.1" creator="VisuGPX - https://www.visugpx.com">
  <metadata>
    <name>Combe de notre-dame</name>
    <desc><![CDATA[parcours a faire par temps sec  ]]></desc>
  </metadata>
  <trk>
    <name><![CDATA[16-09-2012 07-20-06]]></name>
    <trkseg>
      <trkpt lat="47.29032" lon="5.06737">
        <ele>235</ele>
        <time>2012-09-16T07:20:10Z</time>
      </trkpt>
      <trkpt lat="47.29017" lon="5.06738">
        <ele>237</ele>
        <time>2012-09-16T07:20:55Z</time>
      </trkpt>
      <trkpt lat="47.29015" lon="5.06737">
        <ele>237</ele>
        <time>2012-09-16T07:20:57Z</time>
      </trkpt>
      <trkpt lat="47.29007" lon="5.06717">
        <ele>237</ele>
        <time>2012-09-16T07:21:18Z</time>
      </trkpt>
      <trkpt lat="47.28992" lon="5.06698">
        <ele>236</ele>
        <time>2012-09-16T07:21:24Z</time>
      </trkpt>
      <trkpt lat="47.28978" lon="5.06685">
        <ele>236</ele>
        <time>2012-09-16T07:21:28Z</time>
      </trkpt>
      <trkpt lat="47.28955" lon="5.06663">
        <ele>236</ele>
        <time>2012-09-16T07:21:34Z</time>
      </trkpt>
      <trkpt lat="47.28932" lon="5.06638">
        <ele>236</ele>
        <time>2012-09-16T07:21:43Z</time>
      </trkpt>
      <trkpt lat="47.28918" lon="5.06627">
        <ele>236</ele>
        <time>2012-09-16T07:21:47Z</time>
      </trkpt>
      <trkpt lat="47.28903" lon="5.06612">
        <ele>236</ele>
        <time>2012-09-16T07:21:51Z</time>
      </trkpt>
      <trkpt lat="47.28902" lon="5.06582">
        <ele>237</ele>
        <time>2012-09-16T07:21:57Z</time>
      </trkpt>
      <trkpt lat="47.28908" lon="5.06563">
        <ele>238</ele>
        <time>2012-09-16T07:22:01Z</time>
      </trkpt>
      <trkpt lat="47.28902" lon="5.06545">
        <ele>238</ele>
        <time>2012-09-16T07:22:05Z</time>
      </trkpt>
      <trkpt lat="47.28887" lon="5.06532">
        <ele>238</ele>
        <time>2012-09-16T07:22:09Z</time>
      </trkpt>
      <trkpt lat="47.28858" lon="5.06507">
        <ele>238</ele>
        <time>2012-09-16T07:22:18Z</time>
      </trkpt>
      <trkpt lat="47.28843" lon="5.0649">
        <ele>239</ele>
        <time>2012-09-16T07:22:22Z</time>
      </trkpt>
      <trkpt lat="47.28802" lon="5.06447">
        <ele>240</ele>
        <time>2012-09-16T07:22:32Z</time>
      </trkpt>
      <trkpt lat="47.28785" lon="5.0643">
        <ele>240</ele>
        <time>2012-09-16T07:22:37Z</time>
      </trkpt>
      <trkpt lat="47.28712" lon="5.06352">
        <ele>237</ele>
        <time>2012-09-16T07:22:57Z</time>
      </trkpt>
      <trkpt lat="47.287" lon="5.06332">
        <ele>236</ele>
        <time>2012-09-16T07:23:01Z</time>
      </trkpt>
      <trkpt lat="47.28685" lon="5.06317">
        <ele>236</ele>
        <time>2012-09-16T07:23:05Z</time>
      </trkpt>
      <trkpt lat="47.28672" lon="5.06332">
        <ele>235</ele>
        <time>2012-09-16T07:23:09Z</time>
      </trkpt>
      <trkpt lat="47.28653" lon="5.06337">
        <ele>234</ele>
        <time>2012-09-16T07:23:13Z</time>
      </trkpt>
      <trkpt lat="47.28633" lon="5.06332">
        <ele>233</ele>
        <time>2012-09-16T07:23:17Z</time>
      </trkpt>
      <trkpt lat="47.28615" lon="5.06327">
        <ele>233</ele>
        <time>2012-09-16T07:23:22Z</time>
      </trkpt>
      <trkpt lat="47.28587" lon="5.06322">
        <ele>234</ele>
        <time>2012-09-16T07:23:27Z</time>
      </trkpt>
      <trkpt lat="47.28582" lon="5.063">
        <ele>234</ele>
        <time>2012-09-16T07:23:31Z</time>
      </trkpt>
      <trkpt lat="47.28583" lon="5.06273">
        <ele>235</ele>
        <time>2012-09-16T07:23:35Z</time>
      </trkpt>
      <trkpt lat="47.28565" lon="5.06267">
        <ele>234</ele>
        <time>2012-09-16T07:23:39Z</time>
      </trkpt>
      <trkpt lat="47.28562" lon="5.06238">
        <ele>236</ele>
        <time>2012-09-16T07:23:44Z</time>
      </trkpt>
      <trkpt lat="47.28572" lon="5.06212">
        <ele>236</ele>
        <time>2012-09-16T07:23:48Z</time>
      </trkpt>
      <trkpt lat="47.28582" lon="5.06187">
        <ele>234</ele>
        <time>2012-09-16T07:23:52Z</time>
      </trkpt>
      <trkpt lat="47.28593" lon="5.06165">
        <ele>233</ele>
        <time>2012-09-16T07:23:56Z</time>
      </trkpt>
      <trkpt lat="47.28627" lon="5.06103">
        <ele>235</ele>
        <time>2012-09-16T07:24:06Z</time>
      </trkpt>
      <trkpt lat="47.28638" lon="5.0608">
        <ele>236</ele>
        <time>2012-09-16T07:24:10Z</time>
      </trkpt>
      <trkpt lat="47.2866" lon="5.06035">
        <ele>235</ele>
        <time>2012-09-16T07:24:18Z</time>
      </trkpt>
      <trkpt lat="47.28668" lon="5.0601">
        <ele>234</ele>
        <time>2012-09-16T07:24:22Z</time>
      </trkpt>
      <trkpt lat="47.28682" lon="5.05975">
        <ele>233</ele>
        <time>2012-09-16T07:24:29Z</time>
      </trkpt>
      <trkpt lat="47.28693" lon="5.05955">
        <ele>234</ele>
        <time>2012-09-16T07:24:33Z</time>
      </trkpt>
      <trkpt lat="47.28707" lon="5.05927">
        <ele>234</ele>
        <time>2012-09-16T07:24:37Z</time>
      </trkpt>
      <trkpt lat="47.2872" lon="5.05898">
        <ele>233</ele>
        <time>2012-09-16T07:24:43Z</time>
      </trkpt>
      <trkpt lat="47.28815" lon="5.057">
        <ele>232</ele>
        <time>2012-09-16T07:25:18Z</time>
      </trkpt>
      <trkpt lat="47.28835" lon="5.05677">
        <ele>229</ele>
        <time>2012-09-16T07:25:22Z</time>
      </trkpt>
      <trkpt lat="47.28845" lon="5.05653">
        <ele>229</ele>
        <time>2012-09-16T07:25:26Z</time>
      </trkpt>
      <trkpt lat="47.28863" lon="5.05603">
        <ele>234</ele>
        <time>2012-09-16T07:25:34Z</time>
      </trkpt>
      <trkpt lat="47.28875" lon="5.05582">
        <ele>236</ele>
        <time>2012-09-16T07:25:38Z</time>
      </trkpt>
      <trkpt lat="47.28892" lon="5.05552">
        <ele>237</ele>
        <time>2012-09-16T07:25:45Z</time>
      </trkpt>
      <trkpt lat="47.28903" lon="5.05532">
        <ele>237</ele>
        <time>2012-09-16T07:25:49Z</time>
      </trkpt>
      <trkpt lat="47.28898" lon="5.05507">
        <ele>235</ele>
        <time>2012-09-16T07:25:55Z</time>
      </trkpt>
      <trkpt lat="47.28882" lon="5.05487">
        <ele>234</ele>
        <time>2012-09-16T07:25:59Z</time>
      </trkpt>
      <trkpt lat="47.2889" lon="5.0547">
        <ele>233</ele>
        <time>2012-09-16T07:26:03Z</time>
      </trkpt>
      <trkpt lat="47.28902" lon="5.05452">
        <ele>233</ele>
        <time>2012-09-16T07:26:07Z</time>
      </trkpt>
      <trkpt lat="47.28927" lon="5.05412">
        <ele>234</ele>
        <time>2012-09-16T07:26:16Z</time>
      </trkpt>
      <trkpt lat="47.28952" lon="5.05373">
        <ele>235</ele>
        <time>2012-09-16T07:26:24Z</time>
      </trkpt>
      <trkpt lat="47.2896" lon="5.05357">
        <ele>235</ele>
        <time>2012-09-16T07:26:26Z</time>
      </trkpt>
      <trkpt lat="47.2897" lon="5.05342">
        <ele>234</ele>
        <time>2012-09-16T07:26:30Z</time>
      </trkpt>
      <trkpt lat="47.2898" lon="5.05327">
        <ele>234</ele>
        <time>2012-09-16T07:26:32Z</time>
      </trkpt>
      <trkpt lat="47.28993" lon="5.05308">
        <ele>233</ele>
        <time>2012-09-16T07:26:36Z</time>
      </trkpt>
      <trkpt lat="47.28988" lon="5.05288">
        <ele>233</ele>
        <time>2012-09-16T07:26:42Z</time>
      </trkpt>
      <trkpt lat="47.28973" lon="5.05292">
        <ele>234</ele>
        <time>2012-09-16T07:26:46Z</time>
      </trkpt>
      <trkpt lat="47.28963" lon="5.05277">
        <ele>235</ele>
        <time>2012-09-16T07:26:50Z</time>
      </trkpt>
      <trkpt lat="47.28977" lon="5.05255">
        <ele>234</ele>
        <time>2012-09-16T07:26:56Z</time>
      </trkpt>
      <trkpt lat="47.28993" lon="5.0524">
        <ele>234</ele>
        <time>2012-09-16T07:27:00Z</time>
      </trkpt>
      <trkpt lat="47.29008" lon="5.05222">
        <ele>235</ele>
        <time>2012-09-16T07:27:04Z</time>
      </trkpt>
      <trkpt lat="47.29022" lon="5.05198">
        <ele>234</ele>
        <time>2012-09-16T07:27:08Z</time>
      </trkpt>
      <trkpt lat="47.29065" lon="5.05123">
        <ele>234</ele>
        <time>2012-09-16T07:27:20Z</time>
      </trkpt>
      <trkpt lat="47.29087" lon="5.05085">
        <ele>235</ele>
        <time>2012-09-16T07:27:26Z</time>
      </trkpt>
      <trkpt lat="47.29097" lon="5.05065">
        <ele>235</ele>
        <time>2012-09-16T07:27:30Z</time>
      </trkpt>
      <trkpt lat="47.29112" lon="5.0503">
        <ele>236</ele>
        <time>2012-09-16T07:27:34Z</time>
      </trkpt>
      <trkpt lat="47.29125" lon="5.05005">
        <ele>237</ele>
        <time>2012-09-16T07:27:39Z</time>
      </trkpt>
      <trkpt lat="47.29137" lon="5.04978">
        <ele>238</ele>
        <time>2012-09-16T07:27:42Z</time>
      </trkpt>
      <trkpt lat="47.29147" lon="5.04952">
        <ele>238</ele>
        <time>2012-09-16T07:27:47Z</time>
      </trkpt>
      <trkpt lat="47.29157" lon="5.04923">
        <ele>237</ele>
        <time>2012-09-16T07:27:51Z</time>
      </trkpt>
      <trkpt lat="47.29162" lon="5.04895">
        <ele>236</ele>
        <time>2012-09-16T07:27:55Z</time>
      </trkpt>
      <trkpt lat="47.29167" lon="5.04865">
        <ele>235</ele>
        <time>2012-09-16T07:27:59Z</time>
      </trkpt>
      <trkpt lat="47.29168" lon="5.04835">
        <ele>235</ele>
        <time>2012-09-16T07:28:03Z</time>
      </trkpt>
      <trkpt lat="47.2918" lon="5.0468">
        <ele>235</ele>
        <time>2012-09-16T07:28:23Z</time>
      </trkpt>
      <trkpt lat="47.29183" lon="5.04653">
        <ele>235</ele>
        <time>2012-09-16T07:28:27Z</time>
      </trkpt>
      <trkpt lat="47.29192" lon="5.04572">
        <ele>237</ele>
        <time>2012-09-16T07:28:40Z</time>
      </trkpt>
      <trkpt lat="47.29193" lon="5.04545">
        <ele>236</ele>
        <time>2012-09-16T07:28:44Z</time>
      </trkpt>
      <trkpt lat="47.29202" lon="5.0452">
        <ele>236</ele>
        <time>2012-09-16T07:28:48Z</time>
      </trkpt>
      <trkpt lat="47.29217" lon="5.04497">
        <ele>236</ele>
        <time>2012-09-16T07:28:52Z</time>
      </trkpt>
      <trkpt lat="47.29227" lon="5.04468">
        <ele>236</ele>
        <time>2012-09-16T07:28:56Z</time>
      </trkpt>
      <trkpt lat="47.29227" lon="5.0444">
        <ele>235</ele>
        <time>2012-09-16T07:29:00Z</time>
      </trkpt>
      <trkpt lat="47.2923" lon="5.0441">
        <ele>235</ele>
        <time>2012-09-16T07:29:05Z</time>
      </trkpt>
      <trkpt lat="47.29232" lon="5.0438">
        <ele>235</ele>
        <time>2012-09-16T07:29:09Z</time>
      </trkpt>
      <trkpt lat="47.29237" lon="5.04307">
        <ele>235</ele>
        <time>2012-09-16T07:29:19Z</time>
      </trkpt>
      <trkpt lat="47.29237" lon="5.04285">
        <ele>236</ele>
        <time>2012-09-16T07:29:23Z</time>
      </trkpt>
      <trkpt lat="47.29248" lon="5.04262">
        <ele>237</ele>
        <time>2012-09-16T07:29:29Z</time>
      </trkpt>
      <trkpt lat="47.29262" lon="5.04245">
        <ele>237</ele>
        <time>2012-09-16T07:29:34Z</time>
      </trkpt>
      <trkpt lat="47.29275" lon="5.04228">
        <ele>237</ele>
        <time>2012-09-16T07:29:38Z</time>
      </trkpt>
      <trkpt lat="47.29388" lon="5.04088">
        <ele>240</ele>
        <time>2012-09-16T07:30:09Z</time>
      </trkpt>
      <trkpt lat="47.29407" lon="5.04062">
        <ele>240</ele>
        <time>2012-09-16T07:30:15Z</time>
      </trkpt>
      <trkpt lat="47.29423" lon="5.04045">
        <ele>240</ele>
        <time>2012-09-16T07:30:19Z</time>
      </trkpt>
      <trkpt lat="47.29437" lon="5.04032">
        <ele>241</ele>
        <time>2012-09-16T07:30:26Z</time>
      </trkpt>
      <trkpt lat="47.29448" lon="5.04015">
        <ele>241</ele>
        <time>2012-09-16T07:30:30Z</time>
      </trkpt>
      <trkpt lat="47.2946" lon="5.03998">
        <ele>240</ele>
        <time>2012-09-16T07:30:34Z</time>
      </trkpt>
      <trkpt lat="47.29487" lon="5.03958">
        <ele>239</ele>
        <time>2012-09-16T07:30:42Z</time>
      </trkpt>
      <trkpt lat="47.295" lon="5.03945">
        <ele>240</ele>
        <time>2012-09-16T07:30:46Z</time>
      </trkpt>
      <trkpt lat="47.29512" lon="5.0393">
        <ele>241</ele>
        <time>2012-09-16T07:30:51Z</time>
      </trkpt>
      <trkpt lat="47.29575" lon="5.0385">
        <ele>240</ele>
        <time>2012-09-16T07:31:09Z</time>
      </trkpt>
      <trkpt lat="47.29663" lon="5.0374">
        <ele>241</ele>
        <time>2012-09-16T07:31:34Z</time>
      </trkpt>
      <trkpt lat="47.297" lon="5.03697">
        <ele>241</ele>
        <time>2012-09-16T07:31:45Z</time>
      </trkpt>
      <trkpt lat="47.29787" lon="5.03597">
        <ele>241</ele>
        <time>2012-09-16T07:32:08Z</time>
      </trkpt>
      <trkpt lat="47.29805" lon="5.03582">
        <ele>241</ele>
        <time>2012-09-16T07:32:12Z</time>
      </trkpt>
      <trkpt lat="47.29835" lon="5.03562">
        <ele>242</ele>
        <time>2012-09-16T07:32:18Z</time>
      </trkpt>
      <trkpt lat="47.29852" lon="5.03552">
        <ele>243</ele>
        <time>2012-09-16T07:32:22Z</time>
      </trkpt>
      <trkpt lat="47.29905" lon="5.03522">
        <ele>246</ele>
        <time>2012-09-16T07:32:35Z</time>
      </trkpt>
      <trkpt lat="47.30338" lon="5.03265">
        <ele>243</ele>
        <time>2012-09-16T07:34:11Z</time>
      </trkpt>
      <trkpt lat="47.30573" lon="5.03125">
        <ele>242</ele>
        <time>2012-09-16T07:35:02Z</time>
      </trkpt>
      <trkpt lat="47.30608" lon="5.03102">
        <ele>242</ele>
        <time>2012-09-16T07:35:10Z</time>
      </trkpt>
      <trkpt lat="47.30627" lon="5.03088">
        <ele>242</ele>
        <time>2012-09-16T07:35:14Z</time>
      </trkpt>
      <trkpt lat="47.30643" lon="5.03085">
        <ele>242</ele>
        <time>2012-09-16T07:35:18Z</time>
      </trkpt>
      <trkpt lat="47.30668" lon="5.03072">
        <ele>239</ele>
        <time>2012-09-16T07:35:23Z</time>
      </trkpt>
      <trkpt lat="47.30683" lon="5.03053">
        <ele>244</ele>
        <time>2012-09-16T07:35:27Z</time>
      </trkpt>
      <trkpt lat="47.307" lon="5.03047">
        <ele>246</ele>
        <time>2012-09-16T07:35:31Z</time>
      </trkpt>
      <trkpt lat="47.30727" lon="5.0304">
        <ele>243</ele>
        <time>2012-09-16T07:35:37Z</time>
      </trkpt>
      <trkpt lat="47.30743" lon="5.0303">
        <ele>241</ele>
        <time>2012-09-16T07:35:41Z</time>
      </trkpt>
      <trkpt lat="47.3076" lon="5.0302">
        <ele>241</ele>
        <time>2012-09-16T07:35:45Z</time>
      </trkpt>
      <trkpt lat="47.30793" lon="5.02998">
        <ele>243</ele>
        <time>2012-09-16T07:35:53Z</time>
      </trkpt>
      <trkpt lat="47.30842" lon="5.02968">
        <ele>244</ele>
        <time>2012-09-16T07:36:03Z</time>
      </trkpt>
      <trkpt lat="47.30938" lon="5.02913">
        <ele>242</ele>
        <time>2012-09-16T07:36:25Z</time>
      </trkpt>
      <trkpt lat="47.3104" lon="5.02853">
        <ele>243</ele>
        <time>2012-09-16T07:36:48Z</time>
      </trkpt>
      <trkpt lat="47.31127" lon="5.02803">
        <ele>244</ele>
        <time>2012-09-16T07:37:06Z</time>
      </trkpt>
      <trkpt lat="47.31172" lon="5.02775">
        <ele>246</ele>
        <time>2012-09-16T07:37:16Z</time>
      </trkpt>
      <trkpt lat="47.31203" lon="5.0276">
        <ele>246</ele>
        <time>2012-09-16T07:37:25Z</time>
      </trkpt>
      <trkpt lat="47.31215" lon="5.02745">
        <ele>249</ele>
        <time>2012-09-16T07:37:31Z</time>
      </trkpt>
      <trkpt lat="47.3121" lon="5.02723">
        <ele>248</ele>
        <time>2012-09-16T07:37:37Z</time>
      </trkpt>
      <trkpt lat="47.31225" lon="5.0271">
        <ele>248</ele>
        <time>2012-09-16T07:37:44Z</time>
      </trkpt>
      <trkpt lat="47.31242" lon="5.02702">
        <ele>248</ele>
        <time>2012-09-16T07:37:48Z</time>
      </trkpt>
      <trkpt lat="47.31258" lon="5.02692">
        <ele>247</ele>
        <time>2012-09-16T07:37:52Z</time>
      </trkpt>
      <trkpt lat="47.31315" lon="5.02657">
        <ele>246</ele>
        <time>2012-09-16T07:38:04Z</time>
      </trkpt>
      <trkpt lat="47.31333" lon="5.02648">
        <ele>246</ele>
        <time>2012-09-16T07:38:08Z</time>
      </trkpt>
      <trkpt lat="47.31352" lon="5.02637">
        <ele>246</ele>
        <time>2012-09-16T07:38:12Z</time>
      </trkpt>
      <trkpt lat="47.31378" lon="5.02622">
        <ele>247</ele>
        <time>2012-09-16T07:38:19Z</time>
      </trkpt>
      <trkpt lat="47.3143" lon="5.0259">
        <ele>249</ele>
        <time>2012-09-16T07:38:31Z</time>
      </trkpt>
      <trkpt lat="47.31433" lon="5.0256">
        <ele>248</ele>
        <time>2012-09-16T07:38:35Z</time>
      </trkpt>
      <trkpt lat="47.31422" lon="5.02548">
        <ele>249</ele>
        <time>2012-09-16T07:38:39Z</time>
      </trkpt>
      <trkpt lat="47.31423" lon="5.0252">
        <ele>251</ele>
        <time>2012-09-16T07:38:45Z</time>
      </trkpt>
      <trkpt lat="47.31427" lon="5.02493">
        <ele>251</ele>
        <time>2012-09-16T07:38:52Z</time>
      </trkpt>
      <trkpt lat="47.31425" lon="5.0247">
        <ele>252</ele>
        <time>2012-09-16T07:38:56Z</time>
      </trkpt>
      <trkpt lat="47.31423" lon="5.02445">
        <ele>251</ele>
        <time>2012-09-16T07:39:00Z</time>
      </trkpt>
      <trkpt lat="47.31412" lon="5.0242">
        <ele>250</ele>
        <time>2012-09-16T07:39:04Z</time>
      </trkpt>
      <trkpt lat="47.314" lon="5.02398">
        <ele>249</ele>
        <time>2012-09-16T07:39:08Z</time>
      </trkpt>
      <trkpt lat="47.3139" lon="5.02378">
        <ele>250</ele>
        <time>2012-09-16T07:39:13Z</time>
      </trkpt>
      <trkpt lat="47.31383" lon="5.02352">
        <ele>251</ele>
        <time>2012-09-16T07:39:17Z</time>
      </trkpt>
      <trkpt lat="47.31373" lon="5.02333">
        <ele>251</ele>
        <time>2012-09-16T07:39:21Z</time>
      </trkpt>
      <trkpt lat="47.31368" lon="5.02308">
        <ele>250</ele>
        <time>2012-09-16T07:39:25Z</time>
      </trkpt>
      <trkpt lat="47.31358" lon="5.02287">
        <ele>249</ele>
        <time>2012-09-16T07:39:29Z</time>
      </trkpt>
      <trkpt lat="47.31347" lon="5.02265">
        <ele>248</ele>
        <time>2012-09-16T07:39:33Z</time>
      </trkpt>
      <trkpt lat="47.3133" lon="5.02233">
        <ele>247</ele>
        <time>2012-09-16T07:39:39Z</time>
      </trkpt>
      <trkpt lat="47.31282" lon="5.02147">
        <ele>244</ele>
        <time>2012-09-16T07:39:56Z</time>
      </trkpt>
      <trkpt lat="47.31268" lon="5.02122">
        <ele>245</ele>
        <time>2012-09-16T07:40:00Z</time>
      </trkpt>
      <trkpt lat="47.3121" lon="5.02015">
        <ele>246</ele>
        <time>2012-09-16T07:40:19Z</time>
      </trkpt>
      <trkpt lat="47.31183" lon="5.01973">
        <ele>245</ele>
        <time>2012-09-16T07:40:27Z</time>
      </trkpt>
      <trkpt lat="47.31168" lon="5.01985">
        <ele>245</ele>
        <time>2012-09-16T07:40:32Z</time>
      </trkpt>
      <trkpt lat="47.31152" lon="5.01978">
        <ele>245</ele>
        <time>2012-09-16T07:40:36Z</time>
      </trkpt>
      <trkpt lat="47.31138" lon="5.0196">
        <ele>245</ele>
        <time>2012-09-16T07:40:40Z</time>
      </trkpt>
      <trkpt lat="47.31127" lon="5.01942">
        <ele>245</ele>
        <time>2012-09-16T07:40:44Z</time>
      </trkpt>
      <trkpt lat="47.31075" lon="5.01857">
        <ele>246</ele>
        <time>2012-09-16T07:41:02Z</time>
      </trkpt>
      <trkpt lat="47.31055" lon="5.01822">
        <ele>247</ele>
        <time>2012-09-16T07:41:11Z</time>
      </trkpt>
      <trkpt lat="47.31045" lon="5.01805">
        <ele>248</ele>
        <time>2012-09-16T07:41:15Z</time>
      </trkpt>
      <trkpt lat="47.31027" lon="5.01775">
        <ele>248</ele>
        <time>2012-09-16T07:41:23Z</time>
      </trkpt>
      <trkpt lat="47.31017" lon="5.01753">
        <ele>249</ele>
        <time>2012-09-16T07:41:27Z</time>
      </trkpt>
      <trkpt lat="47.31007" lon="5.01738">
        <ele>249</ele>
        <time>2012-09-16T07:41:31Z</time>
      </trkpt>
      <trkpt lat="47.30993" lon="5.01713">
        <ele>250</ele>
        <time>2012-09-16T07:41:38Z</time>
      </trkpt>
      <trkpt lat="47.30973" lon="5.0168">
        <ele>251</ele>
        <time>2012-09-16T07:41:46Z</time>
      </trkpt>
      <trkpt lat="47.30962" lon="5.01658">
        <ele>252</ele>
        <time>2012-09-16T07:41:53Z</time>
      </trkpt>
      <trkpt lat="47.3094" lon="5.01617">
        <ele>252</ele>
        <time>2012-09-16T07:42:03Z</time>
      </trkpt>
      <trkpt lat="47.30923" lon="5.01585">
        <ele>256</ele>
        <time>2012-09-16T07:42:09Z</time>
      </trkpt>
      <trkpt lat="47.30903" lon="5.01547">
        <ele>258</ele>
        <time>2012-09-16T07:42:18Z</time>
      </trkpt>
      <trkpt lat="47.30868" lon="5.0148">
        <ele>257</ele>
        <time>2012-09-16T07:42:30Z</time>
      </trkpt>
      <trkpt lat="47.30863" lon="5.01458">
        <ele>257</ele>
        <time>2012-09-16T07:42:34Z</time>
      </trkpt>
      <trkpt lat="47.3087" lon="5.01437">
        <ele>257</ele>
        <time>2012-09-16T07:42:39Z</time>
      </trkpt>
      <trkpt lat="47.30883" lon="5.01422">
        <ele>257</ele>
        <time>2012-09-16T07:42:42Z</time>
      </trkpt>
      <trkpt lat="47.30895" lon="5.01407">
        <ele>256</ele>
        <time>2012-09-16T07:42:47Z</time>
      </trkpt>
      <trkpt lat="47.30907" lon="5.01392">
        <ele>256</ele>
        <time>2012-09-16T07:42:51Z</time>
      </trkpt>
      <trkpt lat="47.30938" lon="5.01315">
        <ele>257</ele>
        <time>2012-09-16T07:43:10Z</time>
      </trkpt>
      <trkpt lat="47.30927" lon="5.01297">
        <ele>257</ele>
        <time>2012-09-16T07:43:14Z</time>
      </trkpt>
      <trkpt lat="47.30915" lon="5.01278">
        <ele>256</ele>
        <time>2012-09-16T07:43:18Z</time>
      </trkpt>
      <trkpt lat="47.3089" lon="5.01237">
        <ele>257</ele>
        <time>2012-09-16T07:43:26Z</time>
      </trkpt>
      <trkpt lat="47.30873" lon="5.01208">
        <ele>257</ele>
        <time>2012-09-16T07:43:33Z</time>
      </trkpt>
      <trkpt lat="47.30858" lon="5.01182">
        <ele>258</ele>
        <time>2012-09-16T07:43:39Z</time>
      </trkpt>
      <trkpt lat="47.30847" lon="5.01157">
        <ele>258</ele>
        <time>2012-09-16T07:43:43Z</time>
      </trkpt>
      <trkpt lat="47.30832" lon="5.01143">
        <ele>258</ele>
        <time>2012-09-16T07:43:48Z</time>
      </trkpt>
      <trkpt lat="47.3082" lon="5.01125">
        <ele>257</ele>
        <time>2012-09-16T07:43:52Z</time>
      </trkpt>
      <trkpt lat="47.30807" lon="5.01108">
        <ele>257</ele>
        <time>2012-09-16T07:43:56Z</time>
      </trkpt>
      <trkpt lat="47.30748" lon="5.01028">
        <ele>258</ele>
        <time>2012-09-16T07:44:13Z</time>
      </trkpt>
      <trkpt lat="47.30738" lon="5.01008">
        <ele>257</ele>
        <time>2012-09-16T07:44:17Z</time>
      </trkpt>
      <trkpt lat="47.30723" lon="5.00985">
        <ele>258</ele>
        <time>2012-09-16T07:44:21Z</time>
      </trkpt>
      <trkpt lat="47.30697" lon="5.0094">
        <ele>259</ele>
        <time>2012-09-16T07:44:32Z</time>
      </trkpt>
      <trkpt lat="47.30682" lon="5.00923">
        <ele>259</ele>
        <time>2012-09-16T07:44:38Z</time>
      </trkpt>
      <trkpt lat="47.30662" lon="5.00923">
        <ele>259</ele>
        <time>2012-09-16T07:44:42Z</time>
      </trkpt>
      <trkpt lat="47.30628" lon="5.00925">
        <ele>259</ele>
        <time>2012-09-16T07:44:50Z</time>
      </trkpt>
      <trkpt lat="47.30615" lon="5.0092">
        <ele>259</ele>
        <time>2012-09-16T07:44:55Z</time>
      </trkpt>
      <trkpt lat="47.30607" lon="5.00895">
        <ele>261</ele>
        <time>2012-09-16T07:45:01Z</time>
      </trkpt>
      <trkpt lat="47.30593" lon="5.00888">
        <ele>262</ele>
        <time>2012-09-16T07:45:05Z</time>
      </trkpt>
      <trkpt lat="47.30577" lon="5.00878">
        <ele>262</ele>
        <time>2012-09-16T07:45:09Z</time>
      </trkpt>
      <trkpt lat="47.30557" lon="5.00863">
        <ele>263</ele>
        <time>2012-09-16T07:45:16Z</time>
      </trkpt>
      <trkpt lat="47.3053" lon="5.00842">
        <ele>263</ele>
        <time>2012-09-16T07:45:24Z</time>
      </trkpt>
      <trkpt lat="47.30507" lon="5.0082">
        <ele>264</ele>
        <time>2012-09-16T07:45:30Z</time>
      </trkpt>
      <trkpt lat="47.30488" lon="5.00802">
        <ele>264</ele>
        <time>2012-09-16T07:45:36Z</time>
      </trkpt>
      <trkpt lat="47.30477" lon="5.00788">
        <ele>265</ele>
        <time>2012-09-16T07:45:41Z</time>
      </trkpt>
      <trkpt lat="47.30442" lon="5.00748">
        <ele>267</ele>
        <time>2012-09-16T07:45:53Z</time>
      </trkpt>
      <trkpt lat="47.30433" lon="5.00725">
        <ele>268</ele>
        <time>2012-09-16T07:46:00Z</time>
      </trkpt>
      <trkpt lat="47.30435" lon="5.007">
        <ele>267</ele>
        <time>2012-09-16T07:46:06Z</time>
      </trkpt>
      <trkpt lat="47.30438" lon="5.00673">
        <ele>268</ele>
        <time>2012-09-16T07:46:12Z</time>
      </trkpt>
      <trkpt lat="47.30448" lon="5.0065">
        <ele>268</ele>
        <time>2012-09-16T07:46:20Z</time>
      </trkpt>
      <trkpt lat="47.30458" lon="5.00637">
        <ele>268</ele>
        <time>2012-09-16T07:46:27Z</time>
      </trkpt>
      <trkpt lat="47.30473" lon="5.00618">
        <ele>268</ele>
        <time>2012-09-16T07:46:35Z</time>
      </trkpt>
      <trkpt lat="47.30477" lon="5.00593">
        <ele>269</ele>
        <time>2012-09-16T07:46:43Z</time>
      </trkpt>
      <trkpt lat="47.30475" lon="5.0057">
        <ele>270</ele>
        <time>2012-09-16T07:46:49Z</time>
      </trkpt>
      <trkpt lat="47.30473" lon="5.00545">
        <ele>272</ele>
        <time>2012-09-16T07:46:57Z</time>
      </trkpt>
      <trkpt lat="47.30473" lon="5.00525">
        <ele>273</ele>
        <time>2012-09-16T07:47:04Z</time>
      </trkpt>
      <trkpt lat="47.30472" lon="5.00492">
        <ele>276</ele>
        <time>2012-09-16T07:47:14Z</time>
      </trkpt>
      <trkpt lat="47.30455" lon="5.00485">
        <ele>277</ele>
        <time>2012-09-16T07:47:22Z</time>
      </trkpt>
      <trkpt lat="47.30438" lon="5.00485">
        <ele>277</ele>
        <time>2012-09-16T07:47:28Z</time>
      </trkpt>
      <trkpt lat="47.30418" lon="5.00482">
        <ele>277</ele>
        <time>2012-09-16T07:47:34Z</time>
      </trkpt>
      <trkpt lat="47.30403" lon="5.0048">
        <ele>277</ele>
        <time>2012-09-16T07:47:38Z</time>
      </trkpt>
      <trkpt lat="47.30388" lon="5.00487">
        <ele>276</ele>
        <time>2012-09-16T07:47:42Z</time>
      </trkpt>
      <trkpt lat="47.30372" lon="5.00485">
        <ele>276</ele>
        <time>2012-09-16T07:47:47Z</time>
      </trkpt>
      <trkpt lat="47.30357" lon="5.0048">
        <ele>277</ele>
        <time>2012-09-16T07:47:51Z</time>
      </trkpt>
      <trkpt lat="47.30337" lon="5.00475">
        <ele>278</ele>
        <time>2012-09-16T07:47:57Z</time>
      </trkpt>
      <trkpt lat="47.30323" lon="5.0047">
        <ele>279</ele>
        <time>2012-09-16T07:48:01Z</time>
      </trkpt>
      <trkpt lat="47.30308" lon="5.00462">
        <ele>280</ele>
        <time>2012-09-16T07:48:07Z</time>
      </trkpt>
      <trkpt lat="47.30297" lon="5.0045">
        <ele>281</ele>
        <time>2012-09-16T07:48:13Z</time>
      </trkpt>
      <trkpt lat="47.30293" lon="5.0043">
        <ele>284</ele>
        <time>2012-09-16T07:48:21Z</time>
      </trkpt>
      <trkpt lat="47.30292" lon="5.00407">
        <ele>287</ele>
        <time>2012-09-16T07:48:29Z</time>
      </trkpt>
      <trkpt lat="47.30285" lon="5.00388">
        <ele>290</ele>
        <time>2012-09-16T07:48:38Z</time>
      </trkpt>
      <trkpt lat="47.30273" lon="5.00378">
        <ele>291</ele>
        <time>2012-09-16T07:48:44Z</time>
      </trkpt>
      <trkpt lat="47.30253" lon="5.00367">
        <ele>291</ele>
        <time>2012-09-16T07:48:54Z</time>
      </trkpt>
      <trkpt lat="47.30238" lon="5.0036">
        <ele>291</ele>
        <time>2012-09-16T07:49:05Z</time>
      </trkpt>
      <trkpt lat="47.30225" lon="5.00352">
        <ele>291</ele>
        <time>2012-09-16T07:49:08Z</time>
      </trkpt>
      <trkpt lat="47.30202" lon="5.00338">
        <ele>290</ele>
        <time>2012-09-16T07:49:15Z</time>
      </trkpt>
      <trkpt lat="47.30185" lon="5.00328">
        <ele>289</ele>
        <time>2012-09-16T07:49:19Z</time>
      </trkpt>
      <trkpt lat="47.30168" lon="5.0032">
        <ele>290</ele>
        <time>2012-09-16T07:49:23Z</time>
      </trkpt>
      <trkpt lat="47.30155" lon="5.00305">
        <ele>291</ele>
        <time>2012-09-16T07:49:27Z</time>
      </trkpt>
      <trkpt lat="47.3014" lon="5.0029">
        <ele>293</ele>
        <time>2012-09-16T07:49:34Z</time>
      </trkpt>
      <trkpt lat="47.30125" lon="5.00282">
        <ele>293</ele>
        <time>2012-09-16T07:49:37Z</time>
      </trkpt>
      <trkpt lat="47.3009" lon="5.00262">
        <ele>293</ele>
        <time>2012-09-16T07:49:46Z</time>
      </trkpt>
      <trkpt lat="47.30072" lon="5.00248">
        <ele>292</ele>
        <time>2012-09-16T07:49:50Z</time>
      </trkpt>
      <trkpt lat="47.30053" lon="5.00232">
        <ele>292</ele>
        <time>2012-09-16T07:49:54Z</time>
      </trkpt>
      <trkpt lat="47.30025" lon="5.00203">
        <ele>293</ele>
        <time>2012-09-16T07:50:00Z</time>
      </trkpt>
      <trkpt lat="47.30012" lon="5.00185">
        <ele>293</ele>
        <time>2012-09-16T07:50:04Z</time>
      </trkpt>
      <trkpt lat="47.3001" lon="5.00162">
        <ele>294</ele>
        <time>2012-09-16T07:50:08Z</time>
      </trkpt>
      <trkpt lat="47.30013" lon="5.00137">
        <ele>295</ele>
        <time>2012-09-16T07:50:15Z</time>
      </trkpt>
      <trkpt lat="47.30003" lon="5.00122">
        <ele>295</ele>
        <time>2012-09-16T07:50:21Z</time>
      </trkpt>
      <trkpt lat="47.29987" lon="5.0012">
        <ele>295</ele>
        <time>2012-09-16T07:50:25Z</time>
      </trkpt>
      <trkpt lat="47.29958" lon="5.00118">
        <ele>296</ele>
        <time>2012-09-16T07:50:34Z</time>
      </trkpt>
      <trkpt lat="47.29932" lon="5.00118">
        <ele>297</ele>
        <time>2012-09-16T07:50:44Z</time>
      </trkpt>
      <trkpt lat="47.29917" lon="5.0012">
        <ele>297</ele>
        <time>2012-09-16T07:50:50Z</time>
      </trkpt>
      <trkpt lat="47.29877" lon="5.00123">
        <ele>294</ele>
        <time>2012-09-16T07:50:58Z</time>
      </trkpt>
      <trkpt lat="47.29848" lon="5.00117">
        <ele>291</ele>
        <time>2012-09-16T07:51:03Z</time>
      </trkpt>
      <trkpt lat="47.29772" lon="5.00095">
        <ele>287</ele>
        <time>2012-09-16T07:51:13Z</time>
      </trkpt>
      <trkpt lat="47.29735" lon="5.00085">
        <ele>285</ele>
        <time>2012-09-16T07:51:17Z</time>
      </trkpt>
      <trkpt lat="47.29665" lon="5.00065">
        <ele>284</ele>
        <time>2012-09-16T07:51:28Z</time>
      </trkpt>
      <trkpt lat="47.29617" lon="5.00048">
        <ele>284</ele>
        <time>2012-09-16T07:51:38Z</time>
      </trkpt>
      <trkpt lat="47.2962" lon="5.00025">
        <ele>286</ele>
        <time>2012-09-16T07:51:44Z</time>
      </trkpt>
      <trkpt lat="47.29627" lon="5">
        <ele>288</ele>
        <time>2012-09-16T07:51:53Z</time>
      </trkpt>
      <trkpt lat="47.2963" lon="4.99978">
        <ele>290</ele>
        <time>2012-09-16T07:52:01Z</time>
      </trkpt>
      <trkpt lat="47.29623" lon="4.9996">
        <ele>293</ele>
        <time>2012-09-16T07:52:09Z</time>
      </trkpt>
      <trkpt lat="47.2961" lon="4.99945">
        <ele>293</ele>
        <time>2012-09-16T07:52:20Z</time>
      </trkpt>
      <trkpt lat="47.29598" lon="4.99925">
        <ele>294</ele>
        <time>2012-09-16T07:52:30Z</time>
      </trkpt>
      <trkpt lat="47.29582" lon="4.99907">
        <ele>297</ele>
        <time>2012-09-16T07:52:40Z</time>
      </trkpt>
      <trkpt lat="47.29568" lon="4.99892">
        <ele>299</ele>
        <time>2012-09-16T07:52:49Z</time>
      </trkpt>
      <trkpt lat="47.29553" lon="4.99883">
        <ele>301</ele>
        <time>2012-09-16T07:52:55Z</time>
      </trkpt>
      <trkpt lat="47.29502" lon="4.99855">
        <ele>302</ele>
        <time>2012-09-16T07:53:16Z</time>
      </trkpt>
      <trkpt lat="47.2949" lon="4.99845">
        <ele>306</ele>
        <time>2012-09-16T07:53:24Z</time>
      </trkpt>
      <trkpt lat="47.29492" lon="4.99825">
        <ele>309</ele>
        <time>2012-09-16T07:53:32Z</time>
      </trkpt>
      <trkpt lat="47.29495" lon="4.99805">
        <ele>311</ele>
        <time>2012-09-16T07:53:40Z</time>
      </trkpt>
      <trkpt lat="47.29485" lon="4.99792">
        <ele>314</ele>
        <time>2012-09-16T07:53:51Z</time>
      </trkpt>
      <trkpt lat="47.29497" lon="4.99778">
        <ele>318</ele>
        <time>2012-09-16T07:54:12Z</time>
      </trkpt>
      <trkpt lat="47.29498" lon="4.99757">
        <ele>319</ele>
        <time>2012-09-16T07:54:22Z</time>
      </trkpt>
      <trkpt lat="47.2949" lon="4.99732">
        <ele>330</ele>
        <time>2012-09-16T07:54:39Z</time>
      </trkpt>
      <trkpt lat="47.2948" lon="4.99717">
        <ele>334</ele>
        <time>2012-09-16T07:54:45Z</time>
      </trkpt>
      <trkpt lat="47.29468" lon="4.99702">
        <ele>333</ele>
        <time>2012-09-16T07:54:54Z</time>
      </trkpt>
      <trkpt lat="47.29457" lon="4.99682">
        <ele>336</ele>
        <time>2012-09-16T07:55:04Z</time>
      </trkpt>
      <trkpt lat="47.29443" lon="4.99667">
        <ele>338</ele>
        <time>2012-09-16T07:55:15Z</time>
      </trkpt>
      <trkpt lat="47.2943" lon="4.99647">
        <ele>337</ele>
        <time>2012-09-16T07:55:25Z</time>
      </trkpt>
      <trkpt lat="47.2942" lon="4.99627">
        <ele>336</ele>
        <time>2012-09-16T07:55:33Z</time>
      </trkpt>
      <trkpt lat="47.29418" lon="4.99605">
        <ele>336</ele>
        <time>2012-09-16T07:55:41Z</time>
      </trkpt>
      <trkpt lat="47.29418" lon="4.99583">
        <ele>336</ele>
        <time>2012-09-16T07:55:50Z</time>
      </trkpt>
      <trkpt lat="47.29407" lon="4.99568">
        <ele>339</ele>
        <time>2012-09-16T07:55:58Z</time>
      </trkpt>
      <trkpt lat="47.29407" lon="4.99548">
        <ele>342</ele>
        <time>2012-09-16T07:56:04Z</time>
      </trkpt>
      <trkpt lat="47.29407" lon="4.99528">
        <ele>343</ele>
        <time>2012-09-16T07:56:15Z</time>
      </trkpt>
      <trkpt lat="47.29405" lon="4.99507">
        <ele>344</ele>
        <time>2012-09-16T07:56:25Z</time>
      </trkpt>
      <trkpt lat="47.29393" lon="4.99488">
        <ele>342</ele>
        <time>2012-09-16T07:56:34Z</time>
      </trkpt>
      <trkpt lat="47.29398" lon="4.99468">
        <ele>342</ele>
        <time>2012-09-16T07:56:44Z</time>
      </trkpt>
      <trkpt lat="47.29408" lon="4.99455">
        <ele>345</ele>
        <time>2012-09-16T07:56:55Z</time>
      </trkpt>
      <trkpt lat="47.29417" lon="4.99437">
        <ele>348</ele>
        <time>2012-09-16T07:57:05Z</time>
      </trkpt>
      <trkpt lat="47.29427" lon="4.99418">
        <ele>351</ele>
        <time>2012-09-16T07:57:16Z</time>
      </trkpt>
      <trkpt lat="47.29432" lon="4.99397">
        <ele>348</ele>
        <time>2012-09-16T07:57:24Z</time>
      </trkpt>
      <trkpt lat="47.29435" lon="4.99375">
        <ele>350</ele>
        <time>2012-09-16T07:57:35Z</time>
      </trkpt>
      <trkpt lat="47.29445" lon="4.99362">
        <ele>350</ele>
        <time>2012-09-16T07:57:43Z</time>
      </trkpt>
      <trkpt lat="47.29455" lon="4.99348">
        <ele>351</ele>
        <time>2012-09-16T07:57:52Z</time>
      </trkpt>
      <trkpt lat="47.29457" lon="4.99327">
        <ele>352</ele>
        <time>2012-09-16T07:58:02Z</time>
      </trkpt>
      <trkpt lat="47.29467" lon="4.9931">
        <ele>359</ele>
        <time>2012-09-16T07:58:15Z</time>
      </trkpt>
      <trkpt lat="47.29483" lon="4.99288">
        <ele>368</ele>
        <time>2012-09-16T07:58:34Z</time>
      </trkpt>
      <trkpt lat="47.29495" lon="4.99272">
        <ele>370</ele>
        <time>2012-09-16T07:58:44Z</time>
      </trkpt>
      <trkpt lat="47.29502" lon="4.99253">
        <ele>371</ele>
        <time>2012-09-16T07:58:52Z</time>
      </trkpt>
      <trkpt lat="47.29513" lon="4.99243">
        <ele>375</ele>
        <time>2012-09-16T07:59:05Z</time>
      </trkpt>
      <trkpt lat="47.29518" lon="4.99222">
        <ele>375</ele>
        <time>2012-09-16T07:59:34Z</time>
      </trkpt>
      <trkpt lat="47.29528" lon="4.99205">
        <ele>378</ele>
        <time>2012-09-16T07:59:45Z</time>
      </trkpt>
      <trkpt lat="47.29538" lon="4.99185">
        <ele>380</ele>
        <time>2012-09-16T07:59:55Z</time>
      </trkpt>
      <trkpt lat="47.29545" lon="4.99167">
        <ele>380</ele>
        <time>2012-09-16T08:00:06Z</time>
      </trkpt>
      <trkpt lat="47.29555" lon="4.99153">
        <ele>382</ele>
        <time>2012-09-16T08:00:16Z</time>
      </trkpt>
      <trkpt lat="47.29565" lon="4.99135">
        <ele>386</ele>
        <time>2012-09-16T08:00:27Z</time>
      </trkpt>
      <trkpt lat="47.29573" lon="4.99113">
        <ele>387</ele>
        <time>2012-09-16T08:00:37Z</time>
      </trkpt>
      <trkpt lat="47.2958" lon="4.99095">
        <ele>386</ele>
        <time>2012-09-16T08:00:45Z</time>
      </trkpt>
      <trkpt lat="47.2959" lon="4.99077">
        <ele>386</ele>
        <time>2012-09-16T08:00:56Z</time>
      </trkpt>
      <trkpt lat="47.29598" lon="4.99057">
        <ele>383</ele>
        <time>2012-09-16T08:01:06Z</time>
      </trkpt>
      <trkpt lat="47.29612" lon="4.99045">
        <ele>383</ele>
        <time>2012-09-16T08:01:17Z</time>
      </trkpt>
      <trkpt lat="47.2963" lon="4.9903">
        <ele>383</ele>
        <time>2012-09-16T08:01:29Z</time>
      </trkpt>
      <trkpt lat="47.29642" lon="4.99018">
        <ele>385</ele>
        <time>2012-09-16T08:01:37Z</time>
      </trkpt>
      <trkpt lat="47.29655" lon="4.99002">
        <ele>385</ele>
        <time>2012-09-16T08:01:47Z</time>
      </trkpt>
      <trkpt lat="47.29665" lon="4.98987">
        <ele>386</ele>
        <time>2012-09-16T08:01:56Z</time>
      </trkpt>
      <trkpt lat="47.2967" lon="4.98963">
        <ele>386</ele>
        <time>2012-09-16T08:02:06Z</time>
      </trkpt>
      <trkpt lat="47.29675" lon="4.98943">
        <ele>386</ele>
        <time>2012-09-16T08:02:14Z</time>
      </trkpt>
      <trkpt lat="47.29678" lon="4.9892">
        <ele>386</ele>
        <time>2012-09-16T08:02:25Z</time>
      </trkpt>
      <trkpt lat="47.2968" lon="4.989">
        <ele>387</ele>
        <time>2012-09-16T08:02:33Z</time>
      </trkpt>
      <trkpt lat="47.29673" lon="4.98877">
        <ele>387</ele>
        <time>2012-09-16T08:02:41Z</time>
      </trkpt>
      <trkpt lat="47.29657" lon="4.98865">
        <ele>387</ele>
        <time>2012-09-16T08:02:47Z</time>
      </trkpt>
      <trkpt lat="47.29642" lon="4.9886">
        <ele>387</ele>
        <time>2012-09-16T08:02:51Z</time>
      </trkpt>
      <trkpt lat="47.29627" lon="4.98853">
        <ele>386</ele>
        <time>2012-09-16T08:02:56Z</time>
      </trkpt>
      <trkpt lat="47.29612" lon="4.98845">
        <ele>386</ele>
        <time>2012-09-16T08:03:00Z</time>
      </trkpt>
      <trkpt lat="47.29512" lon="4.98783">
        <ele>384</ele>
        <time>2012-09-16T08:03:24Z</time>
      </trkpt>
      <trkpt lat="47.29497" lon="4.98778">
        <ele>384</ele>
        <time>2012-09-16T08:03:26Z</time>
      </trkpt>
      <trkpt lat="47.29478" lon="4.9877">
        <ele>384</ele>
        <time>2012-09-16T08:03:30Z</time>
      </trkpt>
      <trkpt lat="47.2946" lon="4.98762">
        <ele>383</ele>
        <time>2012-09-16T08:03:34Z</time>
      </trkpt>
      <trkpt lat="47.29352" lon="4.98708">
        <ele>381</ele>
        <time>2012-09-16T08:03:57Z</time>
      </trkpt>
      <trkpt lat="47.29322" lon="4.98695">
        <ele>380</ele>
        <time>2012-09-16T08:04:01Z</time>
      </trkpt>
      <trkpt lat="47.29287" lon="4.98682">
        <ele>380</ele>
        <time>2012-09-16T08:04:07Z</time>
      </trkpt>
      <trkpt lat="47.29263" lon="4.98675">
        <ele>379</ele>
        <time>2012-09-16T08:04:12Z</time>
      </trkpt>
      <trkpt lat="47.29228" lon="4.98663">
        <ele>379</ele>
        <time>2012-09-16T08:04:18Z</time>
      </trkpt>
      <trkpt lat="47.29203" lon="4.98657">
        <ele>379</ele>
        <time>2012-09-16T08:04:22Z</time>
      </trkpt>
      <trkpt lat="47.29175" lon="4.98648">
        <ele>379</ele>
        <time>2012-09-16T08:04:28Z</time>
      </trkpt>
      <trkpt lat="47.2915" lon="4.9864">
        <ele>379</ele>
        <time>2012-09-16T08:04:34Z</time>
      </trkpt>
      <trkpt lat="47.29133" lon="4.98632">
        <ele>380</ele>
        <time>2012-09-16T08:04:39Z</time>
      </trkpt>
      <trkpt lat="47.29118" lon="4.98628">
        <ele>380</ele>
        <time>2012-09-16T08:04:43Z</time>
      </trkpt>
      <trkpt lat="47.29102" lon="4.98623">
        <ele>380</ele>
        <time>2012-09-16T08:04:47Z</time>
      </trkpt>
      <trkpt lat="47.29058" lon="4.98608">
        <ele>380</ele>
        <time>2012-09-16T08:04:57Z</time>
      </trkpt>
      <trkpt lat="47.29042" lon="4.98608">
        <ele>380</ele>
        <time>2012-09-16T08:05:01Z</time>
      </trkpt>
      <trkpt lat="47.29025" lon="4.98612">
        <ele>380</ele>
        <time>2012-09-16T08:05:05Z</time>
      </trkpt>
      <trkpt lat="47.29007" lon="4.9862">
        <ele>379</ele>
        <time>2012-09-16T08:05:10Z</time>
      </trkpt>
      <trkpt lat="47.28987" lon="4.98627">
        <ele>378</ele>
        <time>2012-09-16T08:05:14Z</time>
      </trkpt>
      <trkpt lat="47.28965" lon="4.9862">
        <ele>378</ele>
        <time>2012-09-16T08:05:18Z</time>
      </trkpt>
      <trkpt lat="47.28945" lon="4.98605">
        <ele>377</ele>
        <time>2012-09-16T08:05:22Z</time>
      </trkpt>
      <trkpt lat="47.28932" lon="4.98577">
        <ele>377</ele>
        <time>2012-09-16T08:05:26Z</time>
      </trkpt>
      <trkpt lat="47.28925" lon="4.98552">
        <ele>377</ele>
        <time>2012-09-16T08:05:30Z</time>
      </trkpt>
      <trkpt lat="47.2892" lon="4.9853">
        <ele>377</ele>
        <time>2012-09-16T08:05:34Z</time>
      </trkpt>
      <trkpt lat="47.28918" lon="4.98507">
        <ele>378</ele>
        <time>2012-09-16T08:05:39Z</time>
      </trkpt>
      <trkpt lat="47.28917" lon="4.98463">
        <ele>379</ele>
        <time>2012-09-16T08:05:47Z</time>
      </trkpt>
      <trkpt lat="47.28917" lon="4.98438">
        <ele>379</ele>
        <time>2012-09-16T08:05:51Z</time>
      </trkpt>
      <trkpt lat="47.28912" lon="4.98408">
        <ele>379</ele>
        <time>2012-09-16T08:05:57Z</time>
      </trkpt>
      <trkpt lat="47.28908" lon="4.98387">
        <ele>379</ele>
        <time>2012-09-16T08:06:01Z</time>
      </trkpt>
      <trkpt lat="47.28915" lon="4.98367">
        <ele>380</ele>
        <time>2012-09-16T08:06:07Z</time>
      </trkpt>
      <trkpt lat="47.28923" lon="4.98345">
        <ele>383</ele>
        <time>2012-09-16T08:06:15Z</time>
      </trkpt>
      <trkpt lat="47.28933" lon="4.98325">
        <ele>385</ele>
        <time>2012-09-16T08:06:26Z</time>
      </trkpt>
      <trkpt lat="47.28937" lon="4.98302">
        <ele>387</ele>
        <time>2012-09-16T08:06:34Z</time>
      </trkpt>
      <trkpt lat="47.28948" lon="4.98287">
        <ele>388</ele>
        <time>2012-09-16T08:06:40Z</time>
      </trkpt>
      <trkpt lat="47.28957" lon="4.98265">
        <ele>388</ele>
        <time>2012-09-16T08:06:46Z</time>
      </trkpt>
      <trkpt lat="47.28968" lon="4.98243">
        <ele>388</ele>
        <time>2012-09-16T08:06:53Z</time>
      </trkpt>
      <trkpt lat="47.28992" lon="4.98202">
        <ele>391</ele>
        <time>2012-09-16T08:07:05Z</time>
      </trkpt>
      <trkpt lat="47.29003" lon="4.98182">
        <ele>393</ele>
        <time>2012-09-16T08:07:11Z</time>
      </trkpt>
      <trkpt lat="47.29022" lon="4.98177">
        <ele>393</ele>
        <time>2012-09-16T08:07:18Z</time>
      </trkpt>
      <trkpt lat="47.29037" lon="4.98185">
        <ele>393</ele>
        <time>2012-09-16T08:07:22Z</time>
      </trkpt>
      <trkpt lat="47.2905" lon="4.98195">
        <ele>394</ele>
        <time>2012-09-16T08:07:26Z</time>
      </trkpt>
      <trkpt lat="47.29058" lon="4.98217">
        <ele>394</ele>
        <time>2012-09-16T08:07:30Z</time>
      </trkpt>
      <trkpt lat="47.29072" lon="4.98232">
        <ele>395</ele>
        <time>2012-09-16T08:07:34Z</time>
      </trkpt>
      <trkpt lat="47.29092" lon="4.98245">
        <ele>397</ele>
        <time>2012-09-16T08:07:38Z</time>
      </trkpt>
      <trkpt lat="47.29115" lon="4.9826">
        <ele>395</ele>
        <time>2012-09-16T08:07:44Z</time>
      </trkpt>
      <trkpt lat="47.2913" lon="4.98257">
        <ele>396</ele>
        <time>2012-09-16T08:07:48Z</time>
      </trkpt>
      <trkpt lat="47.29147" lon="4.98257">
        <ele>397</ele>
        <time>2012-09-16T08:07:52Z</time>
      </trkpt>
      <trkpt lat="47.29163" lon="4.98262">
        <ele>397</ele>
        <time>2012-09-16T08:07:57Z</time>
      </trkpt>
      <trkpt lat="47.29178" lon="4.98265">
        <ele>397</ele>
        <time>2012-09-16T08:08:01Z</time>
      </trkpt>
      <trkpt lat="47.292" lon="4.98258">
        <ele>396</ele>
        <time>2012-09-16T08:08:07Z</time>
      </trkpt>
      <trkpt lat="47.29233" lon="4.98248">
        <ele>393</ele>
        <time>2012-09-16T08:08:13Z</time>
      </trkpt>
      <trkpt lat="47.29253" lon="4.98248">
        <ele>390</ele>
        <time>2012-09-16T08:08:18Z</time>
      </trkpt>
      <trkpt lat="47.29272" lon="4.98252">
        <ele>390</ele>
        <time>2012-09-16T08:08:22Z</time>
      </trkpt>
      <trkpt lat="47.29287" lon="4.98258">
        <ele>388</ele>
        <time>2012-09-16T08:08:26Z</time>
      </trkpt>
      <trkpt lat="47.29302" lon="4.98262">
        <ele>388</ele>
        <time>2012-09-16T08:08:30Z</time>
      </trkpt>
      <trkpt lat="47.29317" lon="4.98267">
        <ele>389</ele>
        <time>2012-09-16T08:08:34Z</time>
      </trkpt>
      <trkpt lat="47.29328" lon="4.98277">
        <ele>389</ele>
        <time>2012-09-16T08:08:40Z</time>
      </trkpt>
      <trkpt lat="47.29342" lon="4.98285">
        <ele>389</ele>
        <time>2012-09-16T08:08:47Z</time>
      </trkpt>
      <trkpt lat="47.29358" lon="4.98292">
        <ele>389</ele>
        <time>2012-09-16T08:08:55Z</time>
      </trkpt>
      <trkpt lat="47.2937" lon="4.98307">
        <ele>389</ele>
        <time>2012-09-16T08:09:01Z</time>
      </trkpt>
      <trkpt lat="47.29383" lon="4.98315">
        <ele>388</ele>
        <time>2012-09-16T08:09:08Z</time>
      </trkpt>
      <trkpt lat="47.29395" lon="4.98327">
        <ele>388</ele>
        <time>2012-09-16T08:09:14Z</time>
      </trkpt>
      <trkpt lat="47.29412" lon="4.98335">
        <ele>388</ele>
        <time>2012-09-16T08:09:22Z</time>
      </trkpt>
      <trkpt lat="47.29423" lon="4.98347">
        <ele>389</ele>
        <time>2012-09-16T08:09:28Z</time>
      </trkpt>
      <trkpt lat="47.29438" lon="4.98357">
        <ele>389</ele>
        <time>2012-09-16T08:09:37Z</time>
      </trkpt>
      <trkpt lat="47.29452" lon="4.9837">
        <ele>390</ele>
        <time>2012-09-16T08:09:45Z</time>
      </trkpt>
      <trkpt lat="47.29465" lon="4.98383">
        <ele>390</ele>
        <time>2012-09-16T08:09:51Z</time>
      </trkpt>
      <trkpt lat="47.29478" lon="4.9839">
        <ele>391</ele>
        <time>2012-09-16T08:10:00Z</time>
      </trkpt>
      <trkpt lat="47.29493" lon="4.98397">
        <ele>391</ele>
        <time>2012-09-16T08:10:08Z</time>
      </trkpt>
      <trkpt lat="47.29505" lon="4.98407">
        <ele>391</ele>
        <time>2012-09-16T08:10:14Z</time>
      </trkpt>
      <trkpt lat="47.2952" lon="4.98415">
        <ele>391</ele>
        <time>2012-09-16T08:10:23Z</time>
      </trkpt>
      <trkpt lat="47.29533" lon="4.98425">
        <ele>392</ele>
        <time>2012-09-16T08:10:29Z</time>
      </trkpt>
      <trkpt lat="47.2955" lon="4.98445">
        <ele>392</ele>
        <time>2012-09-16T08:10:35Z</time>
      </trkpt>
      <trkpt lat="47.2957" lon="4.98467">
        <ele>392</ele>
        <time>2012-09-16T08:10:43Z</time>
      </trkpt>
      <trkpt lat="47.29582" lon="4.98478">
        <ele>392</ele>
        <time>2012-09-16T08:10:50Z</time>
      </trkpt>
      <trkpt lat="47.29592" lon="4.98463">
        <ele>393</ele>
        <time>2012-09-16T08:10:56Z</time>
      </trkpt>
      <trkpt lat="47.29598" lon="4.98443">
        <ele>393</ele>
        <time>2012-09-16T08:11:02Z</time>
      </trkpt>
      <trkpt lat="47.29585" lon="4.98433">
        <ele>392</ele>
        <time>2012-09-16T08:11:09Z</time>
      </trkpt>
      <trkpt lat="47.29562" lon="4.98413">
        <ele>391</ele>
        <time>2012-09-16T08:11:17Z</time>
      </trkpt>
      <trkpt lat="47.29545" lon="4.98405">
        <ele>390</ele>
        <time>2012-09-16T08:11:21Z</time>
      </trkpt>
      <trkpt lat="47.2954" lon="4.98377">
        <ele>388</ele>
        <time>2012-09-16T08:11:28Z</time>
      </trkpt>
      <trkpt lat="47.2953" lon="4.9836">
        <ele>387</ele>
        <time>2012-09-16T08:11:32Z</time>
      </trkpt>
      <trkpt lat="47.29515" lon="4.9835">
        <ele>386</ele>
        <time>2012-09-16T08:11:36Z</time>
      </trkpt>
      <trkpt lat="47.29497" lon="4.98337">
        <ele>387</ele>
        <time>2012-09-16T08:11:40Z</time>
      </trkpt>
      <trkpt lat="47.29483" lon="4.9833">
        <ele>387</ele>
        <time>2012-09-16T08:11:44Z</time>
      </trkpt>
      <trkpt lat="47.29463" lon="4.98315">
        <ele>387</ele>
        <time>2012-09-16T08:11:49Z</time>
      </trkpt>
      <trkpt lat="47.29452" lon="4.98297">
        <ele>386</ele>
        <time>2012-09-16T08:11:53Z</time>
      </trkpt>
      <trkpt lat="47.29437" lon="4.98285">
        <ele>386</ele>
        <time>2012-09-16T08:11:57Z</time>
      </trkpt>
      <trkpt lat="47.29418" lon="4.98278">
        <ele>386</ele>
        <time>2012-09-16T08:12:01Z</time>
      </trkpt>
      <trkpt lat="47.29413" lon="4.98258">
        <ele>386</ele>
        <time>2012-09-16T08:12:07Z</time>
      </trkpt>
      <trkpt lat="47.29403" lon="4.9824">
        <ele>388</ele>
        <time>2012-09-16T08:12:16Z</time>
      </trkpt>
      <trkpt lat="47.29393" lon="4.98227">
        <ele>387</ele>
        <time>2012-09-16T08:12:20Z</time>
      </trkpt>
      <trkpt lat="47.29372" lon="4.982">
        <ele>386</ele>
        <time>2012-09-16T08:12:26Z</time>
      </trkpt>
      <trkpt lat="47.29365" lon="4.98173">
        <ele>387</ele>
        <time>2012-09-16T08:12:33Z</time>
      </trkpt>
      <trkpt lat="47.29353" lon="4.98157">
        <ele>388</ele>
        <time>2012-09-16T08:12:39Z</time>
      </trkpt>
      <trkpt lat="47.2934" lon="4.98143">
        <ele>387</ele>
        <time>2012-09-16T08:12:43Z</time>
      </trkpt>
      <trkpt lat="47.29327" lon="4.98125">
        <ele>387</ele>
        <time>2012-09-16T08:12:47Z</time>
      </trkpt>
      <trkpt lat="47.29315" lon="4.98105">
        <ele>386</ele>
        <time>2012-09-16T08:12:52Z</time>
      </trkpt>
      <trkpt lat="47.29303" lon="4.98083">
        <ele>386</ele>
        <time>2012-09-16T08:12:56Z</time>
      </trkpt>
      <trkpt lat="47.29293" lon="4.98062">
        <ele>386</ele>
        <time>2012-09-16T08:13:00Z</time>
      </trkpt>
      <trkpt lat="47.29285" lon="4.98037">
        <ele>387</ele>
        <time>2012-09-16T08:13:04Z</time>
      </trkpt>
      <trkpt lat="47.29275" lon="4.98018">
        <ele>387</ele>
        <time>2012-09-16T08:13:08Z</time>
      </trkpt>
      <trkpt lat="47.29265" lon="4.97998">
        <ele>388</ele>
        <time>2012-09-16T08:13:13Z</time>
      </trkpt>
      <trkpt lat="47.29255" lon="4.97975">
        <ele>388</ele>
        <time>2012-09-16T08:13:17Z</time>
      </trkpt>
      <trkpt lat="47.29238" lon="4.97935">
        <ele>389</ele>
        <time>2012-09-16T08:13:23Z</time>
      </trkpt>
      <trkpt lat="47.29242" lon="4.97912">
        <ele>390</ele>
        <time>2012-09-16T08:13:27Z</time>
      </trkpt>
      <trkpt lat="47.29255" lon="4.9789">
        <ele>392</ele>
        <time>2012-09-16T08:13:34Z</time>
      </trkpt>
      <trkpt lat="47.29272" lon="4.97877">
        <ele>391</ele>
        <time>2012-09-16T08:13:38Z</time>
      </trkpt>
      <trkpt lat="47.29297" lon="4.97865">
        <ele>391</ele>
        <time>2012-09-16T08:13:42Z</time>
      </trkpt>
      <trkpt lat="47.29317" lon="4.97863">
        <ele>392</ele>
        <time>2012-09-16T08:13:46Z</time>
      </trkpt>
      <trkpt lat="47.29352" lon="4.97863">
        <ele>394</ele>
        <time>2012-09-16T08:13:55Z</time>
      </trkpt>
      <trkpt lat="47.29362" lon="4.9785">
        <ele>394</ele>
        <time>2012-09-16T08:13:59Z</time>
      </trkpt>
      <trkpt lat="47.29367" lon="4.97825">
        <ele>392</ele>
        <time>2012-09-16T08:14:03Z</time>
      </trkpt>
      <trkpt lat="47.29365" lon="4.97802">
        <ele>393</ele>
        <time>2012-09-16T08:14:09Z</time>
      </trkpt>
      <trkpt lat="47.29362" lon="4.97782">
        <ele>392</ele>
        <time>2012-09-16T08:14:16Z</time>
      </trkpt>
      <trkpt lat="47.2937" lon="4.97758">
        <ele>393</ele>
        <time>2012-09-16T08:14:24Z</time>
      </trkpt>
      <trkpt lat="47.29367" lon="4.97735">
        <ele>392</ele>
        <time>2012-09-16T08:14:30Z</time>
      </trkpt>
      <trkpt lat="47.29362" lon="4.97712">
        <ele>392</ele>
        <time>2012-09-16T08:14:37Z</time>
      </trkpt>
      <trkpt lat="47.29355" lon="4.97687">
        <ele>392</ele>
        <time>2012-09-16T08:14:43Z</time>
      </trkpt>
      <trkpt lat="47.29352" lon="4.97658">
        <ele>392</ele>
        <time>2012-09-16T08:14:49Z</time>
      </trkpt>
      <trkpt lat="47.2935" lon="4.97637">
        <ele>393</ele>
        <time>2012-09-16T08:14:55Z</time>
      </trkpt>
      <trkpt lat="47.2934" lon="4.97608">
        <ele>394</ele>
        <time>2012-09-16T08:15:04Z</time>
      </trkpt>
      <trkpt lat="47.2934" lon="4.97583">
        <ele>394</ele>
        <time>2012-09-16T08:15:10Z</time>
      </trkpt>
      <trkpt lat="47.29343" lon="4.97557">
        <ele>395</ele>
        <time>2012-09-16T08:15:16Z</time>
      </trkpt>
      <trkpt lat="47.29347" lon="4.97535">
        <ele>396</ele>
        <time>2012-09-16T08:15:22Z</time>
      </trkpt>
      <trkpt lat="47.29352" lon="4.97505">
        <ele>397</ele>
        <time>2012-09-16T08:15:31Z</time>
      </trkpt>
      <trkpt lat="47.29357" lon="4.97483">
        <ele>397</ele>
        <time>2012-09-16T08:15:37Z</time>
      </trkpt>
      <trkpt lat="47.29367" lon="4.97462">
        <ele>398</ele>
        <time>2012-09-16T08:15:43Z</time>
      </trkpt>
      <trkpt lat="47.29378" lon="4.97442">
        <ele>398</ele>
        <time>2012-09-16T08:15:49Z</time>
      </trkpt>
      <trkpt lat="47.29392" lon="4.97423">
        <ele>398</ele>
        <time>2012-09-16T08:15:56Z</time>
      </trkpt>
      <trkpt lat="47.29403" lon="4.97402">
        <ele>399</ele>
        <time>2012-09-16T08:16:02Z</time>
      </trkpt>
      <trkpt lat="47.29423" lon="4.974">
        <ele>399</ele>
        <time>2012-09-16T08:16:08Z</time>
      </trkpt>
      <trkpt lat="47.29437" lon="4.97395">
        <ele>399</ele>
        <time>2012-09-16T08:16:12Z</time>
      </trkpt>
      <trkpt lat="47.29452" lon="4.97388">
        <ele>399</ele>
        <time>2012-09-16T08:16:17Z</time>
      </trkpt>
      <trkpt lat="47.29462" lon="4.97365">
        <ele>399</ele>
        <time>2012-09-16T08:16:23Z</time>
      </trkpt>
      <trkpt lat="47.29475" lon="4.97355">
        <ele>399</ele>
        <time>2012-09-16T08:16:27Z</time>
      </trkpt>
      <trkpt lat="47.29495" lon="4.9735">
        <ele>400</ele>
        <time>2012-09-16T08:16:33Z</time>
      </trkpt>
      <trkpt lat="47.29507" lon="4.97328">
        <ele>400</ele>
        <time>2012-09-16T08:16:39Z</time>
      </trkpt>
      <trkpt lat="47.29523" lon="4.97307">
        <ele>398</ele>
        <time>2012-09-16T08:16:46Z</time>
      </trkpt>
      <trkpt lat="47.29558" lon="4.97267">
        <ele>397</ele>
        <time>2012-09-16T08:16:56Z</time>
      </trkpt>
      <trkpt lat="47.29568" lon="4.97245">
        <ele>398</ele>
        <time>2012-09-16T08:17:00Z</time>
      </trkpt>
      <trkpt lat="47.29578" lon="4.97232">
        <ele>398</ele>
        <time>2012-09-16T08:17:02Z</time>
      </trkpt>
      <trkpt lat="47.29595" lon="4.9722">
        <ele>397</ele>
        <time>2012-09-16T08:17:06Z</time>
      </trkpt>
      <trkpt lat="47.29613" lon="4.97217">
        <ele>396</ele>
        <time>2012-09-16T08:17:11Z</time>
      </trkpt>
      <trkpt lat="47.2963" lon="4.97215">
        <ele>397</ele>
        <time>2012-09-16T08:17:15Z</time>
      </trkpt>
      <trkpt lat="47.29665" lon="4.97215">
        <ele>397</ele>
        <time>2012-09-16T08:17:23Z</time>
      </trkpt>
      <trkpt lat="47.29685" lon="4.972">
        <ele>396</ele>
        <time>2012-09-16T08:17:27Z</time>
      </trkpt>
      <trkpt lat="47.29718" lon="4.97183">
        <ele>397</ele>
        <time>2012-09-16T08:17:35Z</time>
      </trkpt>
      <trkpt lat="47.29737" lon="4.97177">
        <ele>397</ele>
        <time>2012-09-16T08:17:40Z</time>
      </trkpt>
      <trkpt lat="47.29753" lon="4.97183">
        <ele>397</ele>
        <time>2012-09-16T08:17:44Z</time>
      </trkpt>
      <trkpt lat="47.29772" lon="4.9719">
        <ele>397</ele>
        <time>2012-09-16T08:17:48Z</time>
      </trkpt>
      <trkpt lat="47.29792" lon="4.97192">
        <ele>397</ele>
        <time>2012-09-16T08:17:52Z</time>
      </trkpt>
      <trkpt lat="47.29807" lon="4.97188">
        <ele>397</ele>
        <time>2012-09-16T08:17:56Z</time>
      </trkpt>
      <trkpt lat="47.298" lon="4.97168">
        <ele>394</ele>
        <time>2012-09-16T08:18:21Z</time>
      </trkpt>
      <trkpt lat="47.29782" lon="4.97153">
        <ele>394</ele>
        <time>2012-09-16T08:18:27Z</time>
      </trkpt>
      <trkpt lat="47.2977" lon="4.97138">
        <ele>394</ele>
        <time>2012-09-16T08:18:31Z</time>
      </trkpt>
      <trkpt lat="47.29757" lon="4.97127">
        <ele>394</ele>
        <time>2012-09-16T08:18:35Z</time>
      </trkpt>
      <trkpt lat="47.29743" lon="4.97122">
        <ele>394</ele>
        <time>2012-09-16T08:18:39Z</time>
      </trkpt>
      <trkpt lat="47.2973" lon="4.97115">
        <ele>394</ele>
        <time>2012-09-16T08:18:45Z</time>
      </trkpt>
      <trkpt lat="47.2973" lon="4.97093">
        <ele>388</ele>
        <time>2012-09-16T08:19:10Z</time>
      </trkpt>
      <trkpt lat="47.29742" lon="4.97075">
        <ele>386</ele>
        <time>2012-09-16T08:19:18Z</time>
      </trkpt>
      <trkpt lat="47.29732" lon="4.97053">
        <ele>386</ele>
        <time>2012-09-16T08:19:28Z</time>
      </trkpt>
      <trkpt lat="47.29712" lon="4.9705">
        <ele>386</ele>
        <time>2012-09-16T08:19:32Z</time>
      </trkpt>
      <trkpt lat="47.29695" lon="4.97047">
        <ele>385</ele>
        <time>2012-09-16T08:19:37Z</time>
      </trkpt>
      <trkpt lat="47.29643" lon="4.97035">
        <ele>383</ele>
        <time>2012-09-16T08:19:49Z</time>
      </trkpt>
      <trkpt lat="47.29633" lon="4.9702">
        <ele>381</ele>
        <time>2012-09-16T08:19:53Z</time>
      </trkpt>
      <trkpt lat="47.29623" lon="4.97005">
        <ele>377</ele>
        <time>2012-09-16T08:19:57Z</time>
      </trkpt>
      <trkpt lat="47.29612" lon="4.96988">
        <ele>373</ele>
        <time>2012-09-16T08:20:01Z</time>
      </trkpt>
      <trkpt lat="47.29572" lon="4.96937">
        <ele>367</ele>
        <time>2012-09-16T08:20:09Z</time>
      </trkpt>
      <trkpt lat="47.29548" lon="4.96932">
        <ele>363</ele>
        <time>2012-09-16T08:20:13Z</time>
      </trkpt>
      <trkpt lat="47.29527" lon="4.96935">
        <ele>366</ele>
        <time>2012-09-16T08:20:18Z</time>
      </trkpt>
      <trkpt lat="47.2951" lon="4.96942">
        <ele>366</ele>
        <time>2012-09-16T08:20:22Z</time>
      </trkpt>
      <trkpt lat="47.29497" lon="4.96945">
        <ele>369</ele>
        <time>2012-09-16T08:20:26Z</time>
      </trkpt>
      <trkpt lat="47.29482" lon="4.96948">
        <ele>369</ele>
        <time>2012-09-16T08:20:32Z</time>
      </trkpt>
      <trkpt lat="47.29468" lon="4.96955">
        <ele>370</ele>
        <time>2012-09-16T08:20:38Z</time>
      </trkpt>
      <trkpt lat="47.29462" lon="4.96935">
        <ele>366</ele>
        <time>2012-09-16T08:20:46Z</time>
      </trkpt>
      <trkpt lat="47.2946" lon="4.96915">
        <ele>364</ele>
        <time>2012-09-16T08:20:54Z</time>
      </trkpt>
      <trkpt lat="47.29457" lon="4.96895">
        <ele>363</ele>
        <time>2012-09-16T08:21:03Z</time>
      </trkpt>
      <trkpt lat="47.29445" lon="4.96885">
        <ele>376</ele>
        <time>2012-09-16T08:21:29Z</time>
      </trkpt>
      <trkpt lat="47.29438" lon="4.96867">
        <ele>379</ele>
        <time>2012-09-16T08:21:56Z</time>
      </trkpt>
      <trkpt lat="47.29428" lon="4.96853">
        <ele>380</ele>
        <time>2012-09-16T08:22:22Z</time>
      </trkpt>
      <trkpt lat="47.2942" lon="4.96837">
        <ele>383</ele>
        <time>2012-09-16T08:22:47Z</time>
      </trkpt>
      <trkpt lat="47.29412" lon="4.9682">
        <ele>391</ele>
        <time>2012-09-16T08:23:23Z</time>
      </trkpt>
      <trkpt lat="47.29398" lon="4.96812">
        <ele>398</ele>
        <time>2012-09-16T08:23:51Z</time>
      </trkpt>
      <trkpt lat="47.29387" lon="4.96823">
        <ele>399</ele>
        <time>2012-09-16T08:24:55Z</time>
      </trkpt>
      <trkpt lat="47.29383" lon="4.96848">
        <ele>403</ele>
        <time>2012-09-16T08:25:05Z</time>
      </trkpt>
      <trkpt lat="47.29373" lon="4.96865">
        <ele>401</ele>
        <time>2012-09-16T08:25:15Z</time>
      </trkpt>
      <trkpt lat="47.29362" lon="4.96877">
        <ele>401</ele>
        <time>2012-09-16T08:25:26Z</time>
      </trkpt>
      <trkpt lat="47.29347" lon="4.96877">
        <ele>400</ele>
        <time>2012-09-16T08:25:34Z</time>
      </trkpt>
      <trkpt lat="47.29328" lon="4.96877">
        <ele>400</ele>
        <time>2012-09-16T08:25:45Z</time>
      </trkpt>
      <trkpt lat="47.29313" lon="4.9687">
        <ele>399</ele>
        <time>2012-09-16T08:25:53Z</time>
      </trkpt>
      <trkpt lat="47.293" lon="4.96863">
        <ele>398</ele>
        <time>2012-09-16T08:25:57Z</time>
      </trkpt>
      <trkpt lat="47.2929" lon="4.9685">
        <ele>399</ele>
        <time>2012-09-16T08:26:03Z</time>
      </trkpt>
      <trkpt lat="47.29282" lon="4.96828">
        <ele>399</ele>
        <time>2012-09-16T08:26:12Z</time>
      </trkpt>
      <trkpt lat="47.29272" lon="4.96808">
        <ele>403</ele>
        <time>2012-09-16T08:26:20Z</time>
      </trkpt>
      <trkpt lat="47.2926" lon="4.96793">
        <ele>407</ele>
        <time>2012-09-16T08:26:29Z</time>
      </trkpt>
      <trkpt lat="47.2925" lon="4.96773">
        <ele>410</ele>
        <time>2012-09-16T08:26:37Z</time>
      </trkpt>
      <trkpt lat="47.29238" lon="4.96752">
        <ele>413</ele>
        <time>2012-09-16T08:26:45Z</time>
      </trkpt>
      <trkpt lat="47.29232" lon="4.96732">
        <ele>415</ele>
        <time>2012-09-16T08:26:53Z</time>
      </trkpt>
      <trkpt lat="47.29217" lon="4.9672">
        <ele>418</ele>
        <time>2012-09-16T08:27:02Z</time>
      </trkpt>
      <trkpt lat="47.29205" lon="4.9671">
        <ele>421</ele>
        <time>2012-09-16T08:27:10Z</time>
      </trkpt>
      <trkpt lat="47.29208" lon="4.9669">
        <ele>421</ele>
        <time>2012-09-16T08:27:21Z</time>
      </trkpt>
      <trkpt lat="47.29212" lon="4.9667">
        <ele>421</ele>
        <time>2012-09-16T08:27:29Z</time>
      </trkpt>
      <trkpt lat="47.29218" lon="4.96647">
        <ele>421</ele>
        <time>2012-09-16T08:27:40Z</time>
      </trkpt>
      <trkpt lat="47.29223" lon="4.96627">
        <ele>421</ele>
        <time>2012-09-16T08:27:48Z</time>
      </trkpt>
      <trkpt lat="47.29235" lon="4.9656">
        <ele>424</ele>
        <time>2012-09-16T08:28:11Z</time>
      </trkpt>
      <trkpt lat="47.29242" lon="4.96527">
        <ele>425</ele>
        <time>2012-09-16T08:28:22Z</time>
      </trkpt>
      <trkpt lat="47.29247" lon="4.965">
        <ele>426</ele>
        <time>2012-09-16T08:28:28Z</time>
      </trkpt>
      <trkpt lat="47.29253" lon="4.96475">
        <ele>426</ele>
        <time>2012-09-16T08:28:32Z</time>
      </trkpt>
      <trkpt lat="47.29258" lon="4.9645">
        <ele>426</ele>
        <time>2012-09-16T08:28:36Z</time>
      </trkpt>
      <trkpt lat="47.29268" lon="4.96405">
        <ele>427</ele>
        <time>2012-09-16T08:28:45Z</time>
      </trkpt>
      <trkpt lat="47.29297" lon="4.96277">
        <ele>428</ele>
        <time>2012-09-16T08:29:06Z</time>
      </trkpt>
      <trkpt lat="47.2931" lon="4.96217">
        <ele>427</ele>
        <time>2012-09-16T08:29:14Z</time>
      </trkpt>
      <trkpt lat="47.29317" lon="4.96193">
        <ele>427</ele>
        <time>2012-09-16T08:29:19Z</time>
      </trkpt>
      <trkpt lat="47.29323" lon="4.96167">
        <ele>426</ele>
        <time>2012-09-16T08:29:23Z</time>
      </trkpt>
      <trkpt lat="47.29338" lon="4.96093">
        <ele>427</ele>
        <time>2012-09-16T08:29:33Z</time>
      </trkpt>
      <trkpt lat="47.29348" lon="4.96038">
        <ele>426</ele>
        <time>2012-09-16T08:29:42Z</time>
      </trkpt>
      <trkpt lat="47.29362" lon="4.95985">
        <ele>425</ele>
        <time>2012-09-16T08:29:50Z</time>
      </trkpt>
      <trkpt lat="47.29368" lon="4.95938">
        <ele>420</ele>
        <time>2012-09-16T08:29:56Z</time>
      </trkpt>
      <trkpt lat="47.29353" lon="4.9592">
        <ele>420</ele>
        <time>2012-09-16T08:30:03Z</time>
      </trkpt>
      <trkpt lat="47.29347" lon="4.95902">
        <ele>420</ele>
        <time>2012-09-16T08:30:07Z</time>
      </trkpt>
      <trkpt lat="47.29333" lon="4.9588">
        <ele>421</ele>
        <time>2012-09-16T08:30:11Z</time>
      </trkpt>
      <trkpt lat="47.29323" lon="4.95863">
        <ele>424</ele>
        <time>2012-09-16T08:30:15Z</time>
      </trkpt>
      <trkpt lat="47.29315" lon="4.95845">
        <ele>426</ele>
        <time>2012-09-16T08:30:20Z</time>
      </trkpt>
      <trkpt lat="47.29305" lon="4.95827">
        <ele>427</ele>
        <time>2012-09-16T08:30:24Z</time>
      </trkpt>
      <trkpt lat="47.29297" lon="4.95808">
        <ele>428</ele>
        <time>2012-09-16T08:30:28Z</time>
      </trkpt>
      <trkpt lat="47.29288" lon="4.95785">
        <ele>427</ele>
        <time>2012-09-16T08:30:32Z</time>
      </trkpt>
      <trkpt lat="47.29277" lon="4.95768">
        <ele>426</ele>
        <time>2012-09-16T08:30:36Z</time>
      </trkpt>
      <trkpt lat="47.29263" lon="4.95757">
        <ele>424</ele>
        <time>2012-09-16T08:30:43Z</time>
      </trkpt>
      <trkpt lat="47.2926" lon="4.95737">
        <ele>423</ele>
        <time>2012-09-16T08:30:47Z</time>
      </trkpt>
      <trkpt lat="47.29257" lon="4.95713">
        <ele>421</ele>
        <time>2012-09-16T08:30:51Z</time>
      </trkpt>
      <trkpt lat="47.29253" lon="4.95692">
        <ele>419</ele>
        <time>2012-09-16T08:30:57Z</time>
      </trkpt>
      <trkpt lat="47.29247" lon="4.95672">
        <ele>419</ele>
        <time>2012-09-16T08:31:04Z</time>
      </trkpt>
      <trkpt lat="47.29238" lon="4.95653">
        <ele>420</ele>
        <time>2012-09-16T08:31:10Z</time>
      </trkpt>
      <trkpt lat="47.2923" lon="4.95623">
        <ele>420</ele>
        <time>2012-09-16T08:31:19Z</time>
      </trkpt>
      <trkpt lat="47.29223" lon="4.95597">
        <ele>420</ele>
        <time>2012-09-16T08:31:25Z</time>
      </trkpt>
      <trkpt lat="47.29217" lon="4.95568">
        <ele>422</ele>
        <time>2012-09-16T08:31:31Z</time>
      </trkpt>
      <trkpt lat="47.29212" lon="4.95548">
        <ele>424</ele>
        <time>2012-09-16T08:31:35Z</time>
      </trkpt>
      <trkpt lat="47.29207" lon="4.95522">
        <ele>427</ele>
        <time>2012-09-16T08:31:42Z</time>
      </trkpt>
      <trkpt lat="47.29203" lon="4.95502">
        <ele>432</ele>
        <time>2012-09-16T08:31:50Z</time>
      </trkpt>
      <trkpt lat="47.292" lon="4.95477">
        <ele>434</ele>
        <time>2012-09-16T08:31:56Z</time>
      </trkpt>
      <trkpt lat="47.2919" lon="4.95458">
        <ele>437</ele>
        <time>2012-09-16T08:32:03Z</time>
      </trkpt>
      <trkpt lat="47.29177" lon="4.9545">
        <ele>439</ele>
        <time>2012-09-16T08:32:09Z</time>
      </trkpt>
      <trkpt lat="47.29168" lon="4.95432">
        <ele>435</ele>
        <time>2012-09-16T08:32:26Z</time>
      </trkpt>
      <trkpt lat="47.29153" lon="4.9543">
        <ele>432</ele>
        <time>2012-09-16T08:32:34Z</time>
      </trkpt>
      <trkpt lat="47.29138" lon="4.9543">
        <ele>430</ele>
        <time>2012-09-16T08:32:40Z</time>
      </trkpt>
      <trkpt lat="47.29125" lon="4.95427">
        <ele>430</ele>
        <time>2012-09-16T08:32:46Z</time>
      </trkpt>
      <trkpt lat="47.29092" lon="4.95412">
        <ele>430</ele>
        <time>2012-09-16T08:33:03Z</time>
      </trkpt>
      <trkpt lat="47.29078" lon="4.954">
        <ele>430</ele>
        <time>2012-09-16T08:33:11Z</time>
      </trkpt>
      <trkpt lat="47.29063" lon="4.95388">
        <ele>431</ele>
        <time>2012-09-16T08:33:19Z</time>
      </trkpt>
      <trkpt lat="47.2905" lon="4.95373">
        <ele>432</ele>
        <time>2012-09-16T08:33:28Z</time>
      </trkpt>
      <trkpt lat="47.2903" lon="4.95357">
        <ele>434</ele>
        <time>2012-09-16T08:33:38Z</time>
      </trkpt>
      <trkpt lat="47.29017" lon="4.95343">
        <ele>435</ele>
        <time>2012-09-16T08:33:46Z</time>
      </trkpt>
      <trkpt lat="47.29002" lon="4.95345">
        <ele>436</ele>
        <time>2012-09-16T08:33:57Z</time>
      </trkpt>
      <trkpt lat="47.28992" lon="4.95365">
        <ele>436</ele>
        <time>2012-09-16T08:34:03Z</time>
      </trkpt>
      <trkpt lat="47.2898" lon="4.95375">
        <ele>435</ele>
        <time>2012-09-16T08:34:09Z</time>
      </trkpt>
      <trkpt lat="47.28965" lon="4.95367">
        <ele>435</ele>
        <time>2012-09-16T08:34:13Z</time>
      </trkpt>
      <trkpt lat="47.28943" lon="4.95355">
        <ele>436</ele>
        <time>2012-09-16T08:34:22Z</time>
      </trkpt>
      <trkpt lat="47.28932" lon="4.95345">
        <ele>438</ele>
        <time>2012-09-16T08:34:26Z</time>
      </trkpt>
      <trkpt lat="47.28905" lon="4.95328">
        <ele>444</ele>
        <time>2012-09-16T08:34:36Z</time>
      </trkpt>
      <trkpt lat="47.28892" lon="4.95307">
        <ele>447</ele>
        <time>2012-09-16T08:34:42Z</time>
      </trkpt>
      <trkpt lat="47.28882" lon="4.9529">
        <ele>449</ele>
        <time>2012-09-16T08:34:48Z</time>
      </trkpt>
      <trkpt lat="47.28872" lon="4.95275">
        <ele>449</ele>
        <time>2012-09-16T08:34:54Z</time>
      </trkpt>
      <trkpt lat="47.28858" lon="4.95263">
        <ele>449</ele>
        <time>2012-09-16T08:35:00Z</time>
      </trkpt>
      <trkpt lat="47.28843" lon="4.95253">
        <ele>449</ele>
        <time>2012-09-16T08:35:07Z</time>
      </trkpt>
      <trkpt lat="47.28843" lon="4.95228">
        <ele>450</ele>
        <time>2012-09-16T08:35:15Z</time>
      </trkpt>
      <trkpt lat="47.28843" lon="4.95202">
        <ele>450</ele>
        <time>2012-09-16T08:35:21Z</time>
      </trkpt>
      <trkpt lat="47.28842" lon="4.95178">
        <ele>451</ele>
        <time>2012-09-16T08:35:27Z</time>
      </trkpt>
      <trkpt lat="47.28833" lon="4.95158">
        <ele>453</ele>
        <time>2012-09-16T08:35:34Z</time>
      </trkpt>
      <trkpt lat="47.28822" lon="4.95147">
        <ele>453</ele>
        <time>2012-09-16T08:35:40Z</time>
      </trkpt>
      <trkpt lat="47.28812" lon="4.95128">
        <ele>454</ele>
        <time>2012-09-16T08:35:48Z</time>
      </trkpt>
      <trkpt lat="47.28812" lon="4.95107">
        <ele>454</ele>
        <time>2012-09-16T08:35:54Z</time>
      </trkpt>
      <trkpt lat="47.28807" lon="4.95085">
        <ele>453</ele>
        <time>2012-09-16T08:36:00Z</time>
      </trkpt>
      <trkpt lat="47.28797" lon="4.9507">
        <ele>452</ele>
        <time>2012-09-16T08:36:07Z</time>
      </trkpt>
      <trkpt lat="47.28787" lon="4.95052">
        <ele>453</ele>
        <time>2012-09-16T08:36:13Z</time>
      </trkpt>
      <trkpt lat="47.28775" lon="4.95038">
        <ele>453</ele>
        <time>2012-09-16T08:36:19Z</time>
      </trkpt>
      <trkpt lat="47.28738" lon="4.94993">
        <ele>453</ele>
        <time>2012-09-16T08:36:38Z</time>
      </trkpt>
      <trkpt lat="47.28723" lon="4.94973">
        <ele>453</ele>
        <time>2012-09-16T08:36:46Z</time>
      </trkpt>
      <trkpt lat="47.28702" lon="4.94947">
        <ele>453</ele>
        <time>2012-09-16T08:36:56Z</time>
      </trkpt>
      <trkpt lat="47.28685" lon="4.94928">
        <ele>454</ele>
        <time>2012-09-16T08:37:05Z</time>
      </trkpt>
      <trkpt lat="47.28673" lon="4.94917">
        <ele>454</ele>
        <time>2012-09-16T08:37:11Z</time>
      </trkpt>
      <trkpt lat="47.28662" lon="4.94903">
        <ele>456</ele>
        <time>2012-09-16T08:37:17Z</time>
      </trkpt>
      <trkpt lat="47.28652" lon="4.94887">
        <ele>457</ele>
        <time>2012-09-16T08:37:23Z</time>
      </trkpt>
      <trkpt lat="47.2864" lon="4.94873">
        <ele>457</ele>
        <time>2012-09-16T08:37:30Z</time>
      </trkpt>
      <trkpt lat="47.2863" lon="4.9486">
        <ele>458</ele>
        <time>2012-09-16T08:37:36Z</time>
      </trkpt>
      <trkpt lat="47.28617" lon="4.94843">
        <ele>459</ele>
        <time>2012-09-16T08:37:42Z</time>
      </trkpt>
      <trkpt lat="47.286" lon="4.94827">
        <ele>460</ele>
        <time>2012-09-16T08:37:50Z</time>
      </trkpt>
      <trkpt lat="47.28587" lon="4.9481">
        <ele>462</ele>
        <time>2012-09-16T08:37:59Z</time>
      </trkpt>
      <trkpt lat="47.28578" lon="4.94793">
        <ele>463</ele>
        <time>2012-09-16T08:38:05Z</time>
      </trkpt>
      <trkpt lat="47.28568" lon="4.94777">
        <ele>465</ele>
        <time>2012-09-16T08:38:11Z</time>
      </trkpt>
      <trkpt lat="47.28558" lon="4.94762">
        <ele>467</ele>
        <time>2012-09-16T08:38:18Z</time>
      </trkpt>
      <trkpt lat="47.28545" lon="4.94755">
        <ele>469</ele>
        <time>2012-09-16T08:38:24Z</time>
      </trkpt>
      <trkpt lat="47.28533" lon="4.94745">
        <ele>473</ele>
        <time>2012-09-16T08:38:30Z</time>
      </trkpt>
      <trkpt lat="47.28517" lon="4.94735">
        <ele>478</ele>
        <time>2012-09-16T08:38:36Z</time>
      </trkpt>
      <trkpt lat="47.28497" lon="4.9472">
        <ele>485</ele>
        <time>2012-09-16T08:38:45Z</time>
      </trkpt>
      <trkpt lat="47.28483" lon="4.94712">
        <ele>488</ele>
        <time>2012-09-16T08:38:51Z</time>
      </trkpt>
      <trkpt lat="47.28468" lon="4.94705">
        <ele>489</ele>
        <time>2012-09-16T08:38:57Z</time>
      </trkpt>
      <trkpt lat="47.28452" lon="4.94695">
        <ele>490</ele>
        <time>2012-09-16T08:39:03Z</time>
      </trkpt>
      <trkpt lat="47.28438" lon="4.94683">
        <ele>490</ele>
        <time>2012-09-16T08:39:12Z</time>
      </trkpt>
      <trkpt lat="47.2844" lon="4.94662">
        <ele>487</ele>
        <time>2012-09-16T08:39:20Z</time>
      </trkpt>
      <trkpt lat="47.28442" lon="4.94638">
        <ele>487</ele>
        <time>2012-09-16T08:39:26Z</time>
      </trkpt>
      <trkpt lat="47.2845" lon="4.9462">
        <ele>486</ele>
        <time>2012-09-16T08:39:32Z</time>
      </trkpt>
      <trkpt lat="47.28453" lon="4.94595">
        <ele>486</ele>
        <time>2012-09-16T08:39:38Z</time>
      </trkpt>
      <trkpt lat="47.28457" lon="4.94572">
        <ele>485</ele>
        <time>2012-09-16T08:39:45Z</time>
      </trkpt>
      <trkpt lat="47.28462" lon="4.94552">
        <ele>486</ele>
        <time>2012-09-16T08:39:51Z</time>
      </trkpt>
      <trkpt lat="47.28472" lon="4.94528">
        <ele>486</ele>
        <time>2012-09-16T08:39:57Z</time>
      </trkpt>
      <trkpt lat="47.28478" lon="4.94503">
        <ele>485</ele>
        <time>2012-09-16T08:40:06Z</time>
      </trkpt>
      <trkpt lat="47.28485" lon="4.94485">
        <ele>485</ele>
        <time>2012-09-16T08:40:12Z</time>
      </trkpt>
      <trkpt lat="47.2849" lon="4.9446">
        <ele>486</ele>
        <time>2012-09-16T08:40:18Z</time>
      </trkpt>
      <trkpt lat="47.28495" lon="4.9444">
        <ele>488</ele>
        <time>2012-09-16T08:40:25Z</time>
      </trkpt>
      <trkpt lat="47.285" lon="4.9442">
        <ele>489</ele>
        <time>2012-09-16T08:40:31Z</time>
      </trkpt>
      <trkpt lat="47.285" lon="4.94395">
        <ele>490</ele>
        <time>2012-09-16T08:40:37Z</time>
      </trkpt>
      <trkpt lat="47.28513" lon="4.94387">
        <ele>491</ele>
        <time>2012-09-16T08:40:46Z</time>
      </trkpt>
      <trkpt lat="47.28532" lon="4.94378">
        <ele>490</ele>
        <time>2012-09-16T08:40:52Z</time>
      </trkpt>
      <trkpt lat="47.28548" lon="4.94373">
        <ele>489</ele>
        <time>2012-09-16T08:40:56Z</time>
      </trkpt>
      <trkpt lat="47.28567" lon="4.94365">
        <ele>488</ele>
        <time>2012-09-16T08:41:00Z</time>
      </trkpt>
      <trkpt lat="47.2858" lon="4.94358">
        <ele>487</ele>
        <time>2012-09-16T08:41:04Z</time>
      </trkpt>
      <trkpt lat="47.28602" lon="4.94353">
        <ele>486</ele>
        <time>2012-09-16T08:41:11Z</time>
      </trkpt>
      <trkpt lat="47.28615" lon="4.94342">
        <ele>482</ele>
        <time>2012-09-16T08:41:17Z</time>
      </trkpt>
      <trkpt lat="47.28593" lon="4.9435">
        <ele>479</ele>
        <time>2012-09-16T08:41:36Z</time>
      </trkpt>
      <trkpt lat="47.2858" lon="4.94342">
        <ele>481</ele>
        <time>2012-09-16T08:41:44Z</time>
      </trkpt>
      <trkpt lat="47.28573" lon="4.94317">
        <ele>481</ele>
        <time>2012-09-16T08:41:50Z</time>
      </trkpt>
      <trkpt lat="47.28565" lon="4.94297">
        <ele>484</ele>
        <time>2012-09-16T08:41:56Z</time>
      </trkpt>
      <trkpt lat="47.28555" lon="4.94263">
        <ele>488</ele>
        <time>2012-09-16T08:42:07Z</time>
      </trkpt>
      <trkpt lat="47.28563" lon="4.94282">
        <ele>486</ele>
        <time>2012-09-16T08:42:28Z</time>
      </trkpt>
      <trkpt lat="47.2857" lon="4.943">
        <ele>485</ele>
        <time>2012-09-16T08:42:32Z</time>
      </trkpt>
      <trkpt lat="47.2858" lon="4.94332">
        <ele>483</ele>
        <time>2012-09-16T08:42:38Z</time>
      </trkpt>
      <trkpt lat="47.2857" lon="4.94352">
        <ele>483</ele>
        <time>2012-09-16T08:42:44Z</time>
      </trkpt>
      <trkpt lat="47.28555" lon="4.94358">
        <ele>482</ele>
        <time>2012-09-16T08:42:49Z</time>
      </trkpt>
      <trkpt lat="47.28542" lon="4.94362">
        <ele>482</ele>
        <time>2012-09-16T08:42:53Z</time>
      </trkpt>
      <trkpt lat="47.28508" lon="4.94375">
        <ele>482</ele>
        <time>2012-09-16T08:43:03Z</time>
      </trkpt>
      <trkpt lat="47.2849" lon="4.94383">
        <ele>483</ele>
        <time>2012-09-16T08:43:10Z</time>
      </trkpt>
      <trkpt lat="47.28475" lon="4.9439">
        <ele>484</ele>
        <time>2012-09-16T08:43:14Z</time>
      </trkpt>
      <trkpt lat="47.28462" lon="4.94397">
        <ele>484</ele>
        <time>2012-09-16T08:43:18Z</time>
      </trkpt>
      <trkpt lat="47.28448" lon="4.94403">
        <ele>484</ele>
        <time>2012-09-16T08:43:22Z</time>
      </trkpt>
      <trkpt lat="47.28467" lon="4.94395">
        <ele>485</ele>
        <time>2012-09-16T08:43:39Z</time>
      </trkpt>
      <trkpt lat="47.28483" lon="4.94387">
        <ele>486</ele>
        <time>2012-09-16T08:43:43Z</time>
      </trkpt>
      <trkpt lat="47.28498" lon="4.94382">
        <ele>485</ele>
        <time>2012-09-16T08:43:47Z</time>
      </trkpt>
      <trkpt lat="47.28505" lon="4.94407">
        <ele>485</ele>
        <time>2012-09-16T08:43:54Z</time>
      </trkpt>
      <trkpt lat="47.28498" lon="4.94428">
        <ele>485</ele>
        <time>2012-09-16T08:43:58Z</time>
      </trkpt>
      <trkpt lat="47.28492" lon="4.94455">
        <ele>485</ele>
        <time>2012-09-16T08:44:02Z</time>
      </trkpt>
      <trkpt lat="47.28483" lon="4.94483">
        <ele>484</ele>
        <time>2012-09-16T08:44:06Z</time>
      </trkpt>
      <trkpt lat="47.2847" lon="4.94523">
        <ele>482</ele>
        <time>2012-09-16T08:44:13Z</time>
      </trkpt>
      <trkpt lat="47.28462" lon="4.94545">
        <ele>480</ele>
        <time>2012-09-16T08:44:17Z</time>
      </trkpt>
      <trkpt lat="47.28455" lon="4.94587">
        <ele>477</ele>
        <time>2012-09-16T08:44:23Z</time>
      </trkpt>
      <trkpt lat="47.28452" lon="4.9461">
        <ele>476</ele>
        <time>2012-09-16T08:44:27Z</time>
      </trkpt>
      <trkpt lat="47.28442" lon="4.9463">
        <ele>475</ele>
        <time>2012-09-16T08:44:32Z</time>
      </trkpt>
      <trkpt lat="47.28432" lon="4.94655">
        <ele>473</ele>
        <time>2012-09-16T08:44:38Z</time>
      </trkpt>
      <trkpt lat="47.28423" lon="4.94678">
        <ele>476</ele>
        <time>2012-09-16T08:44:44Z</time>
      </trkpt>
      <trkpt lat="47.28408" lon="4.94685">
        <ele>479</ele>
        <time>2012-09-16T08:44:51Z</time>
      </trkpt>
      <trkpt lat="47.28393" lon="4.94698">
        <ele>478</ele>
        <time>2012-09-16T08:44:59Z</time>
      </trkpt>
      <trkpt lat="47.28363" lon="4.94727">
        <ele>479</ele>
        <time>2012-09-16T08:45:07Z</time>
      </trkpt>
      <trkpt lat="47.28343" lon="4.94738">
        <ele>481</ele>
        <time>2012-09-16T08:45:12Z</time>
      </trkpt>
      <trkpt lat="47.28323" lon="4.94752">
        <ele>480</ele>
        <time>2012-09-16T08:45:16Z</time>
      </trkpt>
      <trkpt lat="47.2829" lon="4.94765">
        <ele>479</ele>
        <time>2012-09-16T08:45:24Z</time>
      </trkpt>
      <trkpt lat="47.28275" lon="4.94762">
        <ele>476</ele>
        <time>2012-09-16T08:45:30Z</time>
      </trkpt>
      <trkpt lat="47.28267" lon="4.94737">
        <ele>474</ele>
        <time>2012-09-16T08:45:37Z</time>
      </trkpt>
      <trkpt lat="47.28258" lon="4.9472">
        <ele>473</ele>
        <time>2012-09-16T08:45:41Z</time>
      </trkpt>
      <trkpt lat="47.28252" lon="4.94698">
        <ele>475</ele>
        <time>2012-09-16T08:45:45Z</time>
      </trkpt>
      <trkpt lat="47.28243" lon="4.94677">
        <ele>475</ele>
        <time>2012-09-16T08:45:49Z</time>
      </trkpt>
      <trkpt lat="47.28235" lon="4.94645">
        <ele>475</ele>
        <time>2012-09-16T08:45:56Z</time>
      </trkpt>
      <trkpt lat="47.28232" lon="4.94623">
        <ele>474</ele>
        <time>2012-09-16T08:46:00Z</time>
      </trkpt>
      <trkpt lat="47.28228" lon="4.94598">
        <ele>472</ele>
        <time>2012-09-16T08:46:04Z</time>
      </trkpt>
      <trkpt lat="47.28222" lon="4.94578">
        <ele>468</ele>
        <time>2012-09-16T08:46:10Z</time>
      </trkpt>
      <trkpt lat="47.28215" lon="4.9456">
        <ele>467</ele>
        <time>2012-09-16T08:46:19Z</time>
      </trkpt>
      <trkpt lat="47.28207" lon="4.94533">
        <ele>467</ele>
        <time>2012-09-16T08:46:36Z</time>
      </trkpt>
      <trkpt lat="47.28202" lon="4.94513">
        <ele>468</ele>
        <time>2012-09-16T08:46:42Z</time>
      </trkpt>
      <trkpt lat="47.28195" lon="4.9449">
        <ele>472</ele>
        <time>2012-09-16T08:46:48Z</time>
      </trkpt>
      <trkpt lat="47.28187" lon="4.94467">
        <ele>473</ele>
        <time>2012-09-16T08:46:57Z</time>
      </trkpt>
      <trkpt lat="47.28182" lon="4.94447">
        <ele>476</ele>
        <time>2012-09-16T08:47:05Z</time>
      </trkpt>
      <trkpt lat="47.28177" lon="4.94427">
        <ele>480</ele>
        <time>2012-09-16T08:47:11Z</time>
      </trkpt>
      <trkpt lat="47.28168" lon="4.94402">
        <ele>481</ele>
        <time>2012-09-16T08:47:20Z</time>
      </trkpt>
      <trkpt lat="47.28162" lon="4.94375">
        <ele>482</ele>
        <time>2012-09-16T08:47:28Z</time>
      </trkpt>
      <trkpt lat="47.2815" lon="4.94355">
        <ele>482</ele>
        <time>2012-09-16T08:47:35Z</time>
      </trkpt>
      <trkpt lat="47.28142" lon="4.94338">
        <ele>481</ele>
        <time>2012-09-16T08:47:39Z</time>
      </trkpt>
      <trkpt lat="47.28133" lon="4.94317">
        <ele>479</ele>
        <time>2012-09-16T08:47:47Z</time>
      </trkpt>
      <trkpt lat="47.28113" lon="4.94305">
        <ele>480</ele>
        <time>2012-09-16T08:47:51Z</time>
      </trkpt>
      <trkpt lat="47.28093" lon="4.9429">
        <ele>479</ele>
        <time>2012-09-16T08:47:56Z</time>
      </trkpt>
      <trkpt lat="47.28082" lon="4.94278">
        <ele>478</ele>
        <time>2012-09-16T08:47:58Z</time>
      </trkpt>
      <trkpt lat="47.28068" lon="4.94268">
        <ele>477</ele>
        <time>2012-09-16T08:48:00Z</time>
      </trkpt>
      <trkpt lat="47.2805" lon="4.94247">
        <ele>474</ele>
        <time>2012-09-16T08:48:04Z</time>
      </trkpt>
      <trkpt lat="47.28042" lon="4.94218">
        <ele>474</ele>
        <time>2012-09-16T08:48:10Z</time>
      </trkpt>
      <trkpt lat="47.28037" lon="4.94195">
        <ele>475</ele>
        <time>2012-09-16T08:48:17Z</time>
      </trkpt>
      <trkpt lat="47.28028" lon="4.94173">
        <ele>477</ele>
        <time>2012-09-16T08:48:23Z</time>
      </trkpt>
      <trkpt lat="47.28018" lon="4.9415">
        <ele>476</ele>
        <time>2012-09-16T08:48:29Z</time>
      </trkpt>
      <trkpt lat="47.28007" lon="4.94133">
        <ele>476</ele>
        <time>2012-09-16T08:48:36Z</time>
      </trkpt>
      <trkpt lat="47.28" lon="4.94112">
        <ele>479</ele>
        <time>2012-09-16T08:48:42Z</time>
      </trkpt>
      <trkpt lat="47.27992" lon="4.94085">
        <ele>485</ele>
        <time>2012-09-16T08:48:48Z</time>
      </trkpt>
      <trkpt lat="47.27983" lon="4.94068">
        <ele>487</ele>
        <time>2012-09-16T08:48:54Z</time>
      </trkpt>
      <trkpt lat="47.27973" lon="4.94052">
        <ele>483</ele>
        <time>2012-09-16T08:49:01Z</time>
      </trkpt>
      <trkpt lat="47.27965" lon="4.94035">
        <ele>482</ele>
        <time>2012-09-16T08:49:07Z</time>
      </trkpt>
      <trkpt lat="47.2795" lon="4.9401">
        <ele>478</ele>
        <time>2012-09-16T08:49:17Z</time>
      </trkpt>
      <trkpt lat="47.27942" lon="4.9399">
        <ele>481</ele>
        <time>2012-09-16T08:49:26Z</time>
      </trkpt>
      <trkpt lat="47.2793" lon="4.93972">
        <ele>482</ele>
        <time>2012-09-16T08:49:32Z</time>
      </trkpt>
      <trkpt lat="47.27918" lon="4.93953">
        <ele>482</ele>
        <time>2012-09-16T08:49:41Z</time>
      </trkpt>
      <trkpt lat="47.27905" lon="4.93933">
        <ele>483</ele>
        <time>2012-09-16T08:49:51Z</time>
      </trkpt>
      <trkpt lat="47.27893" lon="4.93917">
        <ele>486</ele>
        <time>2012-09-16T08:50:04Z</time>
      </trkpt>
      <trkpt lat="47.2788" lon="4.93898">
        <ele>486</ele>
        <time>2012-09-16T08:50:14Z</time>
      </trkpt>
      <trkpt lat="47.27867" lon="4.93877">
        <ele>488</ele>
        <time>2012-09-16T08:50:27Z</time>
      </trkpt>
      <trkpt lat="47.27858" lon="4.93858">
        <ele>493</ele>
        <time>2012-09-16T08:50:37Z</time>
      </trkpt>
      <trkpt lat="47.27842" lon="4.93857">
        <ele>490</ele>
        <time>2012-09-16T08:50:48Z</time>
      </trkpt>
      <trkpt lat="47.27832" lon="4.93842">
        <ele>488</ele>
        <time>2012-09-16T08:50:56Z</time>
      </trkpt>
      <trkpt lat="47.27823" lon="4.93823">
        <ele>487</ele>
        <time>2012-09-16T08:51:05Z</time>
      </trkpt>
      <trkpt lat="47.27812" lon="4.93812">
        <ele>484</ele>
        <time>2012-09-16T08:51:23Z</time>
      </trkpt>
      <trkpt lat="47.27798" lon="4.93802">
        <ele>490</ele>
        <time>2012-09-16T08:53:15Z</time>
      </trkpt>
      <trkpt lat="47.27783" lon="4.93797">
        <ele>491</ele>
        <time>2012-09-16T08:53:25Z</time>
      </trkpt>
      <trkpt lat="47.27772" lon="4.93785">
        <ele>495</ele>
        <time>2012-09-16T08:53:35Z</time>
      </trkpt>
      <trkpt lat="47.27758" lon="4.93777">
        <ele>498</ele>
        <time>2012-09-16T08:53:45Z</time>
      </trkpt>
      <trkpt lat="47.27743" lon="4.93768">
        <ele>499</ele>
        <time>2012-09-16T08:53:55Z</time>
      </trkpt>
      <trkpt lat="47.27718" lon="4.93753">
        <ele>503</ele>
        <time>2012-09-16T08:54:14Z</time>
      </trkpt>
      <trkpt lat="47.27703" lon="4.93752">
        <ele>502</ele>
        <time>2012-09-16T08:54:22Z</time>
      </trkpt>
      <trkpt lat="47.2768" lon="4.93748">
        <ele>500</ele>
        <time>2012-09-16T08:54:41Z</time>
      </trkpt>
      <trkpt lat="47.27665" lon="4.9375">
        <ele>502</ele>
        <time>2012-09-16T08:54:51Z</time>
      </trkpt>
      <trkpt lat="47.2765" lon="4.93748">
        <ele>505</ele>
        <time>2012-09-16T08:55:03Z</time>
      </trkpt>
      <trkpt lat="47.27637" lon="4.93743">
        <ele>508</ele>
        <time>2012-09-16T08:55:12Z</time>
      </trkpt>
      <trkpt lat="47.27622" lon="4.9374">
        <ele>506</ele>
        <time>2012-09-16T08:55:24Z</time>
      </trkpt>
      <trkpt lat="47.27607" lon="4.9373">
        <ele>509</ele>
        <time>2012-09-16T08:55:34Z</time>
      </trkpt>
      <trkpt lat="47.27593" lon="4.93727">
        <ele>510</ele>
        <time>2012-09-16T08:55:45Z</time>
      </trkpt>
      <trkpt lat="47.27578" lon="4.93725">
        <ele>508</ele>
        <time>2012-09-16T08:55:53Z</time>
      </trkpt>
      <trkpt lat="47.27563" lon="4.93727">
        <ele>506</ele>
        <time>2012-09-16T08:56:02Z</time>
      </trkpt>
      <trkpt lat="47.27543" lon="4.93727">
        <ele>509</ele>
        <time>2012-09-16T08:56:14Z</time>
      </trkpt>
      <trkpt lat="47.27528" lon="4.93722">
        <ele>512</ele>
        <time>2012-09-16T08:56:22Z</time>
      </trkpt>
      <trkpt lat="47.27513" lon="4.93723">
        <ele>510</ele>
        <time>2012-09-16T08:56:41Z</time>
      </trkpt>
      <trkpt lat="47.275" lon="4.93727">
        <ele>511</ele>
        <time>2012-09-16T08:56:49Z</time>
      </trkpt>
      <trkpt lat="47.27483" lon="4.93722">
        <ele>514</ele>
        <time>2012-09-16T08:56:59Z</time>
      </trkpt>
      <trkpt lat="47.27468" lon="4.93708">
        <ele>516</ele>
        <time>2012-09-16T08:57:09Z</time>
      </trkpt>
      <trkpt lat="47.27452" lon="4.93708">
        <ele>515</ele>
        <time>2012-09-16T08:57:17Z</time>
      </trkpt>
      <trkpt lat="47.27435" lon="4.93705">
        <ele>515</ele>
        <time>2012-09-16T08:57:26Z</time>
      </trkpt>
      <trkpt lat="47.27397" lon="4.93698">
        <ele>517</ele>
        <time>2012-09-16T08:57:44Z</time>
      </trkpt>
      <trkpt lat="47.27382" lon="4.93693">
        <ele>518</ele>
        <time>2012-09-16T08:57:52Z</time>
      </trkpt>
      <trkpt lat="47.27365" lon="4.9369">
        <ele>518</ele>
        <time>2012-09-16T08:58:00Z</time>
      </trkpt>
      <trkpt lat="47.27347" lon="4.93687">
        <ele>518</ele>
        <time>2012-09-16T08:58:09Z</time>
      </trkpt>
      <trkpt lat="47.2733" lon="4.93683">
        <ele>519</ele>
        <time>2012-09-16T08:58:17Z</time>
      </trkpt>
      <trkpt lat="47.27307" lon="4.9368">
        <ele>519</ele>
        <time>2012-09-16T08:58:25Z</time>
      </trkpt>
      <trkpt lat="47.27258" lon="4.93672">
        <ele>519</ele>
        <time>2012-09-16T08:58:42Z</time>
      </trkpt>
      <trkpt lat="47.2724" lon="4.93687">
        <ele>519</ele>
        <time>2012-09-16T08:58:48Z</time>
      </trkpt>
      <trkpt lat="47.27232" lon="4.93707">
        <ele>519</ele>
        <time>2012-09-16T08:58:52Z</time>
      </trkpt>
      <trkpt lat="47.27222" lon="4.93727">
        <ele>519</ele>
        <time>2012-09-16T08:58:56Z</time>
      </trkpt>
      <trkpt lat="47.27213" lon="4.93748">
        <ele>519</ele>
        <time>2012-09-16T08:59:00Z</time>
      </trkpt>
      <trkpt lat="47.27203" lon="4.93768">
        <ele>519</ele>
        <time>2012-09-16T08:59:05Z</time>
      </trkpt>
      <trkpt lat="47.27193" lon="4.93792">
        <ele>519</ele>
        <time>2012-09-16T08:59:09Z</time>
      </trkpt>
      <trkpt lat="47.27182" lon="4.93817">
        <ele>518</ele>
        <time>2012-09-16T08:59:13Z</time>
      </trkpt>
      <trkpt lat="47.27165" lon="4.93843">
        <ele>517</ele>
        <time>2012-09-16T08:59:17Z</time>
      </trkpt>
      <trkpt lat="47.27145" lon="4.93838">
        <ele>517</ele>
        <time>2012-09-16T08:59:21Z</time>
      </trkpt>
      <trkpt lat="47.27132" lon="4.93828">
        <ele>517</ele>
        <time>2012-09-16T08:59:25Z</time>
      </trkpt>
      <trkpt lat="47.27107" lon="4.93817">
        <ele>517</ele>
        <time>2012-09-16T08:59:50Z</time>
      </trkpt>
      <trkpt lat="47.26972" lon="4.93755">
        <ele>521</ele>
        <time>2012-09-16T09:00:26Z</time>
      </trkpt>
      <trkpt lat="47.26937" lon="4.93738">
        <ele>521</ele>
        <time>2012-09-16T09:00:34Z</time>
      </trkpt>
      <trkpt lat="47.26913" lon="4.9373">
        <ele>521</ele>
        <time>2012-09-16T09:00:38Z</time>
      </trkpt>
      <trkpt lat="47.26893" lon="4.93728">
        <ele>521</ele>
        <time>2012-09-16T09:00:42Z</time>
      </trkpt>
      <trkpt lat="47.26873" lon="4.93723">
        <ele>521</ele>
        <time>2012-09-16T09:00:47Z</time>
      </trkpt>
      <trkpt lat="47.26855" lon="4.93715">
        <ele>521</ele>
        <time>2012-09-16T09:00:51Z</time>
      </trkpt>
      <trkpt lat="47.26837" lon="4.937">
        <ele>521</ele>
        <time>2012-09-16T09:00:55Z</time>
      </trkpt>
      <trkpt lat="47.26825" lon="4.93688">
        <ele>521</ele>
        <time>2012-09-16T09:00:57Z</time>
      </trkpt>
      <trkpt lat="47.26808" lon="4.9367">
        <ele>521</ele>
        <time>2012-09-16T09:01:01Z</time>
      </trkpt>
      <trkpt lat="47.26765" lon="4.93627">
        <ele>521</ele>
        <time>2012-09-16T09:01:12Z</time>
      </trkpt>
      <trkpt lat="47.2673" lon="4.9359">
        <ele>521</ele>
        <time>2012-09-16T09:01:20Z</time>
      </trkpt>
      <trkpt lat="47.26697" lon="4.93553">
        <ele>523</ele>
        <time>2012-09-16T09:01:26Z</time>
      </trkpt>
      <trkpt lat="47.26682" lon="4.9353">
        <ele>525</ele>
        <time>2012-09-16T09:01:30Z</time>
      </trkpt>
      <trkpt lat="47.26663" lon="4.93508">
        <ele>528</ele>
        <time>2012-09-16T09:01:35Z</time>
      </trkpt>
      <trkpt lat="47.26627" lon="4.9347">
        <ele>529</ele>
        <time>2012-09-16T09:01:43Z</time>
      </trkpt>
      <trkpt lat="47.26595" lon="4.93438">
        <ele>533</ele>
        <time>2012-09-16T09:01:49Z</time>
      </trkpt>
      <trkpt lat="47.26582" lon="4.93423">
        <ele>536</ele>
        <time>2012-09-16T09:01:53Z</time>
      </trkpt>
      <trkpt lat="47.2657" lon="4.9341">
        <ele>539</ele>
        <time>2012-09-16T09:01:57Z</time>
      </trkpt>
      <trkpt lat="47.26557" lon="4.93397">
        <ele>541</ele>
        <time>2012-09-16T09:02:02Z</time>
      </trkpt>
      <trkpt lat="47.26537" lon="4.93372">
        <ele>545</ele>
        <time>2012-09-16T09:02:10Z</time>
      </trkpt>
      <trkpt lat="47.26515" lon="4.93343">
        <ele>547</ele>
        <time>2012-09-16T09:02:18Z</time>
      </trkpt>
      <trkpt lat="47.26505" lon="4.9333">
        <ele>548</ele>
        <time>2012-09-16T09:02:23Z</time>
      </trkpt>
      <trkpt lat="47.26492" lon="4.93318">
        <ele>545</ele>
        <time>2012-09-16T09:02:27Z</time>
      </trkpt>
      <trkpt lat="47.2648" lon="4.93307">
        <ele>544</ele>
        <time>2012-09-16T09:02:31Z</time>
      </trkpt>
      <trkpt lat="47.26467" lon="4.93297">
        <ele>543</ele>
        <time>2012-09-16T09:02:35Z</time>
      </trkpt>
      <trkpt lat="47.26453" lon="4.9328">
        <ele>542</ele>
        <time>2012-09-16T09:02:39Z</time>
      </trkpt>
      <trkpt lat="47.26438" lon="4.93267">
        <ele>540</ele>
        <time>2012-09-16T09:02:43Z</time>
      </trkpt>
      <trkpt lat="47.26427" lon="4.93252">
        <ele>540</ele>
        <time>2012-09-16T09:02:47Z</time>
      </trkpt>
      <trkpt lat="47.26415" lon="4.93235">
        <ele>537</ele>
        <time>2012-09-16T09:02:52Z</time>
      </trkpt>
      <trkpt lat="47.26383" lon="4.93193">
        <ele>533</ele>
        <time>2012-09-16T09:03:02Z</time>
      </trkpt>
      <trkpt lat="47.26372" lon="4.93178">
        <ele>533</ele>
        <time>2012-09-16T09:03:06Z</time>
      </trkpt>
      <trkpt lat="47.26362" lon="4.93163">
        <ele>532</ele>
        <time>2012-09-16T09:03:11Z</time>
      </trkpt>
      <trkpt lat="47.2635" lon="4.93153">
        <ele>532</ele>
        <time>2012-09-16T09:03:15Z</time>
      </trkpt>
      <trkpt lat="47.26337" lon="4.93148">
        <ele>531</ele>
        <time>2012-09-16T09:03:19Z</time>
      </trkpt>
      <trkpt lat="47.26317" lon="4.93153">
        <ele>530</ele>
        <time>2012-09-16T09:03:25Z</time>
      </trkpt>
      <trkpt lat="47.26302" lon="4.93157">
        <ele>530</ele>
        <time>2012-09-16T09:03:29Z</time>
      </trkpt>
      <trkpt lat="47.26282" lon="4.93158">
        <ele>530</ele>
        <time>2012-09-16T09:03:36Z</time>
      </trkpt>
      <trkpt lat="47.26268" lon="4.93153">
        <ele>530</ele>
        <time>2012-09-16T09:03:40Z</time>
      </trkpt>
      <trkpt lat="47.26247" lon="4.93148">
        <ele>530</ele>
        <time>2012-09-16T09:03:46Z</time>
      </trkpt>
      <trkpt lat="47.2622" lon="4.9314">
        <ele>530</ele>
        <time>2012-09-16T09:03:52Z</time>
      </trkpt>
      <trkpt lat="47.26198" lon="4.93135">
        <ele>530</ele>
        <time>2012-09-16T09:03:58Z</time>
      </trkpt>
      <trkpt lat="47.2617" lon="4.93127">
        <ele>530</ele>
        <time>2012-09-16T09:04:07Z</time>
      </trkpt>
      <trkpt lat="47.26127" lon="4.93113">
        <ele>532</ele>
        <time>2012-09-16T09:04:19Z</time>
      </trkpt>
      <trkpt lat="47.26113" lon="4.93108">
        <ele>533</ele>
        <time>2012-09-16T09:04:23Z</time>
      </trkpt>
      <trkpt lat="47.26097" lon="4.931">
        <ele>534</ele>
        <time>2012-09-16T09:04:30Z</time>
      </trkpt>
      <trkpt lat="47.26085" lon="4.9309">
        <ele>537</ele>
        <time>2012-09-16T09:04:34Z</time>
      </trkpt>
      <trkpt lat="47.26068" lon="4.93075">
        <ele>543</ele>
        <time>2012-09-16T09:04:40Z</time>
      </trkpt>
      <trkpt lat="47.2603" lon="4.9304">
        <ele>553</ele>
        <time>2012-09-16T09:04:53Z</time>
      </trkpt>
      <trkpt lat="47.2601" lon="4.93025">
        <ele>555</ele>
        <time>2012-09-16T09:04:59Z</time>
      </trkpt>
      <trkpt lat="47.25967" lon="4.92992">
        <ele>556</ele>
        <time>2012-09-16T09:05:09Z</time>
      </trkpt>
      <trkpt lat="47.2595" lon="4.92977">
        <ele>556</ele>
        <time>2012-09-16T09:05:14Z</time>
      </trkpt>
      <trkpt lat="47.25923" lon="4.92953">
        <ele>554</ele>
        <time>2012-09-16T09:05:20Z</time>
      </trkpt>
      <trkpt lat="47.25908" lon="4.92938">
        <ele>552</ele>
        <time>2012-09-16T09:05:24Z</time>
      </trkpt>
      <trkpt lat="47.25903" lon="4.92913">
        <ele>549</ele>
        <time>2012-09-16T09:05:28Z</time>
      </trkpt>
      <trkpt lat="47.25907" lon="4.92882">
        <ele>545</ele>
        <time>2012-09-16T09:05:32Z</time>
      </trkpt>
      <trkpt lat="47.25907" lon="4.92858">
        <ele>542</ele>
        <time>2012-09-16T09:05:36Z</time>
      </trkpt>
      <trkpt lat="47.25903" lon="4.92835">
        <ele>541</ele>
        <time>2012-09-16T09:05:41Z</time>
      </trkpt>
      <trkpt lat="47.25897" lon="4.92808">
        <ele>540</ele>
        <time>2012-09-16T09:05:45Z</time>
      </trkpt>
      <trkpt lat="47.2589" lon="4.92775">
        <ele>539</ele>
        <time>2012-09-16T09:05:49Z</time>
      </trkpt>
      <trkpt lat="47.25883" lon="4.92738">
        <ele>539</ele>
        <time>2012-09-16T09:05:53Z</time>
      </trkpt>
      <trkpt lat="47.25878" lon="4.92685">
        <ele>541</ele>
        <time>2012-09-16T09:05:59Z</time>
      </trkpt>
      <trkpt lat="47.25878" lon="4.92657">
        <ele>540</ele>
        <time>2012-09-16T09:06:03Z</time>
      </trkpt>
      <trkpt lat="47.2588" lon="4.92632">
        <ele>539</ele>
        <time>2012-09-16T09:06:08Z</time>
      </trkpt>
      <trkpt lat="47.25877" lon="4.92607">
        <ele>538</ele>
        <time>2012-09-16T09:06:12Z</time>
      </trkpt>
      <trkpt lat="47.25867" lon="4.9259">
        <ele>538</ele>
        <time>2012-09-16T09:06:16Z</time>
      </trkpt>
      <trkpt lat="47.25865" lon="4.92563">
        <ele>536</ele>
        <time>2012-09-16T09:06:20Z</time>
      </trkpt>
      <trkpt lat="47.25867" lon="4.92537">
        <ele>535</ele>
        <time>2012-09-16T09:06:24Z</time>
      </trkpt>
      <trkpt lat="47.25867" lon="4.92508">
        <ele>534</ele>
        <time>2012-09-16T09:06:28Z</time>
      </trkpt>
      <trkpt lat="47.25868" lon="4.92475">
        <ele>532</ele>
        <time>2012-09-16T09:06:33Z</time>
      </trkpt>
      <trkpt lat="47.25873" lon="4.92445">
        <ele>530</ele>
        <time>2012-09-16T09:06:37Z</time>
      </trkpt>
      <trkpt lat="47.25878" lon="4.92415">
        <ele>526</ele>
        <time>2012-09-16T09:06:41Z</time>
      </trkpt>
      <trkpt lat="47.2588" lon="4.92388">
        <ele>525</ele>
        <time>2012-09-16T09:06:45Z</time>
      </trkpt>
      <trkpt lat="47.25878" lon="4.92367">
        <ele>523</ele>
        <time>2012-09-16T09:06:50Z</time>
      </trkpt>
      <trkpt lat="47.25878" lon="4.92327">
        <ele>526</ele>
        <time>2012-09-16T09:06:56Z</time>
      </trkpt>
      <trkpt lat="47.25877" lon="4.92307">
        <ele>526</ele>
        <time>2012-09-16T09:07:00Z</time>
      </trkpt>
      <trkpt lat="47.25882" lon="4.92267">
        <ele>530</ele>
        <time>2012-09-16T09:07:08Z</time>
      </trkpt>
      <trkpt lat="47.25885" lon="4.92238">
        <ele>532</ele>
        <time>2012-09-16T09:07:14Z</time>
      </trkpt>
      <trkpt lat="47.25887" lon="4.92217">
        <ele>531</ele>
        <time>2012-09-16T09:07:18Z</time>
      </trkpt>
      <trkpt lat="47.25892" lon="4.92192">
        <ele>530</ele>
        <time>2012-09-16T09:07:23Z</time>
      </trkpt>
      <trkpt lat="47.25895" lon="4.92167">
        <ele>526</ele>
        <time>2012-09-16T09:07:27Z</time>
      </trkpt>
      <trkpt lat="47.25897" lon="4.9214">
        <ele>525</ele>
        <time>2012-09-16T09:07:31Z</time>
      </trkpt>
      <trkpt lat="47.259" lon="4.92102">
        <ele>524</ele>
        <time>2012-09-16T09:07:37Z</time>
      </trkpt>
      <trkpt lat="47.25888" lon="4.9209">
        <ele>523</ele>
        <time>2012-09-16T09:07:43Z</time>
      </trkpt>
      <trkpt lat="47.25877" lon="4.92078">
        <ele>524</ele>
        <time>2012-09-16T09:07:48Z</time>
      </trkpt>
      <trkpt lat="47.25862" lon="4.92068">
        <ele>526</ele>
        <time>2012-09-16T09:07:52Z</time>
      </trkpt>
      <trkpt lat="47.25845" lon="4.92057">
        <ele>527</ele>
        <time>2012-09-16T09:07:56Z</time>
      </trkpt>
      <trkpt lat="47.25832" lon="4.92045">
        <ele>529</ele>
        <time>2012-09-16T09:08:00Z</time>
      </trkpt>
      <trkpt lat="47.25793" lon="4.92013">
        <ele>528</ele>
        <time>2012-09-16T09:08:08Z</time>
      </trkpt>
      <trkpt lat="47.2578" lon="4.91998">
        <ele>528</ele>
        <time>2012-09-16T09:08:12Z</time>
      </trkpt>
      <trkpt lat="47.25748" lon="4.91963">
        <ele>530</ele>
        <time>2012-09-16T09:08:21Z</time>
      </trkpt>
      <trkpt lat="47.2573" lon="4.91952">
        <ele>531</ele>
        <time>2012-09-16T09:08:25Z</time>
      </trkpt>
      <trkpt lat="47.25708" lon="4.9194">
        <ele>531</ele>
        <time>2012-09-16T09:08:29Z</time>
      </trkpt>
      <trkpt lat="47.25687" lon="4.9193">
        <ele>532</ele>
        <time>2012-09-16T09:08:33Z</time>
      </trkpt>
      <trkpt lat="47.25667" lon="4.9192">
        <ele>532</ele>
        <time>2012-09-16T09:08:37Z</time>
      </trkpt>
      <trkpt lat="47.25653" lon="4.91908">
        <ele>532</ele>
        <time>2012-09-16T09:08:41Z</time>
      </trkpt>
      <trkpt lat="47.25652" lon="4.91888">
        <ele>531</ele>
        <time>2012-09-16T09:08:46Z</time>
      </trkpt>
      <trkpt lat="47.25667" lon="4.91858">
        <ele>531</ele>
        <time>2012-09-16T09:08:50Z</time>
      </trkpt>
      <trkpt lat="47.25692" lon="4.91815">
        <ele>530</ele>
        <time>2012-09-16T09:08:56Z</time>
      </trkpt>
      <trkpt lat="47.25708" lon="4.91783">
        <ele>529</ele>
        <time>2012-09-16T09:09:00Z</time>
      </trkpt>
      <trkpt lat="47.25718" lon="4.91762">
        <ele>526</ele>
        <time>2012-09-16T09:09:02Z</time>
      </trkpt>
      <trkpt lat="47.2575" lon="4.91692">
        <ele>518</ele>
        <time>2012-09-16T09:09:10Z</time>
      </trkpt>
      <trkpt lat="47.25762" lon="4.9166">
        <ele>513</ele>
        <time>2012-09-16T09:09:15Z</time>
      </trkpt>
      <trkpt lat="47.2578" lon="4.91632">
        <ele>508</ele>
        <time>2012-09-16T09:09:19Z</time>
      </trkpt>
      <trkpt lat="47.25793" lon="4.91595">
        <ele>501</ele>
        <time>2012-09-16T09:09:25Z</time>
      </trkpt>
      <trkpt lat="47.25795" lon="4.91568">
        <ele>496</ele>
        <time>2012-09-16T09:09:29Z</time>
      </trkpt>
      <trkpt lat="47.25803" lon="4.91547">
        <ele>494</ele>
        <time>2012-09-16T09:09:33Z</time>
      </trkpt>
      <trkpt lat="47.25817" lon="4.91527">
        <ele>491</ele>
        <time>2012-09-16T09:09:38Z</time>
      </trkpt>
      <trkpt lat="47.25842" lon="4.91483">
        <ele>492</ele>
        <time>2012-09-16T09:09:46Z</time>
      </trkpt>
      <trkpt lat="47.2585" lon="4.9146">
        <ele>494</ele>
        <time>2012-09-16T09:09:50Z</time>
      </trkpt>
      <trkpt lat="47.25857" lon="4.91442">
        <ele>496</ele>
        <time>2012-09-16T09:09:58Z</time>
      </trkpt>
      <trkpt lat="47.2586" lon="4.91422">
        <ele>490</ele>
        <time>2012-09-16T09:10:36Z</time>
      </trkpt>
      <trkpt lat="47.25847" lon="4.91405">
        <ele>492</ele>
        <time>2012-09-16T09:10:46Z</time>
      </trkpt>
      <trkpt lat="47.25833" lon="4.91397">
        <ele>492</ele>
        <time>2012-09-16T09:10:52Z</time>
      </trkpt>
      <trkpt lat="47.25823" lon="4.91382">
        <ele>495</ele>
        <time>2012-09-16T09:10:59Z</time>
      </trkpt>
      <trkpt lat="47.25825" lon="4.91362">
        <ele>495</ele>
        <time>2012-09-16T09:11:05Z</time>
      </trkpt>
      <trkpt lat="47.2584" lon="4.91343">
        <ele>495</ele>
        <time>2012-09-16T09:11:09Z</time>
      </trkpt>
      <trkpt lat="47.2586" lon="4.91318">
        <ele>494</ele>
        <time>2012-09-16T09:11:13Z</time>
      </trkpt>
      <trkpt lat="47.2588" lon="4.91298">
        <ele>494</ele>
        <time>2012-09-16T09:11:17Z</time>
      </trkpt>
      <trkpt lat="47.25902" lon="4.9128">
        <ele>493</ele>
        <time>2012-09-16T09:11:22Z</time>
      </trkpt>
      <trkpt lat="47.25915" lon="4.91267">
        <ele>492</ele>
        <time>2012-09-16T09:11:26Z</time>
      </trkpt>
      <trkpt lat="47.25927" lon="4.9128">
        <ele>483</ele>
        <time>2012-09-16T09:11:36Z</time>
      </trkpt>
      <trkpt lat="47.25948" lon="4.91278">
        <ele>484</ele>
        <time>2012-09-16T09:11:42Z</time>
      </trkpt>
      <trkpt lat="47.2597" lon="4.91275">
        <ele>486</ele>
        <time>2012-09-16T09:11:47Z</time>
      </trkpt>
      <trkpt lat="47.25988" lon="4.91272">
        <ele>483</ele>
        <time>2012-09-16T09:11:53Z</time>
      </trkpt>
      <trkpt lat="47.26003" lon="4.91267">
        <ele>481</ele>
        <time>2012-09-16T09:11:57Z</time>
      </trkpt>
      <trkpt lat="47.26017" lon="4.9125">
        <ele>482</ele>
        <time>2012-09-16T09:11:59Z</time>
      </trkpt>
      <trkpt lat="47.26028" lon="4.91238">
        <ele>484</ele>
        <time>2012-09-16T09:12:01Z</time>
      </trkpt>
      <trkpt lat="47.26045" lon="4.91218">
        <ele>489</ele>
        <time>2012-09-16T09:12:05Z</time>
      </trkpt>
      <trkpt lat="47.2606" lon="4.91202">
        <ele>491</ele>
        <time>2012-09-16T09:12:10Z</time>
      </trkpt>
      <trkpt lat="47.2611" lon="4.91157">
        <ele>490</ele>
        <time>2012-09-16T09:12:20Z</time>
      </trkpt>
      <trkpt lat="47.26132" lon="4.91143">
        <ele>487</ele>
        <time>2012-09-16T09:12:24Z</time>
      </trkpt>
      <trkpt lat="47.26147" lon="4.91137">
        <ele>481</ele>
        <time>2012-09-16T09:12:33Z</time>
      </trkpt>
      <trkpt lat="47.26162" lon="4.91143">
        <ele>477</ele>
        <time>2012-09-16T09:12:39Z</time>
      </trkpt>
      <trkpt lat="47.26175" lon="4.9115">
        <ele>470</ele>
        <time>2012-09-16T09:12:45Z</time>
      </trkpt>
      <trkpt lat="47.26192" lon="4.91157">
        <ele>466</ele>
        <time>2012-09-16T09:12:49Z</time>
      </trkpt>
      <trkpt lat="47.26207" lon="4.9116">
        <ele>463</ele>
        <time>2012-09-16T09:12:53Z</time>
      </trkpt>
      <trkpt lat="47.26222" lon="4.91157">
        <ele>462</ele>
        <time>2012-09-16T09:12:58Z</time>
      </trkpt>
      <trkpt lat="47.26235" lon="4.91147">
        <ele>461</ele>
        <time>2012-09-16T09:13:02Z</time>
      </trkpt>
      <trkpt lat="47.26248" lon="4.91137">
        <ele>464</ele>
        <time>2012-09-16T09:13:06Z</time>
      </trkpt>
      <trkpt lat="47.26262" lon="4.91125">
        <ele>465</ele>
        <time>2012-09-16T09:13:10Z</time>
      </trkpt>
      <trkpt lat="47.263" lon="4.91097">
        <ele>469</ele>
        <time>2012-09-16T09:13:18Z</time>
      </trkpt>
      <trkpt lat="47.26315" lon="4.9108">
        <ele>472</ele>
        <time>2012-09-16T09:13:23Z</time>
      </trkpt>
      <trkpt lat="47.26335" lon="4.91062">
        <ele>474</ele>
        <time>2012-09-16T09:13:27Z</time>
      </trkpt>
      <trkpt lat="47.26352" lon="4.91032">
        <ele>474</ele>
        <time>2012-09-16T09:13:31Z</time>
      </trkpt>
      <trkpt lat="47.26368" lon="4.9101">
        <ele>472</ele>
        <time>2012-09-16T09:13:35Z</time>
      </trkpt>
      <trkpt lat="47.26378" lon="4.90995">
        <ele>470</ele>
        <time>2012-09-16T09:13:39Z</time>
      </trkpt>
      <trkpt lat="47.26388" lon="4.90977">
        <ele>466</ele>
        <time>2012-09-16T09:13:44Z</time>
      </trkpt>
      <trkpt lat="47.26402" lon="4.90957">
        <ele>459</ele>
        <time>2012-09-16T09:13:48Z</time>
      </trkpt>
      <trkpt lat="47.26428" lon="4.90918">
        <ele>450</ele>
        <time>2012-09-16T09:13:54Z</time>
      </trkpt>
      <trkpt lat="47.2644" lon="4.90903">
        <ele>449</ele>
        <time>2012-09-16T09:13:56Z</time>
      </trkpt>
      <trkpt lat="47.26452" lon="4.90882">
        <ele>442</ele>
        <time>2012-09-16T09:13:58Z</time>
      </trkpt>
      <trkpt lat="47.26468" lon="4.90845">
        <ele>427</ele>
        <time>2012-09-16T09:14:04Z</time>
      </trkpt>
      <trkpt lat="47.26488" lon="4.90813">
        <ele>428</ele>
        <time>2012-09-16T09:14:11Z</time>
      </trkpt>
      <trkpt lat="47.26503" lon="4.90792">
        <ele>428</ele>
        <time>2012-09-16T09:14:15Z</time>
      </trkpt>
      <trkpt lat="47.26532" lon="4.90755">
        <ele>434</ele>
        <time>2012-09-16T09:14:21Z</time>
      </trkpt>
      <trkpt lat="47.26557" lon="4.90722">
        <ele>444</ele>
        <time>2012-09-16T09:14:27Z</time>
      </trkpt>
      <trkpt lat="47.26573" lon="4.90703">
        <ele>448</ele>
        <time>2012-09-16T09:14:32Z</time>
      </trkpt>
      <trkpt lat="47.26592" lon="4.90683">
        <ele>452</ele>
        <time>2012-09-16T09:14:36Z</time>
      </trkpt>
      <trkpt lat="47.26603" lon="4.9067">
        <ele>454</ele>
        <time>2012-09-16T09:14:40Z</time>
      </trkpt>
      <trkpt lat="47.26617" lon="4.90663">
        <ele>451</ele>
        <time>2012-09-16T09:14:44Z</time>
      </trkpt>
      <trkpt lat="47.26637" lon="4.90662">
        <ele>450</ele>
        <time>2012-09-16T09:14:48Z</time>
      </trkpt>
      <trkpt lat="47.26652" lon="4.9066">
        <ele>448</ele>
        <time>2012-09-16T09:14:52Z</time>
      </trkpt>
      <trkpt lat="47.2667" lon="4.9066">
        <ele>448</ele>
        <time>2012-09-16T09:14:57Z</time>
      </trkpt>
      <trkpt lat="47.26695" lon="4.90658">
        <ele>447</ele>
        <time>2012-09-16T09:15:03Z</time>
      </trkpt>
      <trkpt lat="47.26718" lon="4.90652">
        <ele>448</ele>
        <time>2012-09-16T09:15:07Z</time>
      </trkpt>
      <trkpt lat="47.2675" lon="4.90642">
        <ele>446</ele>
        <time>2012-09-16T09:15:11Z</time>
      </trkpt>
      <trkpt lat="47.26765" lon="4.90637">
        <ele>445</ele>
        <time>2012-09-16T09:15:13Z</time>
      </trkpt>
      <trkpt lat="47.26788" lon="4.90623">
        <ele>443</ele>
        <time>2012-09-16T09:15:17Z</time>
      </trkpt>
      <trkpt lat="47.26817" lon="4.90607">
        <ele>438</ele>
        <time>2012-09-16T09:15:24Z</time>
      </trkpt>
      <trkpt lat="47.26837" lon="4.90602">
        <ele>435</ele>
        <time>2012-09-16T09:15:28Z</time>
      </trkpt>
      <trkpt lat="47.26865" lon="4.90597">
        <ele>433</ele>
        <time>2012-09-16T09:15:34Z</time>
      </trkpt>
      <trkpt lat="47.26883" lon="4.90595">
        <ele>432</ele>
        <time>2012-09-16T09:15:38Z</time>
      </trkpt>
      <trkpt lat="47.26908" lon="4.90585">
        <ele>429</ele>
        <time>2012-09-16T09:15:43Z</time>
      </trkpt>
      <trkpt lat="47.26927" lon="4.90575">
        <ele>426</ele>
        <time>2012-09-16T09:15:47Z</time>
      </trkpt>
      <trkpt lat="47.26947" lon="4.90562">
        <ele>423</ele>
        <time>2012-09-16T09:15:51Z</time>
      </trkpt>
      <trkpt lat="47.26978" lon="4.9055">
        <ele>427</ele>
        <time>2012-09-16T09:15:57Z</time>
      </trkpt>
      <trkpt lat="47.26993" lon="4.90555">
        <ele>425</ele>
        <time>2012-09-16T09:16:01Z</time>
      </trkpt>
      <trkpt lat="47.27015" lon="4.90565">
        <ele>425</ele>
        <time>2012-09-16T09:16:06Z</time>
      </trkpt>
      <trkpt lat="47.27058" lon="4.90585">
        <ele>422</ele>
        <time>2012-09-16T09:16:12Z</time>
      </trkpt>
      <trkpt lat="47.27075" lon="4.90598">
        <ele>421</ele>
        <time>2012-09-16T09:16:16Z</time>
      </trkpt>
      <trkpt lat="47.27108" lon="4.90615">
        <ele>409</ele>
        <time>2012-09-16T09:16:24Z</time>
      </trkpt>
      <trkpt lat="47.27132" lon="4.90628">
        <ele>407</ele>
        <time>2012-09-16T09:16:30Z</time>
      </trkpt>
      <trkpt lat="47.27147" lon="4.90642">
        <ele>403</ele>
        <time>2012-09-16T09:16:35Z</time>
      </trkpt>
      <trkpt lat="47.2716" lon="4.90655">
        <ele>400</ele>
        <time>2012-09-16T09:16:39Z</time>
      </trkpt>
      <trkpt lat="47.27187" lon="4.90687">
        <ele>398</ele>
        <time>2012-09-16T09:16:47Z</time>
      </trkpt>
      <trkpt lat="47.27207" lon="4.90697">
        <ele>398</ele>
        <time>2012-09-16T09:16:51Z</time>
      </trkpt>
      <trkpt lat="47.27222" lon="4.90707">
        <ele>399</ele>
        <time>2012-09-16T09:16:55Z</time>
      </trkpt>
      <trkpt lat="47.27238" lon="4.90718">
        <ele>401</ele>
        <time>2012-09-16T09:17:00Z</time>
      </trkpt>
      <trkpt lat="47.27257" lon="4.90732">
        <ele>404</ele>
        <time>2012-09-16T09:17:04Z</time>
      </trkpt>
      <trkpt lat="47.27272" lon="4.90742">
        <ele>409</ele>
        <time>2012-09-16T09:17:08Z</time>
      </trkpt>
      <trkpt lat="47.27285" lon="4.90752">
        <ele>411</ele>
        <time>2012-09-16T09:17:12Z</time>
      </trkpt>
      <trkpt lat="47.273" lon="4.90758">
        <ele>412</ele>
        <time>2012-09-16T09:17:16Z</time>
      </trkpt>
      <trkpt lat="47.27313" lon="4.90763">
        <ele>413</ele>
        <time>2012-09-16T09:17:21Z</time>
      </trkpt>
      <trkpt lat="47.27335" lon="4.90777">
        <ele>417</ele>
        <time>2012-09-16T09:17:27Z</time>
      </trkpt>
      <trkpt lat="47.27355" lon="4.9077">
        <ele>417</ele>
        <time>2012-09-16T09:17:33Z</time>
      </trkpt>
      <trkpt lat="47.27368" lon="4.90765">
        <ele>419</ele>
        <time>2012-09-16T09:17:35Z</time>
      </trkpt>
      <trkpt lat="47.27388" lon="4.90753">
        <ele>422</ele>
        <time>2012-09-16T09:17:39Z</time>
      </trkpt>
      <trkpt lat="47.27412" lon="4.90737">
        <ele>426</ele>
        <time>2012-09-16T09:17:44Z</time>
      </trkpt>
      <trkpt lat="47.27427" lon="4.90722">
        <ele>430</ele>
        <time>2012-09-16T09:17:48Z</time>
      </trkpt>
      <trkpt lat="47.27452" lon="4.90697">
        <ele>432</ele>
        <time>2012-09-16T09:17:54Z</time>
      </trkpt>
      <trkpt lat="47.27505" lon="4.90643">
        <ele>428</ele>
        <time>2012-09-16T09:18:02Z</time>
      </trkpt>
      <trkpt lat="47.27522" lon="4.90618">
        <ele>421</ele>
        <time>2012-09-16T09:18:09Z</time>
      </trkpt>
      <trkpt lat="47.27547" lon="4.90592">
        <ele>408</ele>
        <time>2012-09-16T09:18:28Z</time>
      </trkpt>
      <trkpt lat="47.27577" lon="4.90565">
        <ele>410</ele>
        <time>2012-09-16T09:18:34Z</time>
      </trkpt>
      <trkpt lat="47.27592" lon="4.90548">
        <ele>411</ele>
        <time>2012-09-16T09:18:38Z</time>
      </trkpt>
      <trkpt lat="47.27612" lon="4.90535">
        <ele>410</ele>
        <time>2012-09-16T09:18:42Z</time>
      </trkpt>
      <trkpt lat="47.27628" lon="4.90522">
        <ele>411</ele>
        <time>2012-09-16T09:18:46Z</time>
      </trkpt>
      <trkpt lat="47.2765" lon="4.90512">
        <ele>410</ele>
        <time>2012-09-16T09:18:51Z</time>
      </trkpt>
      <trkpt lat="47.27665" lon="4.90502">
        <ele>409</ele>
        <time>2012-09-16T09:18:55Z</time>
      </trkpt>
      <trkpt lat="47.27678" lon="4.90493">
        <ele>414</ele>
        <time>2012-09-16T09:18:59Z</time>
      </trkpt>
      <trkpt lat="47.27698" lon="4.90478">
        <ele>414</ele>
        <time>2012-09-16T09:19:03Z</time>
      </trkpt>
      <trkpt lat="47.27723" lon="4.90468">
        <ele>414</ele>
        <time>2012-09-16T09:19:07Z</time>
      </trkpt>
      <trkpt lat="47.27795" lon="4.90442">
        <ele>409</ele>
        <time>2012-09-16T09:19:20Z</time>
      </trkpt>
      <trkpt lat="47.27823" lon="4.90457">
        <ele>402</ele>
        <time>2012-09-16T09:19:24Z</time>
      </trkpt>
      <trkpt lat="47.27848" lon="4.90472">
        <ele>401</ele>
        <time>2012-09-16T09:19:28Z</time>
      </trkpt>
      <trkpt lat="47.27888" lon="4.9049">
        <ele>398</ele>
        <time>2012-09-16T09:19:35Z</time>
      </trkpt>
      <trkpt lat="47.2791" lon="4.90488">
        <ele>396</ele>
        <time>2012-09-16T09:19:39Z</time>
      </trkpt>
      <trkpt lat="47.27927" lon="4.9049">
        <ele>392</ele>
        <time>2012-09-16T09:19:43Z</time>
      </trkpt>
      <trkpt lat="47.27955" lon="4.90498">
        <ele>390</ele>
        <time>2012-09-16T09:19:49Z</time>
      </trkpt>
      <trkpt lat="47.27972" lon="4.90508">
        <ele>389</ele>
        <time>2012-09-16T09:19:54Z</time>
      </trkpt>
      <trkpt lat="47.27998" lon="4.90515">
        <ele>387</ele>
        <time>2012-09-16T09:19:58Z</time>
      </trkpt>
      <trkpt lat="47.28012" lon="4.9052">
        <ele>387</ele>
        <time>2012-09-16T09:20:00Z</time>
      </trkpt>
      <trkpt lat="47.28058" lon="4.90537">
        <ele>382</ele>
        <time>2012-09-16T09:20:08Z</time>
      </trkpt>
      <trkpt lat="47.28072" lon="4.90548">
        <ele>381</ele>
        <time>2012-09-16T09:20:17Z</time>
      </trkpt>
      <trkpt lat="47.28088" lon="4.9056">
        <ele>379</ele>
        <time>2012-09-16T09:20:23Z</time>
      </trkpt>
      <trkpt lat="47.28107" lon="4.90572">
        <ele>375</ele>
        <time>2012-09-16T09:20:27Z</time>
      </trkpt>
      <trkpt lat="47.28123" lon="4.90587">
        <ele>373</ele>
        <time>2012-09-16T09:20:31Z</time>
      </trkpt>
      <trkpt lat="47.28142" lon="4.90602">
        <ele>372</ele>
        <time>2012-09-16T09:20:35Z</time>
      </trkpt>
      <trkpt lat="47.28202" lon="4.90643">
        <ele>375</ele>
        <time>2012-09-16T09:20:46Z</time>
      </trkpt>
      <trkpt lat="47.28223" lon="4.90663">
        <ele>375</ele>
        <time>2012-09-16T09:20:50Z</time>
      </trkpt>
      <trkpt lat="47.28245" lon="4.90682">
        <ele>377</ele>
        <time>2012-09-16T09:20:54Z</time>
      </trkpt>
      <trkpt lat="47.28267" lon="4.90703">
        <ele>379</ele>
        <time>2012-09-16T09:20:59Z</time>
      </trkpt>
      <trkpt lat="47.28278" lon="4.90713">
        <ele>379</ele>
        <time>2012-09-16T09:21:01Z</time>
      </trkpt>
      <trkpt lat="47.28295" lon="4.9073">
        <ele>380</ele>
        <time>2012-09-16T09:21:05Z</time>
      </trkpt>
      <trkpt lat="47.28308" lon="4.90747">
        <ele>381</ele>
        <time>2012-09-16T09:21:09Z</time>
      </trkpt>
      <trkpt lat="47.28322" lon="4.9076">
        <ele>383</ele>
        <time>2012-09-16T09:21:11Z</time>
      </trkpt>
      <trkpt lat="47.28343" lon="4.90772">
        <ele>385</ele>
        <time>2012-09-16T09:21:15Z</time>
      </trkpt>
      <trkpt lat="47.28373" lon="4.9079">
        <ele>384</ele>
        <time>2012-09-16T09:21:22Z</time>
      </trkpt>
      <trkpt lat="47.28392" lon="4.90798">
        <ele>383</ele>
        <time>2012-09-16T09:21:26Z</time>
      </trkpt>
      <trkpt lat="47.28428" lon="4.90817">
        <ele>381</ele>
        <time>2012-09-16T09:21:32Z</time>
      </trkpt>
      <trkpt lat="47.28453" lon="4.9083">
        <ele>381</ele>
        <time>2012-09-16T09:21:38Z</time>
      </trkpt>
      <trkpt lat="47.2847" lon="4.90835">
        <ele>379</ele>
        <time>2012-09-16T09:21:43Z</time>
      </trkpt>
      <trkpt lat="47.28488" lon="4.90837">
        <ele>378</ele>
        <time>2012-09-16T09:21:47Z</time>
      </trkpt>
      <trkpt lat="47.28507" lon="4.90835">
        <ele>377</ele>
        <time>2012-09-16T09:21:51Z</time>
      </trkpt>
      <trkpt lat="47.28532" lon="4.90843">
        <ele>376</ele>
        <time>2012-09-16T09:21:55Z</time>
      </trkpt>
      <trkpt lat="47.28553" lon="4.90855">
        <ele>376</ele>
        <time>2012-09-16T09:21:57Z</time>
      </trkpt>
      <trkpt lat="47.28578" lon="4.9087">
        <ele>374</ele>
        <time>2012-09-16T09:22:01Z</time>
      </trkpt>
      <trkpt lat="47.286" lon="4.9088">
        <ele>373</ele>
        <time>2012-09-16T09:22:06Z</time>
      </trkpt>
      <trkpt lat="47.28633" lon="4.909">
        <ele>370</ele>
        <time>2012-09-16T09:22:12Z</time>
      </trkpt>
      <trkpt lat="47.28648" lon="4.90917">
        <ele>369</ele>
        <time>2012-09-16T09:22:16Z</time>
      </trkpt>
      <trkpt lat="47.28692" lon="4.9095">
        <ele>370</ele>
        <time>2012-09-16T09:22:24Z</time>
      </trkpt>
      <trkpt lat="47.28705" lon="4.90955">
        <ele>371</ele>
        <time>2012-09-16T09:22:26Z</time>
      </trkpt>
      <trkpt lat="47.28722" lon="4.90968">
        <ele>371</ele>
        <time>2012-09-16T09:22:31Z</time>
      </trkpt>
      <trkpt lat="47.28765" lon="4.91007">
        <ele>368</ele>
        <time>2012-09-16T09:22:41Z</time>
      </trkpt>
      <trkpt lat="47.28785" lon="4.9103">
        <ele>368</ele>
        <time>2012-09-16T09:22:45Z</time>
      </trkpt>
      <trkpt lat="47.28828" lon="4.9107">
        <ele>362</ele>
        <time>2012-09-16T09:22:53Z</time>
      </trkpt>
      <trkpt lat="47.2884" lon="4.9108">
        <ele>361</ele>
        <time>2012-09-16T09:22:56Z</time>
      </trkpt>
      <trkpt lat="47.28853" lon="4.9109">
        <ele>361</ele>
        <time>2012-09-16T09:22:58Z</time>
      </trkpt>
      <trkpt lat="47.2889" lon="4.91118">
        <ele>362</ele>
        <time>2012-09-16T09:23:06Z</time>
      </trkpt>
      <trkpt lat="47.28908" lon="4.91123">
        <ele>365</ele>
        <time>2012-09-16T09:23:10Z</time>
      </trkpt>
      <trkpt lat="47.2893" lon="4.91113">
        <ele>364</ele>
        <time>2012-09-16T09:23:16Z</time>
      </trkpt>
      <trkpt lat="47.28952" lon="4.91107">
        <ele>364</ele>
        <time>2012-09-16T09:23:20Z</time>
      </trkpt>
      <trkpt lat="47.2897" lon="4.91103">
        <ele>366</ele>
        <time>2012-09-16T09:23:25Z</time>
      </trkpt>
      <trkpt lat="47.28987" lon="4.91105">
        <ele>367</ele>
        <time>2012-09-16T09:23:29Z</time>
      </trkpt>
      <trkpt lat="47.29003" lon="4.91112">
        <ele>370</ele>
        <time>2012-09-16T09:23:33Z</time>
      </trkpt>
      <trkpt lat="47.29017" lon="4.91115">
        <ele>374</ele>
        <time>2012-09-16T09:23:37Z</time>
      </trkpt>
      <trkpt lat="47.29032" lon="4.9112">
        <ele>371</ele>
        <time>2012-09-16T09:23:41Z</time>
      </trkpt>
      <trkpt lat="47.29052" lon="4.91123">
        <ele>371</ele>
        <time>2012-09-16T09:23:48Z</time>
      </trkpt>
      <trkpt lat="47.29067" lon="4.91127">
        <ele>371</ele>
        <time>2012-09-16T09:23:54Z</time>
      </trkpt>
      <trkpt lat="47.2908" lon="4.91132">
        <ele>370</ele>
        <time>2012-09-16T09:24:02Z</time>
      </trkpt>
      <trkpt lat="47.29095" lon="4.91135">
        <ele>366</ele>
        <time>2012-09-16T09:24:12Z</time>
      </trkpt>
      <trkpt lat="47.29108" lon="4.9114">
        <ele>357</ele>
        <time>2012-09-16T09:24:31Z</time>
      </trkpt>
      <trkpt lat="47.29125" lon="4.91148">
        <ele>352</ele>
        <time>2012-09-16T09:24:50Z</time>
      </trkpt>
      <trkpt lat="47.2914" lon="4.91153">
        <ele>350</ele>
        <time>2012-09-16T09:25:10Z</time>
      </trkpt>
      <trkpt lat="47.29155" lon="4.9116">
        <ele>350</ele>
        <time>2012-09-16T09:25:21Z</time>
      </trkpt>
      <trkpt lat="47.29172" lon="4.91168">
        <ele>349</ele>
        <time>2012-09-16T09:25:31Z</time>
      </trkpt>
      <trkpt lat="47.29185" lon="4.91175">
        <ele>349</ele>
        <time>2012-09-16T09:25:35Z</time>
      </trkpt>
      <trkpt lat="47.29205" lon="4.91183">
        <ele>356</ele>
        <time>2012-09-16T09:25:41Z</time>
      </trkpt>
      <trkpt lat="47.29227" lon="4.91195">
        <ele>358</ele>
        <time>2012-09-16T09:25:45Z</time>
      </trkpt>
      <trkpt lat="47.29243" lon="4.912">
        <ele>360</ele>
        <time>2012-09-16T09:25:49Z</time>
      </trkpt>
      <trkpt lat="47.2926" lon="4.91208">
        <ele>358</ele>
        <time>2012-09-16T09:25:58Z</time>
      </trkpt>
      <trkpt lat="47.29277" lon="4.91208">
        <ele>351</ele>
        <time>2012-09-16T09:26:08Z</time>
      </trkpt>
      <trkpt lat="47.29292" lon="4.91212">
        <ele>350</ele>
        <time>2012-09-16T09:26:14Z</time>
      </trkpt>
      <trkpt lat="47.29305" lon="4.9122">
        <ele>352</ele>
        <time>2012-09-16T09:26:27Z</time>
      </trkpt>
      <trkpt lat="47.2932" lon="4.91222">
        <ele>349</ele>
        <time>2012-09-16T09:26:39Z</time>
      </trkpt>
      <trkpt lat="47.29337" lon="4.91227">
        <ele>345</ele>
        <time>2012-09-16T09:26:49Z</time>
      </trkpt>
      <trkpt lat="47.2935" lon="4.91233">
        <ele>341</ele>
        <time>2012-09-16T09:27:02Z</time>
      </trkpt>
      <trkpt lat="47.29363" lon="4.9124">
        <ele>338</ele>
        <time>2012-09-16T09:27:23Z</time>
      </trkpt>
      <trkpt lat="47.29378" lon="4.91245">
        <ele>337</ele>
        <time>2012-09-16T09:27:33Z</time>
      </trkpt>
      <trkpt lat="47.29392" lon="4.91248">
        <ele>338</ele>
        <time>2012-09-16T09:27:39Z</time>
      </trkpt>
      <trkpt lat="47.29407" lon="4.91253">
        <ele>339</ele>
        <time>2012-09-16T09:27:45Z</time>
      </trkpt>
      <trkpt lat="47.29422" lon="4.91253">
        <ele>340</ele>
        <time>2012-09-16T09:27:50Z</time>
      </trkpt>
      <trkpt lat="47.29443" lon="4.91252">
        <ele>345</ele>
        <time>2012-09-16T09:27:56Z</time>
      </trkpt>
      <trkpt lat="47.29463" lon="4.91255">
        <ele>348</ele>
        <time>2012-09-16T09:28:00Z</time>
      </trkpt>
      <trkpt lat="47.29485" lon="4.9126">
        <ele>351</ele>
        <time>2012-09-16T09:28:04Z</time>
      </trkpt>
      <trkpt lat="47.29503" lon="4.91267">
        <ele>353</ele>
        <time>2012-09-16T09:28:08Z</time>
      </trkpt>
      <trkpt lat="47.2952" lon="4.91273">
        <ele>355</ele>
        <time>2012-09-16T09:28:13Z</time>
      </trkpt>
      <trkpt lat="47.29543" lon="4.9128">
        <ele>360</ele>
        <time>2012-09-16T09:28:17Z</time>
      </trkpt>
      <trkpt lat="47.29568" lon="4.91292">
        <ele>359</ele>
        <time>2012-09-16T09:28:21Z</time>
      </trkpt>
      <trkpt lat="47.29588" lon="4.91297">
        <ele>359</ele>
        <time>2012-09-16T09:28:25Z</time>
      </trkpt>
      <trkpt lat="47.29608" lon="4.913">
        <ele>355</ele>
        <time>2012-09-16T09:28:29Z</time>
      </trkpt>
      <trkpt lat="47.29625" lon="4.91313">
        <ele>350</ele>
        <time>2012-09-16T09:28:35Z</time>
      </trkpt>
      <trkpt lat="47.29638" lon="4.91323">
        <ele>347</ele>
        <time>2012-09-16T09:28:40Z</time>
      </trkpt>
      <trkpt lat="47.29653" lon="4.91323">
        <ele>345</ele>
        <time>2012-09-16T09:28:44Z</time>
      </trkpt>
      <trkpt lat="47.29673" lon="4.91338">
        <ele>338</ele>
        <time>2012-09-16T09:28:52Z</time>
      </trkpt>
      <trkpt lat="47.297" lon="4.91353">
        <ele>331</ele>
        <time>2012-09-16T09:28:58Z</time>
      </trkpt>
      <trkpt lat="47.2972" lon="4.91363">
        <ele>328</ele>
        <time>2012-09-16T09:29:03Z</time>
      </trkpt>
      <trkpt lat="47.29732" lon="4.91373">
        <ele>326</ele>
        <time>2012-09-16T09:29:07Z</time>
      </trkpt>
      <trkpt lat="47.29755" lon="4.91393">
        <ele>323</ele>
        <time>2012-09-16T09:29:13Z</time>
      </trkpt>
      <trkpt lat="47.29773" lon="4.91405">
        <ele>323</ele>
        <time>2012-09-16T09:29:17Z</time>
      </trkpt>
      <trkpt lat="47.29793" lon="4.91415">
        <ele>322</ele>
        <time>2012-09-16T09:29:22Z</time>
      </trkpt>
      <trkpt lat="47.29817" lon="4.91423">
        <ele>326</ele>
        <time>2012-09-16T09:29:26Z</time>
      </trkpt>
      <trkpt lat="47.29835" lon="4.91433">
        <ele>327</ele>
        <time>2012-09-16T09:29:30Z</time>
      </trkpt>
      <trkpt lat="47.29855" lon="4.9144">
        <ele>326</ele>
        <time>2012-09-16T09:29:34Z</time>
      </trkpt>
      <trkpt lat="47.29888" lon="4.91452">
        <ele>322</ele>
        <time>2012-09-16T09:29:44Z</time>
      </trkpt>
      <trkpt lat="47.29902" lon="4.91463">
        <ele>320</ele>
        <time>2012-09-16T09:29:49Z</time>
      </trkpt>
      <trkpt lat="47.29918" lon="4.91475">
        <ele>319</ele>
        <time>2012-09-16T09:29:53Z</time>
      </trkpt>
      <trkpt lat="47.29933" lon="4.91482">
        <ele>319</ele>
        <time>2012-09-16T09:29:57Z</time>
      </trkpt>
      <trkpt lat="47.29952" lon="4.91492">
        <ele>318</ele>
        <time>2012-09-16T09:30:01Z</time>
      </trkpt>
      <trkpt lat="47.29982" lon="4.91512">
        <ele>322</ele>
        <time>2012-09-16T09:30:07Z</time>
      </trkpt>
      <trkpt lat="47.29997" lon="4.91518">
        <ele>322</ele>
        <time>2012-09-16T09:30:11Z</time>
      </trkpt>
      <trkpt lat="47.30012" lon="4.91522">
        <ele>322</ele>
        <time>2012-09-16T09:30:16Z</time>
      </trkpt>
      <trkpt lat="47.30028" lon="4.91525">
        <ele>325</ele>
        <time>2012-09-16T09:30:22Z</time>
      </trkpt>
      <trkpt lat="47.30047" lon="4.91528">
        <ele>327</ele>
        <time>2012-09-16T09:30:28Z</time>
      </trkpt>
      <trkpt lat="47.3006" lon="4.91533">
        <ele>329</ele>
        <time>2012-09-16T09:30:32Z</time>
      </trkpt>
      <trkpt lat="47.30073" lon="4.91537">
        <ele>330</ele>
        <time>2012-09-16T09:30:36Z</time>
      </trkpt>
      <trkpt lat="47.30092" lon="4.91538">
        <ele>325</ele>
        <time>2012-09-16T09:30:43Z</time>
      </trkpt>
      <trkpt lat="47.30107" lon="4.91542">
        <ele>328</ele>
        <time>2012-09-16T09:30:51Z</time>
      </trkpt>
      <trkpt lat="47.30125" lon="4.9154">
        <ele>328</ele>
        <time>2012-09-16T09:30:57Z</time>
      </trkpt>
      <trkpt lat="47.3014" lon="4.9154">
        <ele>331</ele>
        <time>2012-09-16T09:31:03Z</time>
      </trkpt>
      <trkpt lat="47.30158" lon="4.9154">
        <ele>334</ele>
        <time>2012-09-16T09:31:12Z</time>
      </trkpt>
      <trkpt lat="47.30175" lon="4.9154">
        <ele>338</ele>
        <time>2012-09-16T09:31:18Z</time>
      </trkpt>
      <trkpt lat="47.30198" lon="4.91543">
        <ele>337</ele>
        <time>2012-09-16T09:31:22Z</time>
      </trkpt>
      <trkpt lat="47.30217" lon="4.91545">
        <ele>335</ele>
        <time>2012-09-16T09:31:26Z</time>
      </trkpt>
      <trkpt lat="47.30242" lon="4.91547">
        <ele>329</ele>
        <time>2012-09-16T09:31:33Z</time>
      </trkpt>
      <trkpt lat="47.30257" lon="4.91548">
        <ele>319</ele>
        <time>2012-09-16T09:31:39Z</time>
      </trkpt>
      <trkpt lat="47.30275" lon="4.91545">
        <ele>310</ele>
        <time>2012-09-16T09:31:45Z</time>
      </trkpt>
      <trkpt lat="47.30297" lon="4.91538">
        <ele>303</ele>
        <time>2012-09-16T09:31:53Z</time>
      </trkpt>
      <trkpt lat="47.30325" lon="4.91527">
        <ele>299</ele>
        <time>2012-09-16T09:32:02Z</time>
      </trkpt>
      <trkpt lat="47.3034" lon="4.91522">
        <ele>301</ele>
        <time>2012-09-16T09:32:06Z</time>
      </trkpt>
      <trkpt lat="47.3036" lon="4.9152">
        <ele>303</ele>
        <time>2012-09-16T09:32:10Z</time>
      </trkpt>
      <trkpt lat="47.30377" lon="4.91513">
        <ele>301</ele>
        <time>2012-09-16T09:32:14Z</time>
      </trkpt>
      <trkpt lat="47.30392" lon="4.91507">
        <ele>300</ele>
        <time>2012-09-16T09:32:18Z</time>
      </trkpt>
      <trkpt lat="47.30418" lon="4.91495">
        <ele>302</ele>
        <time>2012-09-16T09:32:27Z</time>
      </trkpt>
      <trkpt lat="47.30448" lon="4.91487">
        <ele>302</ele>
        <time>2012-09-16T09:32:35Z</time>
      </trkpt>
      <trkpt lat="47.30473" lon="4.91477">
        <ele>302</ele>
        <time>2012-09-16T09:32:41Z</time>
      </trkpt>
      <trkpt lat="47.30488" lon="4.91477">
        <ele>302</ele>
        <time>2012-09-16T09:32:46Z</time>
      </trkpt>
      <trkpt lat="47.30507" lon="4.91472">
        <ele>304</ele>
        <time>2012-09-16T09:32:52Z</time>
      </trkpt>
      <trkpt lat="47.30522" lon="4.91465">
        <ele>306</ele>
        <time>2012-09-16T09:32:56Z</time>
      </trkpt>
      <trkpt lat="47.30542" lon="4.91453">
        <ele>309</ele>
        <time>2012-09-16T09:33:02Z</time>
      </trkpt>
      <trkpt lat="47.30558" lon="4.91445">
        <ele>310</ele>
        <time>2012-09-16T09:33:06Z</time>
      </trkpt>
      <trkpt lat="47.30572" lon="4.91438">
        <ele>310</ele>
        <time>2012-09-16T09:33:11Z</time>
      </trkpt>
      <trkpt lat="47.30585" lon="4.91428">
        <ele>310</ele>
        <time>2012-09-16T09:33:15Z</time>
      </trkpt>
      <trkpt lat="47.30595" lon="4.91413">
        <ele>309</ele>
        <time>2012-09-16T09:33:19Z</time>
      </trkpt>
      <trkpt lat="47.30612" lon="4.9138">
        <ele>303</ele>
        <time>2012-09-16T09:33:25Z</time>
      </trkpt>
      <trkpt lat="47.30617" lon="4.9136">
        <ele>302</ele>
        <time>2012-09-16T09:33:29Z</time>
      </trkpt>
      <trkpt lat="47.30622" lon="4.9134">
        <ele>301</ele>
        <time>2012-09-16T09:33:46Z</time>
      </trkpt>
      <trkpt lat="47.30615" lon="4.91322">
        <ele>303</ele>
        <time>2012-09-16T09:33:59Z</time>
      </trkpt>
      <trkpt lat="47.30602" lon="4.91313">
        <ele>308</ele>
        <time>2012-09-16T09:34:11Z</time>
      </trkpt>
      <trkpt lat="47.3059" lon="4.91302">
        <ele>308</ele>
        <time>2012-09-16T09:34:17Z</time>
      </trkpt>
      <trkpt lat="47.30582" lon="4.91277">
        <ele>306</ele>
        <time>2012-09-16T09:34:24Z</time>
      </trkpt>
      <trkpt lat="47.30583" lon="4.91257">
        <ele>304</ele>
        <time>2012-09-16T09:34:28Z</time>
      </trkpt>
      <trkpt lat="47.30585" lon="4.9123">
        <ele>307</ele>
        <time>2012-09-16T09:34:32Z</time>
      </trkpt>
      <trkpt lat="47.30595" lon="4.9121">
        <ele>308</ele>
        <time>2012-09-16T09:34:36Z</time>
      </trkpt>
      <trkpt lat="47.30605" lon="4.91193">
        <ele>307</ele>
        <time>2012-09-16T09:34:38Z</time>
      </trkpt>
      <trkpt lat="47.3062" lon="4.91183">
        <ele>312</ele>
        <time>2012-09-16T09:34:42Z</time>
      </trkpt>
      <trkpt lat="47.30638" lon="4.91182">
        <ele>309</ele>
        <time>2012-09-16T09:34:47Z</time>
      </trkpt>
      <trkpt lat="47.3066" lon="4.91185">
        <ele>305</ele>
        <time>2012-09-16T09:34:51Z</time>
      </trkpt>
      <trkpt lat="47.30688" lon="4.9119">
        <ele>301</ele>
        <time>2012-09-16T09:34:57Z</time>
      </trkpt>
      <trkpt lat="47.30713" lon="4.912">
        <ele>297</ele>
        <time>2012-09-16T09:35:01Z</time>
      </trkpt>
      <trkpt lat="47.30735" lon="4.91208">
        <ele>295</ele>
        <time>2012-09-16T09:35:05Z</time>
      </trkpt>
      <trkpt lat="47.30757" lon="4.91215">
        <ele>294</ele>
        <time>2012-09-16T09:35:10Z</time>
      </trkpt>
      <trkpt lat="47.3078" lon="4.91218">
        <ele>293</ele>
        <time>2012-09-16T09:35:14Z</time>
      </trkpt>
      <trkpt lat="47.308" lon="4.91223">
        <ele>293</ele>
        <time>2012-09-16T09:35:18Z</time>
      </trkpt>
      <trkpt lat="47.30822" lon="4.9123">
        <ele>292</ele>
        <time>2012-09-16T09:35:22Z</time>
      </trkpt>
      <trkpt lat="47.30838" lon="4.91233">
        <ele>292</ele>
        <time>2012-09-16T09:35:24Z</time>
      </trkpt>
      <trkpt lat="47.30858" lon="4.91233">
        <ele>292</ele>
        <time>2012-09-16T09:35:28Z</time>
      </trkpt>
      <trkpt lat="47.30878" lon="4.91237">
        <ele>294</ele>
        <time>2012-09-16T09:35:33Z</time>
      </trkpt>
      <trkpt lat="47.30905" lon="4.91237">
        <ele>297</ele>
        <time>2012-09-16T09:35:39Z</time>
      </trkpt>
      <trkpt lat="47.30925" lon="4.9123">
        <ele>297</ele>
        <time>2012-09-16T09:35:43Z</time>
      </trkpt>
      <trkpt lat="47.30955" lon="4.91218">
        <ele>297</ele>
        <time>2012-09-16T09:35:49Z</time>
      </trkpt>
      <trkpt lat="47.30973" lon="4.91215">
        <ele>296</ele>
        <time>2012-09-16T09:35:54Z</time>
      </trkpt>
      <trkpt lat="47.30992" lon="4.91213">
        <ele>295</ele>
        <time>2012-09-16T09:35:58Z</time>
      </trkpt>
      <trkpt lat="47.31013" lon="4.91215">
        <ele>294</ele>
        <time>2012-09-16T09:36:02Z</time>
      </trkpt>
      <trkpt lat="47.31035" lon="4.91218">
        <ele>292</ele>
        <time>2012-09-16T09:36:06Z</time>
      </trkpt>
      <trkpt lat="47.31058" lon="4.91225">
        <ele>291</ele>
        <time>2012-09-16T09:36:10Z</time>
      </trkpt>
      <trkpt lat="47.31078" lon="4.91235">
        <ele>291</ele>
        <time>2012-09-16T09:36:14Z</time>
      </trkpt>
      <trkpt lat="47.31108" lon="4.91255">
        <ele>288</ele>
        <time>2012-09-16T09:36:21Z</time>
      </trkpt>
      <trkpt lat="47.31148" lon="4.91287">
        <ele>285</ele>
        <time>2012-09-16T09:36:29Z</time>
      </trkpt>
      <trkpt lat="47.31167" lon="4.913">
        <ele>284</ele>
        <time>2012-09-16T09:36:33Z</time>
      </trkpt>
      <trkpt lat="47.31183" lon="4.91313">
        <ele>283</ele>
        <time>2012-09-16T09:36:38Z</time>
      </trkpt>
      <trkpt lat="47.31202" lon="4.91315">
        <ele>282</ele>
        <time>2012-09-16T09:36:42Z</time>
      </trkpt>
      <trkpt lat="47.31218" lon="4.9132">
        <ele>283</ele>
        <time>2012-09-16T09:36:46Z</time>
      </trkpt>
      <trkpt lat="47.31237" lon="4.91322">
        <ele>283</ele>
        <time>2012-09-16T09:36:50Z</time>
      </trkpt>
      <trkpt lat="47.31257" lon="4.9132">
        <ele>283</ele>
        <time>2012-09-16T09:36:54Z</time>
      </trkpt>
      <trkpt lat="47.31292" lon="4.91313">
        <ele>285</ele>
        <time>2012-09-16T09:37:03Z</time>
      </trkpt>
      <trkpt lat="47.31307" lon="4.91305">
        <ele>286</ele>
        <time>2012-09-16T09:37:07Z</time>
      </trkpt>
      <trkpt lat="47.31323" lon="4.91298">
        <ele>286</ele>
        <time>2012-09-16T09:37:11Z</time>
      </trkpt>
      <trkpt lat="47.31342" lon="4.9129">
        <ele>285</ele>
        <time>2012-09-16T09:37:15Z</time>
      </trkpt>
      <trkpt lat="47.31385" lon="4.9127">
        <ele>286</ele>
        <time>2012-09-16T09:37:23Z</time>
      </trkpt>
      <trkpt lat="47.31407" lon="4.91263">
        <ele>284</ele>
        <time>2012-09-16T09:37:28Z</time>
      </trkpt>
      <trkpt lat="47.31432" lon="4.91258">
        <ele>283</ele>
        <time>2012-09-16T09:37:32Z</time>
      </trkpt>
      <trkpt lat="47.31453" lon="4.91257">
        <ele>283</ele>
        <time>2012-09-16T09:37:36Z</time>
      </trkpt>
      <trkpt lat="47.31477" lon="4.91255">
        <ele>283</ele>
        <time>2012-09-16T09:37:40Z</time>
      </trkpt>
      <trkpt lat="47.31517" lon="4.91255">
        <ele>283</ele>
        <time>2012-09-16T09:37:46Z</time>
      </trkpt>
      <trkpt lat="47.31587" lon="4.91253">
        <ele>282</ele>
        <time>2012-09-16T09:37:59Z</time>
      </trkpt>
      <trkpt lat="47.31608" lon="4.9125">
        <ele>281</ele>
        <time>2012-09-16T09:38:03Z</time>
      </trkpt>
      <trkpt lat="47.3163" lon="4.91242">
        <ele>279</ele>
        <time>2012-09-16T09:38:07Z</time>
      </trkpt>
      <trkpt lat="47.31622" lon="4.91225">
        <ele>281</ele>
        <time>2012-09-16T09:38:13Z</time>
      </trkpt>
      <trkpt lat="47.31608" lon="4.91217">
        <ele>282</ele>
        <time>2012-09-16T09:38:22Z</time>
      </trkpt>
      <trkpt lat="47.31592" lon="4.91207">
        <ele>285</ele>
        <time>2012-09-16T09:38:32Z</time>
      </trkpt>
      <trkpt lat="47.31578" lon="4.91193">
        <ele>286</ele>
        <time>2012-09-16T09:38:43Z</time>
      </trkpt>
      <trkpt lat="47.31565" lon="4.91178">
        <ele>289</ele>
        <time>2012-09-16T09:38:53Z</time>
      </trkpt>
      <trkpt lat="47.31557" lon="4.91162">
        <ele>291</ele>
        <time>2012-09-16T09:39:02Z</time>
      </trkpt>
      <trkpt lat="47.31548" lon="4.91145">
        <ele>292</ele>
        <time>2012-09-16T09:39:10Z</time>
      </trkpt>
      <trkpt lat="47.3154" lon="4.91127">
        <ele>293</ele>
        <time>2012-09-16T09:39:18Z</time>
      </trkpt>
      <trkpt lat="47.3153" lon="4.91108">
        <ele>294</ele>
        <time>2012-09-16T09:39:29Z</time>
      </trkpt>
      <trkpt lat="47.31518" lon="4.91092">
        <ele>296</ele>
        <time>2012-09-16T09:39:39Z</time>
      </trkpt>
      <trkpt lat="47.31505" lon="4.91077">
        <ele>298</ele>
        <time>2012-09-16T09:39:50Z</time>
      </trkpt>
      <trkpt lat="47.31493" lon="4.91065">
        <ele>299</ele>
        <time>2012-09-16T09:40:00Z</time>
      </trkpt>
      <trkpt lat="47.31478" lon="4.91057">
        <ele>301</ele>
        <time>2012-09-16T09:40:10Z</time>
      </trkpt>
      <trkpt lat="47.31465" lon="4.9105">
        <ele>303</ele>
        <time>2012-09-16T09:40:21Z</time>
      </trkpt>
      <trkpt lat="47.3145" lon="4.91045">
        <ele>304</ele>
        <time>2012-09-16T09:40:31Z</time>
      </trkpt>
      <trkpt lat="47.31437" lon="4.91038">
        <ele>305</ele>
        <time>2012-09-16T09:40:42Z</time>
      </trkpt>
      <trkpt lat="47.31422" lon="4.91032">
        <ele>308</ele>
        <time>2012-09-16T09:40:54Z</time>
      </trkpt>
      <trkpt lat="47.31408" lon="4.91023">
        <ele>311</ele>
        <time>2012-09-16T09:41:05Z</time>
      </trkpt>
      <trkpt lat="47.31397" lon="4.91012">
        <ele>313</ele>
        <time>2012-09-16T09:41:15Z</time>
      </trkpt>
      <trkpt lat="47.31388" lon="4.90993">
        <ele>315</ele>
        <time>2012-09-16T09:41:26Z</time>
      </trkpt>
      <trkpt lat="47.31378" lon="4.90973">
        <ele>318</ele>
        <time>2012-09-16T09:41:36Z</time>
      </trkpt>
      <trkpt lat="47.31368" lon="4.90952">
        <ele>321</ele>
        <time>2012-09-16T09:41:49Z</time>
      </trkpt>
      <trkpt lat="47.3136" lon="4.90928">
        <ele>324</ele>
        <time>2012-09-16T09:42:01Z</time>
      </trkpt>
      <trkpt lat="47.31353" lon="4.9091">
        <ele>325</ele>
        <time>2012-09-16T09:42:12Z</time>
      </trkpt>
      <trkpt lat="47.31345" lon="4.9089">
        <ele>327</ele>
        <time>2012-09-16T09:42:24Z</time>
      </trkpt>
      <trkpt lat="47.31335" lon="4.90873">
        <ele>330</ele>
        <time>2012-09-16T09:42:37Z</time>
      </trkpt>
      <trkpt lat="47.31325" lon="4.9086">
        <ele>333</ele>
        <time>2012-09-16T09:42:45Z</time>
      </trkpt>
      <trkpt lat="47.31315" lon="4.90847">
        <ele>337</ele>
        <time>2012-09-16T09:42:56Z</time>
      </trkpt>
      <trkpt lat="47.31302" lon="4.90835">
        <ele>344</ele>
        <time>2012-09-16T09:43:08Z</time>
      </trkpt>
      <trkpt lat="47.3129" lon="4.90822">
        <ele>345</ele>
        <time>2012-09-16T09:43:19Z</time>
      </trkpt>
      <trkpt lat="47.31277" lon="4.90813">
        <ele>348</ele>
        <time>2012-09-16T09:43:29Z</time>
      </trkpt>
      <trkpt lat="47.3126" lon="4.90812">
        <ele>352</ele>
        <time>2012-09-16T09:43:42Z</time>
      </trkpt>
      <trkpt lat="47.31245" lon="4.90812">
        <ele>354</ele>
        <time>2012-09-16T09:43:52Z</time>
      </trkpt>
      <trkpt lat="47.31228" lon="4.90812">
        <ele>355</ele>
        <time>2012-09-16T09:44:03Z</time>
      </trkpt>
      <trkpt lat="47.31213" lon="4.90812">
        <ele>358</ele>
        <time>2012-09-16T09:44:11Z</time>
      </trkpt>
      <trkpt lat="47.31198" lon="4.90815">
        <ele>361</ele>
        <time>2012-09-16T09:44:24Z</time>
      </trkpt>
      <trkpt lat="47.31183" lon="4.90815">
        <ele>365</ele>
        <time>2012-09-16T09:44:36Z</time>
      </trkpt>
      <trkpt lat="47.31168" lon="4.9081">
        <ele>366</ele>
        <time>2012-09-16T09:44:45Z</time>
      </trkpt>
      <trkpt lat="47.31155" lon="4.90805">
        <ele>367</ele>
        <time>2012-09-16T09:44:53Z</time>
      </trkpt>
      <trkpt lat="47.31145" lon="4.9079">
        <ele>368</ele>
        <time>2012-09-16T09:45:03Z</time>
      </trkpt>
      <trkpt lat="47.31138" lon="4.90772">
        <ele>369</ele>
        <time>2012-09-16T09:45:14Z</time>
      </trkpt>
      <trkpt lat="47.31133" lon="4.9075">
        <ele>370</ele>
        <time>2012-09-16T09:45:24Z</time>
      </trkpt>
      <trkpt lat="47.31123" lon="4.90727">
        <ele>371</ele>
        <time>2012-09-16T09:45:37Z</time>
      </trkpt>
      <trkpt lat="47.31113" lon="4.90713">
        <ele>372</ele>
        <time>2012-09-16T09:45:45Z</time>
      </trkpt>
      <trkpt lat="47.31098" lon="4.90687">
        <ele>376</ele>
        <time>2012-09-16T09:46:02Z</time>
      </trkpt>
      <trkpt lat="47.31088" lon="4.9067">
        <ele>377</ele>
        <time>2012-09-16T09:46:10Z</time>
      </trkpt>
      <trkpt lat="47.31078" lon="4.90655">
        <ele>379</ele>
        <time>2012-09-16T09:46:18Z</time>
      </trkpt>
      <trkpt lat="47.31065" lon="4.90632">
        <ele>382</ele>
        <time>2012-09-16T09:46:31Z</time>
      </trkpt>
      <trkpt lat="47.31055" lon="4.90617">
        <ele>383</ele>
        <time>2012-09-16T09:46:39Z</time>
      </trkpt>
      <trkpt lat="47.31047" lon="4.906">
        <ele>384</ele>
        <time>2012-09-16T09:46:50Z</time>
      </trkpt>
      <trkpt lat="47.31035" lon="4.90578">
        <ele>386</ele>
        <time>2012-09-16T09:47:02Z</time>
      </trkpt>
      <trkpt lat="47.31023" lon="4.90558">
        <ele>386</ele>
        <time>2012-09-16T09:47:15Z</time>
      </trkpt>
      <trkpt lat="47.31012" lon="4.90537">
        <ele>387</ele>
        <time>2012-09-16T09:47:25Z</time>
      </trkpt>
      <trkpt lat="47.31" lon="4.90513">
        <ele>390</ele>
        <time>2012-09-16T09:47:37Z</time>
      </trkpt>
      <trkpt lat="47.3099" lon="4.90493">
        <ele>392</ele>
        <time>2012-09-16T09:47:48Z</time>
      </trkpt>
      <trkpt lat="47.30973" lon="4.90472">
        <ele>395</ele>
        <time>2012-09-16T09:47:58Z</time>
      </trkpt>
      <trkpt lat="47.30965" lon="4.90452">
        <ele>396</ele>
        <time>2012-09-16T09:48:07Z</time>
      </trkpt>
      <trkpt lat="47.30953" lon="4.9042">
        <ele>396</ele>
        <time>2012-09-16T09:48:19Z</time>
      </trkpt>
      <trkpt lat="47.30945" lon="4.90397">
        <ele>397</ele>
        <time>2012-09-16T09:48:27Z</time>
      </trkpt>
      <trkpt lat="47.3094" lon="4.90375">
        <ele>397</ele>
        <time>2012-09-16T09:48:34Z</time>
      </trkpt>
      <trkpt lat="47.30932" lon="4.90348">
        <ele>398</ele>
        <time>2012-09-16T09:48:42Z</time>
      </trkpt>
      <trkpt lat="47.30927" lon="4.90327">
        <ele>398</ele>
        <time>2012-09-16T09:48:48Z</time>
      </trkpt>
      <trkpt lat="47.30917" lon="4.90307">
        <ele>400</ele>
        <time>2012-09-16T09:48:54Z</time>
      </trkpt>
      <trkpt lat="47.309" lon="4.90303">
        <ele>401</ele>
        <time>2012-09-16T09:49:01Z</time>
      </trkpt>
      <trkpt lat="47.30883" lon="4.90302">
        <ele>402</ele>
        <time>2012-09-16T09:49:07Z</time>
      </trkpt>
      <trkpt lat="47.30867" lon="4.903">
        <ele>404</ele>
        <time>2012-09-16T09:49:13Z</time>
      </trkpt>
      <trkpt lat="47.30837" lon="4.90297">
        <ele>408</ele>
        <time>2012-09-16T09:49:23Z</time>
      </trkpt>
      <trkpt lat="47.30823" lon="4.90305">
        <ele>409</ele>
        <time>2012-09-16T09:49:29Z</time>
      </trkpt>
      <trkpt lat="47.30802" lon="4.9032">
        <ele>411</ele>
        <time>2012-09-16T09:49:38Z</time>
      </trkpt>
      <trkpt lat="47.3079" lon="4.90333">
        <ele>411</ele>
        <time>2012-09-16T09:49:44Z</time>
      </trkpt>
      <trkpt lat="47.30773" lon="4.90347">
        <ele>414</ele>
        <time>2012-09-16T09:49:52Z</time>
      </trkpt>
      <trkpt lat="47.30755" lon="4.90363">
        <ele>419</ele>
        <time>2012-09-16T09:50:01Z</time>
      </trkpt>
      <trkpt lat="47.3074" lon="4.90377">
        <ele>420</ele>
        <time>2012-09-16T09:50:07Z</time>
      </trkpt>
      <trkpt lat="47.30727" lon="4.90385">
        <ele>419</ele>
        <time>2012-09-16T09:50:11Z</time>
      </trkpt>
      <trkpt lat="47.30703" lon="4.90402">
        <ele>418</ele>
        <time>2012-09-16T09:50:17Z</time>
      </trkpt>
      <trkpt lat="47.3067" lon="4.90423">
        <ele>414</ele>
        <time>2012-09-16T09:50:25Z</time>
      </trkpt>
      <trkpt lat="47.3065" lon="4.90438">
        <ele>413</ele>
        <time>2012-09-16T09:50:32Z</time>
      </trkpt>
      <trkpt lat="47.30637" lon="4.90445">
        <ele>413</ele>
        <time>2012-09-16T09:50:36Z</time>
      </trkpt>
      <trkpt lat="47.30605" lon="4.90458">
        <ele>415</ele>
        <time>2012-09-16T09:50:46Z</time>
      </trkpt>
      <trkpt lat="47.30585" lon="4.90467">
        <ele>415</ele>
        <time>2012-09-16T09:50:52Z</time>
      </trkpt>
      <trkpt lat="47.30567" lon="4.90477">
        <ele>416</ele>
        <time>2012-09-16T09:50:59Z</time>
      </trkpt>
      <trkpt lat="47.3055" lon="4.90485">
        <ele>416</ele>
        <time>2012-09-16T09:51:03Z</time>
      </trkpt>
      <trkpt lat="47.3053" lon="4.90492">
        <ele>415</ele>
        <time>2012-09-16T09:51:07Z</time>
      </trkpt>
      <trkpt lat="47.30508" lon="4.90493">
        <ele>415</ele>
        <time>2012-09-16T09:51:11Z</time>
      </trkpt>
      <trkpt lat="47.30492" lon="4.90492">
        <ele>416</ele>
        <time>2012-09-16T09:51:17Z</time>
      </trkpt>
      <trkpt lat="47.30472" lon="4.90488">
        <ele>424</ele>
        <time>2012-09-16T09:51:34Z</time>
      </trkpt>
      <trkpt lat="47.30443" lon="4.90482">
        <ele>428</ele>
        <time>2012-09-16T09:51:51Z</time>
      </trkpt>
      <trkpt lat="47.30427" lon="4.90472">
        <ele>427</ele>
        <time>2012-09-16T09:51:59Z</time>
      </trkpt>
      <trkpt lat="47.30408" lon="4.90465">
        <ele>425</ele>
        <time>2012-09-16T09:52:07Z</time>
      </trkpt>
      <trkpt lat="47.30395" lon="4.90458">
        <ele>424</ele>
        <time>2012-09-16T09:52:14Z</time>
      </trkpt>
      <trkpt lat="47.30382" lon="4.9045">
        <ele>425</ele>
        <time>2012-09-16T09:52:22Z</time>
      </trkpt>
      <trkpt lat="47.30363" lon="4.90442">
        <ele>427</ele>
        <time>2012-09-16T09:52:30Z</time>
      </trkpt>
      <trkpt lat="47.30347" lon="4.90437">
        <ele>428</ele>
        <time>2012-09-16T09:52:39Z</time>
      </trkpt>
      <trkpt lat="47.30328" lon="4.90432">
        <ele>430</ele>
        <time>2012-09-16T09:52:49Z</time>
      </trkpt>
      <trkpt lat="47.30313" lon="4.90428">
        <ele>433</ele>
        <time>2012-09-16T09:52:55Z</time>
      </trkpt>
      <trkpt lat="47.30298" lon="4.90427">
        <ele>434</ele>
        <time>2012-09-16T09:53:02Z</time>
      </trkpt>
      <trkpt lat="47.3028" lon="4.90422">
        <ele>435</ele>
        <time>2012-09-16T09:53:10Z</time>
      </trkpt>
      <trkpt lat="47.30258" lon="4.90418">
        <ele>434</ele>
        <time>2012-09-16T09:53:18Z</time>
      </trkpt>
      <trkpt lat="47.30222" lon="4.9041">
        <ele>434</ele>
        <time>2012-09-16T09:53:29Z</time>
      </trkpt>
      <trkpt lat="47.30208" lon="4.90407">
        <ele>434</ele>
        <time>2012-09-16T09:53:33Z</time>
      </trkpt>
      <trkpt lat="47.30187" lon="4.90405">
        <ele>434</ele>
        <time>2012-09-16T09:53:39Z</time>
      </trkpt>
      <trkpt lat="47.30167" lon="4.90403">
        <ele>437</ele>
        <time>2012-09-16T09:53:43Z</time>
      </trkpt>
      <trkpt lat="47.3015" lon="4.90403">
        <ele>439</ele>
        <time>2012-09-16T09:53:47Z</time>
      </trkpt>
      <trkpt lat="47.30128" lon="4.90403">
        <ele>440</ele>
        <time>2012-09-16T09:53:54Z</time>
      </trkpt>
      <trkpt lat="47.30105" lon="4.90405">
        <ele>442</ele>
        <time>2012-09-16T09:54:00Z</time>
      </trkpt>
      <trkpt lat="47.30078" lon="4.90403">
        <ele>442</ele>
        <time>2012-09-16T09:54:06Z</time>
      </trkpt>
      <trkpt lat="47.30057" lon="4.90405">
        <ele>440</ele>
        <time>2012-09-16T09:54:10Z</time>
      </trkpt>
      <trkpt lat="47.30043" lon="4.90408">
        <ele>439</ele>
        <time>2012-09-16T09:54:14Z</time>
      </trkpt>
      <trkpt lat="47.30005" lon="4.90413">
        <ele>438</ele>
        <time>2012-09-16T09:54:25Z</time>
      </trkpt>
      <trkpt lat="47.2999" lon="4.90418">
        <ele>439</ele>
        <time>2012-09-16T09:54:29Z</time>
      </trkpt>
      <trkpt lat="47.29972" lon="4.90425">
        <ele>439</ele>
        <time>2012-09-16T09:54:33Z</time>
      </trkpt>
      <trkpt lat="47.29957" lon="4.90433">
        <ele>438</ele>
        <time>2012-09-16T09:54:37Z</time>
      </trkpt>
      <trkpt lat="47.29932" lon="4.90448">
        <ele>440</ele>
        <time>2012-09-16T09:54:46Z</time>
      </trkpt>
      <trkpt lat="47.29915" lon="4.90465">
        <ele>441</ele>
        <time>2012-09-16T09:54:52Z</time>
      </trkpt>
      <trkpt lat="47.29902" lon="4.90488">
        <ele>441</ele>
        <time>2012-09-16T09:54:56Z</time>
      </trkpt>
      <trkpt lat="47.29895" lon="4.90518">
        <ele>441</ele>
        <time>2012-09-16T09:55:00Z</time>
      </trkpt>
      <trkpt lat="47.29888" lon="4.90562">
        <ele>442</ele>
        <time>2012-09-16T09:55:05Z</time>
      </trkpt>
      <trkpt lat="47.29887" lon="4.90587">
        <ele>442</ele>
        <time>2012-09-16T09:55:07Z</time>
      </trkpt>
      <trkpt lat="47.29882" lon="4.90657">
        <ele>444</ele>
        <time>2012-09-16T09:55:13Z</time>
      </trkpt>
      <trkpt lat="47.29877" lon="4.9069">
        <ele>445</ele>
        <time>2012-09-16T09:55:18Z</time>
      </trkpt>
      <trkpt lat="47.2987" lon="4.9072">
        <ele>446</ele>
        <time>2012-09-16T09:55:22Z</time>
      </trkpt>
      <trkpt lat="47.29863" lon="4.9076">
        <ele>447</ele>
        <time>2012-09-16T09:55:28Z</time>
      </trkpt>
      <trkpt lat="47.29858" lon="4.90783">
        <ele>449</ele>
        <time>2012-09-16T09:55:32Z</time>
      </trkpt>
      <trkpt lat="47.2985" lon="4.90812">
        <ele>450</ele>
        <time>2012-09-16T09:55:36Z</time>
      </trkpt>
      <trkpt lat="47.29842" lon="4.90837">
        <ele>451</ele>
        <time>2012-09-16T09:55:40Z</time>
      </trkpt>
      <trkpt lat="47.29832" lon="4.90858">
        <ele>451</ele>
        <time>2012-09-16T09:55:45Z</time>
      </trkpt>
      <trkpt lat="47.29818" lon="4.90877">
        <ele>449</ele>
        <time>2012-09-16T09:55:49Z</time>
      </trkpt>
      <trkpt lat="47.29803" lon="4.90887">
        <ele>447</ele>
        <time>2012-09-16T09:55:53Z</time>
      </trkpt>
      <trkpt lat="47.29787" lon="4.90892">
        <ele>444</ele>
        <time>2012-09-16T09:55:59Z</time>
      </trkpt>
      <trkpt lat="47.29772" lon="4.9089">
        <ele>443</ele>
        <time>2012-09-16T09:56:05Z</time>
      </trkpt>
      <trkpt lat="47.29755" lon="4.9089">
        <ele>444</ele>
        <time>2012-09-16T09:56:09Z</time>
      </trkpt>
      <trkpt lat="47.2974" lon="4.90892">
        <ele>445</ele>
        <time>2012-09-16T09:56:15Z</time>
      </trkpt>
      <trkpt lat="47.29723" lon="4.9089">
        <ele>446</ele>
        <time>2012-09-16T09:56:22Z</time>
      </trkpt>
      <trkpt lat="47.29707" lon="4.9089">
        <ele>446</ele>
        <time>2012-09-16T09:56:28Z</time>
      </trkpt>
      <trkpt lat="47.29682" lon="4.90888">
        <ele>445</ele>
        <time>2012-09-16T09:56:36Z</time>
      </trkpt>
      <trkpt lat="47.29658" lon="4.9089">
        <ele>444</ele>
        <time>2012-09-16T09:56:42Z</time>
      </trkpt>
      <trkpt lat="47.29643" lon="4.90888">
        <ele>443</ele>
        <time>2012-09-16T09:56:46Z</time>
      </trkpt>
      <trkpt lat="47.296" lon="4.90887">
        <ele>444</ele>
        <time>2012-09-16T09:56:57Z</time>
      </trkpt>
      <trkpt lat="47.29582" lon="4.90883">
        <ele>444</ele>
        <time>2012-09-16T09:57:01Z</time>
      </trkpt>
      <trkpt lat="47.29543" lon="4.90875">
        <ele>442</ele>
        <time>2012-09-16T09:57:09Z</time>
      </trkpt>
      <trkpt lat="47.29527" lon="4.90872">
        <ele>441</ele>
        <time>2012-09-16T09:57:14Z</time>
      </trkpt>
      <trkpt lat="47.295" lon="4.90865">
        <ele>441</ele>
        <time>2012-09-16T09:57:20Z</time>
      </trkpt>
      <trkpt lat="47.29483" lon="4.90862">
        <ele>441</ele>
        <time>2012-09-16T09:57:24Z</time>
      </trkpt>
      <trkpt lat="47.29467" lon="4.90858">
        <ele>441</ele>
        <time>2012-09-16T09:57:28Z</time>
      </trkpt>
      <trkpt lat="47.29448" lon="4.90853">
        <ele>440</ele>
        <time>2012-09-16T09:57:32Z</time>
      </trkpt>
      <trkpt lat="47.29413" lon="4.90843">
        <ele>441</ele>
        <time>2012-09-16T09:57:38Z</time>
      </trkpt>
      <trkpt lat="47.29397" lon="4.9084">
        <ele>440</ele>
        <time>2012-09-16T09:57:42Z</time>
      </trkpt>
      <trkpt lat="47.29372" lon="4.9083">
        <ele>440</ele>
        <time>2012-09-16T09:57:49Z</time>
      </trkpt>
      <trkpt lat="47.29342" lon="4.9082">
        <ele>440</ele>
        <time>2012-09-16T09:57:57Z</time>
      </trkpt>
      <trkpt lat="47.29318" lon="4.90812">
        <ele>443</ele>
        <time>2012-09-16T09:58:01Z</time>
      </trkpt>
      <trkpt lat="47.2929" lon="4.90803">
        <ele>443</ele>
        <time>2012-09-16T09:58:07Z</time>
      </trkpt>
      <trkpt lat="47.2927" lon="4.90798">
        <ele>443</ele>
        <time>2012-09-16T09:58:12Z</time>
      </trkpt>
      <trkpt lat="47.29237" lon="4.90787">
        <ele>444</ele>
        <time>2012-09-16T09:58:18Z</time>
      </trkpt>
      <trkpt lat="47.29203" lon="4.90773">
        <ele>445</ele>
        <time>2012-09-16T09:58:24Z</time>
      </trkpt>
      <trkpt lat="47.29182" lon="4.90765">
        <ele>445</ele>
        <time>2012-09-16T09:58:28Z</time>
      </trkpt>
      <trkpt lat="47.29152" lon="4.90752">
        <ele>446</ele>
        <time>2012-09-16T09:58:37Z</time>
      </trkpt>
      <trkpt lat="47.29108" lon="4.90733">
        <ele>448</ele>
        <time>2012-09-16T09:58:47Z</time>
      </trkpt>
      <trkpt lat="47.29087" lon="4.90727">
        <ele>448</ele>
        <time>2012-09-16T09:58:51Z</time>
      </trkpt>
      <trkpt lat="47.2907" lon="4.90723">
        <ele>448</ele>
        <time>2012-09-16T09:58:55Z</time>
      </trkpt>
      <trkpt lat="47.29028" lon="4.90712">
        <ele>447</ele>
        <time>2012-09-16T09:59:04Z</time>
      </trkpt>
      <trkpt lat="47.29005" lon="4.90705">
        <ele>446</ele>
        <time>2012-09-16T09:59:08Z</time>
      </trkpt>
      <trkpt lat="47.28987" lon="4.90698">
        <ele>445</ele>
        <time>2012-09-16T09:59:12Z</time>
      </trkpt>
      <trkpt lat="47.28967" lon="4.90692">
        <ele>444</ele>
        <time>2012-09-16T09:59:16Z</time>
      </trkpt>
      <trkpt lat="47.28947" lon="4.90682">
        <ele>445</ele>
        <time>2012-09-16T09:59:20Z</time>
      </trkpt>
      <trkpt lat="47.2893" lon="4.90668">
        <ele>446</ele>
        <time>2012-09-16T09:59:25Z</time>
      </trkpt>
      <trkpt lat="47.2891" lon="4.90657">
        <ele>447</ele>
        <time>2012-09-16T09:59:29Z</time>
      </trkpt>
      <trkpt lat="47.2889" lon="4.90645">
        <ele>445</ele>
        <time>2012-09-16T09:59:33Z</time>
      </trkpt>
      <trkpt lat="47.28872" lon="4.90638">
        <ele>446</ele>
        <time>2012-09-16T09:59:37Z</time>
      </trkpt>
      <trkpt lat="47.28853" lon="4.90633">
        <ele>446</ele>
        <time>2012-09-16T09:59:41Z</time>
      </trkpt>
      <trkpt lat="47.28828" lon="4.90618">
        <ele>445</ele>
        <time>2012-09-16T09:59:48Z</time>
      </trkpt>
      <trkpt lat="47.28802" lon="4.90603">
        <ele>441</ele>
        <time>2012-09-16T09:59:54Z</time>
      </trkpt>
      <trkpt lat="47.28782" lon="4.90597">
        <ele>440</ele>
        <time>2012-09-16T09:59:58Z</time>
      </trkpt>
      <trkpt lat="47.28762" lon="4.90592">
        <ele>439</ele>
        <time>2012-09-16T10:00:02Z</time>
      </trkpt>
      <trkpt lat="47.28735" lon="4.90583">
        <ele>436</ele>
        <time>2012-09-16T10:00:06Z</time>
      </trkpt>
      <trkpt lat="47.28675" lon="4.90565">
        <ele>436</ele>
        <time>2012-09-16T10:00:17Z</time>
      </trkpt>
      <trkpt lat="47.28643" lon="4.90552">
        <ele>437</ele>
        <time>2012-09-16T10:00:23Z</time>
      </trkpt>
      <trkpt lat="47.28607" lon="4.90538">
        <ele>437</ele>
        <time>2012-09-16T10:00:29Z</time>
      </trkpt>
      <trkpt lat="47.28567" lon="4.90522">
        <ele>437</ele>
        <time>2012-09-16T10:00:38Z</time>
      </trkpt>
      <trkpt lat="47.28547" lon="4.90513">
        <ele>436</ele>
        <time>2012-09-16T10:00:42Z</time>
      </trkpt>
      <trkpt lat="47.28502" lon="4.90497">
        <ele>437</ele>
        <time>2012-09-16T10:00:50Z</time>
      </trkpt>
      <trkpt lat="47.2848" lon="4.9049">
        <ele>440</ele>
        <time>2012-09-16T10:00:54Z</time>
      </trkpt>
      <trkpt lat="47.28452" lon="4.90477">
        <ele>441</ele>
        <time>2012-09-16T10:01:01Z</time>
      </trkpt>
      <trkpt lat="47.28422" lon="4.90465">
        <ele>441</ele>
        <time>2012-09-16T10:01:07Z</time>
      </trkpt>
      <trkpt lat="47.28393" lon="4.90453">
        <ele>440</ele>
        <time>2012-09-16T10:01:13Z</time>
      </trkpt>
      <trkpt lat="47.28378" lon="4.90448">
        <ele>441</ele>
        <time>2012-09-16T10:01:15Z</time>
      </trkpt>
      <trkpt lat="47.28312" lon="4.90428">
        <ele>437</ele>
        <time>2012-09-16T10:01:26Z</time>
      </trkpt>
      <trkpt lat="47.28267" lon="4.90412">
        <ele>434</ele>
        <time>2012-09-16T10:01:32Z</time>
      </trkpt>
      <trkpt lat="47.2824" lon="4.90397">
        <ele>431</ele>
        <time>2012-09-16T10:01:36Z</time>
      </trkpt>
      <trkpt lat="47.28218" lon="4.90383">
        <ele>431</ele>
        <time>2012-09-16T10:01:40Z</time>
      </trkpt>
      <trkpt lat="47.28198" lon="4.9037">
        <ele>432</ele>
        <time>2012-09-16T10:01:45Z</time>
      </trkpt>
      <trkpt lat="47.28162" lon="4.9034">
        <ele>432</ele>
        <time>2012-09-16T10:01:53Z</time>
      </trkpt>
      <trkpt lat="47.2814" lon="4.90325">
        <ele>431</ele>
        <time>2012-09-16T10:01:57Z</time>
      </trkpt>
      <trkpt lat="47.28112" lon="4.90305">
        <ele>430</ele>
        <time>2012-09-16T10:02:06Z</time>
      </trkpt>
      <trkpt lat="47.28098" lon="4.90297">
        <ele>430</ele>
        <time>2012-09-16T10:02:10Z</time>
      </trkpt>
      <trkpt lat="47.28075" lon="4.90278">
        <ele>428</ele>
        <time>2012-09-16T10:02:18Z</time>
      </trkpt>
      <trkpt lat="47.28033" lon="4.90243">
        <ele>431</ele>
        <time>2012-09-16T10:02:35Z</time>
      </trkpt>
      <trkpt lat="47.28017" lon="4.90227">
        <ele>433</ele>
        <time>2012-09-16T10:02:41Z</time>
      </trkpt>
      <trkpt lat="47.28005" lon="4.90212">
        <ele>433</ele>
        <time>2012-09-16T10:02:48Z</time>
      </trkpt>
      <trkpt lat="47.27995" lon="4.90198">
        <ele>434</ele>
        <time>2012-09-16T10:02:54Z</time>
      </trkpt>
      <trkpt lat="47.27972" lon="4.90173">
        <ele>436</ele>
        <time>2012-09-16T10:03:02Z</time>
      </trkpt>
      <trkpt lat="47.27958" lon="4.90158">
        <ele>437</ele>
        <time>2012-09-16T10:03:06Z</time>
      </trkpt>
      <trkpt lat="47.27945" lon="4.90148">
        <ele>437</ele>
        <time>2012-09-16T10:03:11Z</time>
      </trkpt>
      <trkpt lat="47.27933" lon="4.90138">
        <ele>437</ele>
        <time>2012-09-16T10:03:15Z</time>
      </trkpt>
      <trkpt lat="47.27915" lon="4.90122">
        <ele>437</ele>
        <time>2012-09-16T10:03:21Z</time>
      </trkpt>
      <trkpt lat="47.27852" lon="4.90063">
        <ele>434</ele>
        <time>2012-09-16T10:03:38Z</time>
      </trkpt>
      <trkpt lat="47.2783" lon="4.90042">
        <ele>434</ele>
        <time>2012-09-16T10:03:44Z</time>
      </trkpt>
      <trkpt lat="47.2781" lon="4.90035">
        <ele>435</ele>
        <time>2012-09-16T10:03:48Z</time>
      </trkpt>
      <trkpt lat="47.27797" lon="4.9004">
        <ele>437</ele>
        <time>2012-09-16T10:03:52Z</time>
      </trkpt>
      <trkpt lat="47.27785" lon="4.9005">
        <ele>438</ele>
        <time>2012-09-16T10:03:57Z</time>
      </trkpt>
      <trkpt lat="47.27768" lon="4.9006">
        <ele>439</ele>
        <time>2012-09-16T10:04:03Z</time>
      </trkpt>
      <trkpt lat="47.27753" lon="4.90065">
        <ele>439</ele>
        <time>2012-09-16T10:04:09Z</time>
      </trkpt>
      <trkpt lat="47.27742" lon="4.90055">
        <ele>439</ele>
        <time>2012-09-16T10:04:15Z</time>
      </trkpt>
      <trkpt lat="47.2773" lon="4.90043">
        <ele>439</ele>
        <time>2012-09-16T10:04:24Z</time>
      </trkpt>
      <trkpt lat="47.27703" lon="4.9002">
        <ele>444</ele>
        <time>2012-09-16T10:04:41Z</time>
      </trkpt>
      <trkpt lat="47.2769" lon="4.9001">
        <ele>445</ele>
        <time>2012-09-16T10:04:49Z</time>
      </trkpt>
      <trkpt lat="47.27675" lon="4.9">
        <ele>446</ele>
        <time>2012-09-16T10:04:57Z</time>
      </trkpt>
      <trkpt lat="47.27658" lon="4.89988">
        <ele>445</ele>
        <time>2012-09-16T10:05:06Z</time>
      </trkpt>
      <trkpt lat="47.27642" lon="4.89977">
        <ele>446</ele>
        <time>2012-09-16T10:05:14Z</time>
      </trkpt>
      <trkpt lat="47.27618" lon="4.89958">
        <ele>446</ele>
        <time>2012-09-16T10:05:24Z</time>
      </trkpt>
      <trkpt lat="47.27602" lon="4.89945">
        <ele>446</ele>
        <time>2012-09-16T10:05:33Z</time>
      </trkpt>
      <trkpt lat="47.27582" lon="4.8993">
        <ele>447</ele>
        <time>2012-09-16T10:05:41Z</time>
      </trkpt>
      <trkpt lat="47.27557" lon="4.89912">
        <ele>449</ele>
        <time>2012-09-16T10:05:54Z</time>
      </trkpt>
      <trkpt lat="47.27543" lon="4.899">
        <ele>452</ele>
        <time>2012-09-16T10:06:02Z</time>
      </trkpt>
      <trkpt lat="47.27532" lon="4.8989">
        <ele>455</ele>
        <time>2012-09-16T10:06:08Z</time>
      </trkpt>
      <trkpt lat="47.27518" lon="4.89883">
        <ele>463</ele>
        <time>2012-09-16T10:06:40Z</time>
      </trkpt>
      <trkpt lat="47.2753" lon="4.89903">
        <ele>459</ele>
        <time>2012-09-16T10:06:57Z</time>
      </trkpt>
      <trkpt lat="47.27533" lon="4.89923">
        <ele>457</ele>
        <time>2012-09-16T10:07:03Z</time>
      </trkpt>
      <trkpt lat="47.27537" lon="4.89945">
        <ele>453</ele>
        <time>2012-09-16T10:07:09Z</time>
      </trkpt>
      <trkpt lat="47.27538" lon="4.89967">
        <ele>445</ele>
        <time>2012-09-16T10:07:18Z</time>
      </trkpt>
      <trkpt lat="47.27547" lon="4.89993">
        <ele>439</ele>
        <time>2012-09-16T10:07:24Z</time>
      </trkpt>
      <trkpt lat="47.27552" lon="4.90027">
        <ele>427</ele>
        <time>2012-09-16T10:07:32Z</time>
      </trkpt>
      <trkpt lat="47.2756" lon="4.9005">
        <ele>422</ele>
        <time>2012-09-16T10:07:38Z</time>
      </trkpt>
      <trkpt lat="47.27568" lon="4.9007">
        <ele>420</ele>
        <time>2012-09-16T10:07:43Z</time>
      </trkpt>
      <trkpt lat="47.27573" lon="4.90093">
        <ele>419</ele>
        <time>2012-09-16T10:07:49Z</time>
      </trkpt>
      <trkpt lat="47.27583" lon="4.90123">
        <ele>420</ele>
        <time>2012-09-16T10:07:55Z</time>
      </trkpt>
      <trkpt lat="47.27592" lon="4.90145">
        <ele>417</ele>
        <time>2012-09-16T10:07:59Z</time>
      </trkpt>
      <trkpt lat="47.27597" lon="4.90167">
        <ele>412</ele>
        <time>2012-09-16T10:08:03Z</time>
      </trkpt>
      <trkpt lat="47.27598" lon="4.90192">
        <ele>412</ele>
        <time>2012-09-16T10:08:10Z</time>
      </trkpt>
      <trkpt lat="47.276" lon="4.90212">
        <ele>404</ele>
        <time>2012-09-16T10:08:16Z</time>
      </trkpt>
      <trkpt lat="47.27613" lon="4.90245">
        <ele>384</ele>
        <time>2012-09-16T10:08:20Z</time>
      </trkpt>
      <trkpt lat="47.27635" lon="4.90297">
        <ele>378</ele>
        <time>2012-09-16T10:08:29Z</time>
      </trkpt>
      <trkpt lat="47.27642" lon="4.90327">
        <ele>378</ele>
        <time>2012-09-16T10:08:33Z</time>
      </trkpt>
      <trkpt lat="47.2765" lon="4.90355">
        <ele>380</ele>
        <time>2012-09-16T10:08:37Z</time>
      </trkpt>
      <trkpt lat="47.2766" lon="4.90397">
        <ele>382</ele>
        <time>2012-09-16T10:08:43Z</time>
      </trkpt>
      <trkpt lat="47.2766" lon="4.90417">
        <ele>382</ele>
        <time>2012-09-16T10:08:47Z</time>
      </trkpt>
      <trkpt lat="47.27667" lon="4.90437">
        <ele>386</ele>
        <time>2012-09-16T10:08:52Z</time>
      </trkpt>
      <trkpt lat="47.27672" lon="4.90457">
        <ele>397</ele>
        <time>2012-09-16T10:09:00Z</time>
      </trkpt>
      <trkpt lat="47.27678" lon="4.90477">
        <ele>406</ele>
        <time>2012-09-16T10:09:48Z</time>
      </trkpt>
      <trkpt lat="47.2769" lon="4.90488">
        <ele>400</ele>
        <time>2012-09-16T10:09:52Z</time>
      </trkpt>
      <trkpt lat="47.27708" lon="4.9049">
        <ele>393</ele>
        <time>2012-09-16T10:09:56Z</time>
      </trkpt>
      <trkpt lat="47.27723" lon="4.90487">
        <ele>389</ele>
        <time>2012-09-16T10:10:00Z</time>
      </trkpt>
      <trkpt lat="47.27738" lon="4.90482">
        <ele>383</ele>
        <time>2012-09-16T10:10:05Z</time>
      </trkpt>
      <trkpt lat="47.27757" lon="4.9047">
        <ele>379</ele>
        <time>2012-09-16T10:10:11Z</time>
      </trkpt>
      <trkpt lat="47.27772" lon="4.90462">
        <ele>378</ele>
        <time>2012-09-16T10:10:15Z</time>
      </trkpt>
      <trkpt lat="47.27793" lon="4.90455">
        <ele>370</ele>
        <time>2012-09-16T10:10:19Z</time>
      </trkpt>
      <trkpt lat="47.27808" lon="4.90453">
        <ele>371</ele>
        <time>2012-09-16T10:10:21Z</time>
      </trkpt>
      <trkpt lat="47.27828" lon="4.90462">
        <ele>375</ele>
        <time>2012-09-16T10:10:25Z</time>
      </trkpt>
      <trkpt lat="47.2785" lon="4.90475">
        <ele>375</ele>
        <time>2012-09-16T10:10:30Z</time>
      </trkpt>
      <trkpt lat="47.2787" lon="4.90487">
        <ele>380</ele>
        <time>2012-09-16T10:10:34Z</time>
      </trkpt>
      <trkpt lat="47.2789" lon="4.90487">
        <ele>386</ele>
        <time>2012-09-16T10:10:38Z</time>
      </trkpt>
      <trkpt lat="47.27905" lon="4.90488">
        <ele>388</ele>
        <time>2012-09-16T10:10:42Z</time>
      </trkpt>
      <trkpt lat="47.2794" lon="4.90497">
        <ele>393</ele>
        <time>2012-09-16T10:10:48Z</time>
      </trkpt>
      <trkpt lat="47.27958" lon="4.90508">
        <ele>398</ele>
        <time>2012-09-16T10:10:53Z</time>
      </trkpt>
      <trkpt lat="47.27982" lon="4.90515">
        <ele>404</ele>
        <time>2012-09-16T10:10:57Z</time>
      </trkpt>
      <trkpt lat="47.28002" lon="4.90522">
        <ele>405</ele>
        <time>2012-09-16T10:11:01Z</time>
      </trkpt>
      <trkpt lat="47.28017" lon="4.90528">
        <ele>404</ele>
        <time>2012-09-16T10:11:05Z</time>
      </trkpt>
      <trkpt lat="47.28042" lon="4.90532">
        <ele>396</ele>
        <time>2012-09-16T10:11:09Z</time>
      </trkpt>
      <trkpt lat="47.28055" lon="4.90538">
        <ele>387</ele>
        <time>2012-09-16T10:11:13Z</time>
      </trkpt>
      <trkpt lat="47.28073" lon="4.90547">
        <ele>385</ele>
        <time>2012-09-16T10:11:22Z</time>
      </trkpt>
      <trkpt lat="47.28088" lon="4.90553">
        <ele>381</ele>
        <time>2012-09-16T10:11:26Z</time>
      </trkpt>
      <trkpt lat="47.28105" lon="4.9056">
        <ele>378</ele>
        <time>2012-09-16T10:11:30Z</time>
      </trkpt>
      <trkpt lat="47.28127" lon="4.90575">
        <ele>376</ele>
        <time>2012-09-16T10:11:34Z</time>
      </trkpt>
      <trkpt lat="47.2815" lon="4.90593">
        <ele>375</ele>
        <time>2012-09-16T10:11:41Z</time>
      </trkpt>
      <trkpt lat="47.28187" lon="4.90625">
        <ele>371</ele>
        <time>2012-09-16T10:11:49Z</time>
      </trkpt>
      <trkpt lat="47.28205" lon="4.90638">
        <ele>371</ele>
        <time>2012-09-16T10:11:53Z</time>
      </trkpt>
      <trkpt lat="47.28222" lon="4.90652">
        <ele>369</ele>
        <time>2012-09-16T10:11:55Z</time>
      </trkpt>
      <trkpt lat="47.28242" lon="4.9067">
        <ele>368</ele>
        <time>2012-09-16T10:11:59Z</time>
      </trkpt>
      <trkpt lat="47.28258" lon="4.90692">
        <ele>366</ele>
        <time>2012-09-16T10:12:04Z</time>
      </trkpt>
      <trkpt lat="47.2828" lon="4.90713">
        <ele>365</ele>
        <time>2012-09-16T10:12:08Z</time>
      </trkpt>
      <trkpt lat="47.283" lon="4.9073">
        <ele>370</ele>
        <time>2012-09-16T10:12:12Z</time>
      </trkpt>
      <trkpt lat="47.28343" lon="4.90768">
        <ele>374</ele>
        <time>2012-09-16T10:12:22Z</time>
      </trkpt>
      <trkpt lat="47.28362" lon="4.90782">
        <ele>372</ele>
        <time>2012-09-16T10:12:27Z</time>
      </trkpt>
      <trkpt lat="47.28385" lon="4.90798">
        <ele>375</ele>
        <time>2012-09-16T10:12:33Z</time>
      </trkpt>
      <trkpt lat="47.28407" lon="4.90812">
        <ele>373</ele>
        <time>2012-09-16T10:12:37Z</time>
      </trkpt>
      <trkpt lat="47.28433" lon="4.90823">
        <ele>372</ele>
        <time>2012-09-16T10:12:41Z</time>
      </trkpt>
      <trkpt lat="47.2848" lon="4.90842">
        <ele>368</ele>
        <time>2012-09-16T10:12:47Z</time>
      </trkpt>
      <trkpt lat="47.285" lon="4.90842">
        <ele>370</ele>
        <time>2012-09-16T10:12:52Z</time>
      </trkpt>
      <trkpt lat="47.28525" lon="4.90847">
        <ele>371</ele>
        <time>2012-09-16T10:12:56Z</time>
      </trkpt>
      <trkpt lat="47.28553" lon="4.90857">
        <ele>368</ele>
        <time>2012-09-16T10:13:00Z</time>
      </trkpt>
      <trkpt lat="47.28577" lon="4.9087">
        <ele>365</ele>
        <time>2012-09-16T10:13:04Z</time>
      </trkpt>
      <trkpt lat="47.28593" lon="4.9088">
        <ele>366</ele>
        <time>2012-09-16T10:13:06Z</time>
      </trkpt>
      <trkpt lat="47.28632" lon="4.90898">
        <ele>362</ele>
        <time>2012-09-16T10:13:12Z</time>
      </trkpt>
      <trkpt lat="47.2865" lon="4.90913">
        <ele>360</ele>
        <time>2012-09-16T10:13:17Z</time>
      </trkpt>
      <trkpt lat="47.28668" lon="4.90932">
        <ele>357</ele>
        <time>2012-09-16T10:13:21Z</time>
      </trkpt>
      <trkpt lat="47.28678" lon="4.90945">
        <ele>356</ele>
        <time>2012-09-16T10:13:23Z</time>
      </trkpt>
      <trkpt lat="47.28698" lon="4.9096">
        <ele>356</ele>
        <time>2012-09-16T10:13:27Z</time>
      </trkpt>
      <trkpt lat="47.2873" lon="4.90983">
        <ele>358</ele>
        <time>2012-09-16T10:13:33Z</time>
      </trkpt>
      <trkpt lat="47.28752" lon="4.91">
        <ele>359</ele>
        <time>2012-09-16T10:13:37Z</time>
      </trkpt>
      <trkpt lat="47.28768" lon="4.91015">
        <ele>361</ele>
        <time>2012-09-16T10:13:42Z</time>
      </trkpt>
      <trkpt lat="47.28792" lon="4.91035">
        <ele>361</ele>
        <time>2012-09-16T10:13:46Z</time>
      </trkpt>
      <trkpt lat="47.28803" lon="4.91047">
        <ele>360</ele>
        <time>2012-09-16T10:13:48Z</time>
      </trkpt>
      <trkpt lat="47.28823" lon="4.91067">
        <ele>359</ele>
        <time>2012-09-16T10:13:52Z</time>
      </trkpt>
      <trkpt lat="47.2885" lon="4.9109">
        <ele>360</ele>
        <time>2012-09-16T10:13:56Z</time>
      </trkpt>
      <trkpt lat="47.28882" lon="4.91115">
        <ele>360</ele>
        <time>2012-09-16T10:14:02Z</time>
      </trkpt>
      <trkpt lat="47.28895" lon="4.9112">
        <ele>359</ele>
        <time>2012-09-16T10:14:05Z</time>
      </trkpt>
      <trkpt lat="47.28917" lon="4.91127">
        <ele>357</ele>
        <time>2012-09-16T10:14:09Z</time>
      </trkpt>
      <trkpt lat="47.28932" lon="4.91122">
        <ele>366</ele>
        <time>2012-09-16T10:14:15Z</time>
      </trkpt>
      <trkpt lat="47.28955" lon="4.91115">
        <ele>366</ele>
        <time>2012-09-16T10:14:21Z</time>
      </trkpt>
      <trkpt lat="47.28973" lon="4.91117">
        <ele>370</ele>
        <time>2012-09-16T10:14:25Z</time>
      </trkpt>
      <trkpt lat="47.28992" lon="4.91117">
        <ele>381</ele>
        <time>2012-09-16T10:14:32Z</time>
      </trkpt>
      <trkpt lat="47.29012" lon="4.91123">
        <ele>377</ele>
        <time>2012-09-16T10:14:36Z</time>
      </trkpt>
      <trkpt lat="47.2903" lon="4.91128">
        <ele>373</ele>
        <time>2012-09-16T10:14:40Z</time>
      </trkpt>
      <trkpt lat="47.29048" lon="4.91132">
        <ele>369</ele>
        <time>2012-09-16T10:14:44Z</time>
      </trkpt>
      <trkpt lat="47.29072" lon="4.91132">
        <ele>370</ele>
        <time>2012-09-16T10:14:53Z</time>
      </trkpt>
      <trkpt lat="47.29105" lon="4.91133">
        <ele>365</ele>
        <time>2012-09-16T10:15:05Z</time>
      </trkpt>
      <trkpt lat="47.29118" lon="4.91138">
        <ele>364</ele>
        <time>2012-09-16T10:15:16Z</time>
      </trkpt>
      <trkpt lat="47.29132" lon="4.91145">
        <ele>364</ele>
        <time>2012-09-16T10:15:26Z</time>
      </trkpt>
      <trkpt lat="47.29148" lon="4.91152">
        <ele>361</ele>
        <time>2012-09-16T10:15:39Z</time>
      </trkpt>
      <trkpt lat="47.29165" lon="4.91163">
        <ele>357</ele>
        <time>2012-09-16T10:15:47Z</time>
      </trkpt>
      <trkpt lat="47.29182" lon="4.91168">
        <ele>357</ele>
        <time>2012-09-16T10:15:51Z</time>
      </trkpt>
      <trkpt lat="47.29198" lon="4.91178">
        <ele>352</ele>
        <time>2012-09-16T10:15:55Z</time>
      </trkpt>
      <trkpt lat="47.29223" lon="4.9119">
        <ele>348</ele>
        <time>2012-09-16T10:16:02Z</time>
      </trkpt>
      <trkpt lat="47.2924" lon="4.91195">
        <ele>348</ele>
        <time>2012-09-16T10:16:06Z</time>
      </trkpt>
      <trkpt lat="47.29255" lon="4.912">
        <ele>346</ele>
        <time>2012-09-16T10:16:12Z</time>
      </trkpt>
      <trkpt lat="47.29292" lon="4.9121">
        <ele>351</ele>
        <time>2012-09-16T10:16:29Z</time>
      </trkpt>
      <trkpt lat="47.29305" lon="4.91217">
        <ele>352</ele>
        <time>2012-09-16T10:16:39Z</time>
      </trkpt>
      <trkpt lat="47.2932" lon="4.91223">
        <ele>349</ele>
        <time>2012-09-16T10:16:52Z</time>
      </trkpt>
      <trkpt lat="47.29345" lon="4.91228">
        <ele>346</ele>
        <time>2012-09-16T10:17:04Z</time>
      </trkpt>
      <trkpt lat="47.2936" lon="4.91237">
        <ele>348</ele>
        <time>2012-09-16T10:17:25Z</time>
      </trkpt>
      <trkpt lat="47.29375" lon="4.9124">
        <ele>347</ele>
        <time>2012-09-16T10:17:42Z</time>
      </trkpt>
      <trkpt lat="47.29388" lon="4.91247">
        <ele>349</ele>
        <time>2012-09-16T10:17:48Z</time>
      </trkpt>
      <trkpt lat="47.29405" lon="4.91252">
        <ele>348</ele>
        <time>2012-09-16T10:17:52Z</time>
      </trkpt>
      <trkpt lat="47.29418" lon="4.91257">
        <ele>349</ele>
        <time>2012-09-16T10:17:56Z</time>
      </trkpt>
      <trkpt lat="47.29443" lon="4.91263">
        <ele>351</ele>
        <time>2012-09-16T10:18:03Z</time>
      </trkpt>
      <trkpt lat="47.29475" lon="4.91267">
        <ele>352</ele>
        <time>2012-09-16T10:18:09Z</time>
      </trkpt>
      <trkpt lat="47.29497" lon="4.91268">
        <ele>351</ele>
        <time>2012-09-16T10:18:13Z</time>
      </trkpt>
      <trkpt lat="47.29522" lon="4.91273">
        <ele>353</ele>
        <time>2012-09-16T10:18:17Z</time>
      </trkpt>
      <trkpt lat="47.29555" lon="4.91285">
        <ele>350</ele>
        <time>2012-09-16T10:18:24Z</time>
      </trkpt>
      <trkpt lat="47.2957" lon="4.91293">
        <ele>348</ele>
        <time>2012-09-16T10:18:28Z</time>
      </trkpt>
      <trkpt lat="47.29585" lon="4.91297">
        <ele>347</ele>
        <time>2012-09-16T10:18:32Z</time>
      </trkpt>
      <trkpt lat="47.29618" lon="4.91303">
        <ele>342</ele>
        <time>2012-09-16T10:18:38Z</time>
      </trkpt>
      <trkpt lat="47.29633" lon="4.91317">
        <ele>341</ele>
        <time>2012-09-16T10:18:42Z</time>
      </trkpt>
      <trkpt lat="47.29647" lon="4.91328">
        <ele>340</ele>
        <time>2012-09-16T10:18:47Z</time>
      </trkpt>
      <trkpt lat="47.29663" lon="4.91328">
        <ele>339</ele>
        <time>2012-09-16T10:18:53Z</time>
      </trkpt>
      <trkpt lat="47.29678" lon="4.91335">
        <ele>341</ele>
        <time>2012-09-16T10:18:57Z</time>
      </trkpt>
      <trkpt lat="47.2971" lon="4.91352">
        <ele>337</ele>
        <time>2012-09-16T10:19:01Z</time>
      </trkpt>
      <trkpt lat="47.29732" lon="4.9137">
        <ele>334</ele>
        <time>2012-09-16T10:19:06Z</time>
      </trkpt>
      <trkpt lat="47.29757" lon="4.91387">
        <ele>331</ele>
        <time>2012-09-16T10:19:10Z</time>
      </trkpt>
      <trkpt lat="47.29778" lon="4.91405">
        <ele>329</ele>
        <time>2012-09-16T10:19:14Z</time>
      </trkpt>
      <trkpt lat="47.29798" lon="4.91418">
        <ele>332</ele>
        <time>2012-09-16T10:19:18Z</time>
      </trkpt>
      <trkpt lat="47.2982" lon="4.91428">
        <ele>334</ele>
        <time>2012-09-16T10:19:22Z</time>
      </trkpt>
      <trkpt lat="47.29842" lon="4.91437">
        <ele>333</ele>
        <time>2012-09-16T10:19:26Z</time>
      </trkpt>
      <trkpt lat="47.29862" lon="4.91443">
        <ele>330</ele>
        <time>2012-09-16T10:19:31Z</time>
      </trkpt>
      <trkpt lat="47.29913" lon="4.91462">
        <ele>324</ele>
        <time>2012-09-16T10:19:41Z</time>
      </trkpt>
      <trkpt lat="47.29937" lon="4.91477">
        <ele>325</ele>
        <time>2012-09-16T10:19:45Z</time>
      </trkpt>
      <trkpt lat="47.29952" lon="4.91485">
        <ele>324</ele>
        <time>2012-09-16T10:19:50Z</time>
      </trkpt>
      <trkpt lat="47.29965" lon="4.91493">
        <ele>323</ele>
        <time>2012-09-16T10:19:54Z</time>
      </trkpt>
      <trkpt lat="47.2998" lon="4.91503">
        <ele>326</ele>
        <time>2012-09-16T10:19:58Z</time>
      </trkpt>
      <trkpt lat="47.30002" lon="4.91512">
        <ele>334</ele>
        <time>2012-09-16T10:20:04Z</time>
      </trkpt>
      <trkpt lat="47.3004" lon="4.91523">
        <ele>333</ele>
        <time>2012-09-16T10:20:13Z</time>
      </trkpt>
      <trkpt lat="47.30053" lon="4.91532">
        <ele>330</ele>
        <time>2012-09-16T10:20:17Z</time>
      </trkpt>
      <trkpt lat="47.30073" lon="4.91537">
        <ele>329</ele>
        <time>2012-09-16T10:20:23Z</time>
      </trkpt>
      <trkpt lat="47.3009" lon="4.91537">
        <ele>330</ele>
        <time>2012-09-16T10:20:27Z</time>
      </trkpt>
      <trkpt lat="47.30107" lon="4.91543">
        <ele>333</ele>
        <time>2012-09-16T10:20:33Z</time>
      </trkpt>
      <trkpt lat="47.30122" lon="4.91547">
        <ele>333</ele>
        <time>2012-09-16T10:20:38Z</time>
      </trkpt>
      <trkpt lat="47.30138" lon="4.91547">
        <ele>334</ele>
        <time>2012-09-16T10:20:46Z</time>
      </trkpt>
      <trkpt lat="47.30155" lon="4.91545">
        <ele>332</ele>
        <time>2012-09-16T10:20:52Z</time>
      </trkpt>
      <trkpt lat="47.3017" lon="4.91545">
        <ele>332</ele>
        <time>2012-09-16T10:20:59Z</time>
      </trkpt>
      <trkpt lat="47.3019" lon="4.91545">
        <ele>333</ele>
        <time>2012-09-16T10:21:05Z</time>
      </trkpt>
      <trkpt lat="47.30207" lon="4.91547">
        <ele>341</ele>
        <time>2012-09-16T10:21:11Z</time>
      </trkpt>
      <trkpt lat="47.30222" lon="4.91545">
        <ele>346</ele>
        <time>2012-09-16T10:21:15Z</time>
      </trkpt>
      <trkpt lat="47.3024" lon="4.91542">
        <ele>347</ele>
        <time>2012-09-16T10:21:24Z</time>
      </trkpt>
      <trkpt lat="47.30253" lon="4.91537">
        <ele>344</ele>
        <time>2012-09-16T10:21:28Z</time>
      </trkpt>
      <trkpt lat="47.30277" lon="4.91528">
        <ele>343</ele>
        <time>2012-09-16T10:21:34Z</time>
      </trkpt>
      <trkpt lat="47.30293" lon="4.91525">
        <ele>336</ele>
        <time>2012-09-16T10:21:38Z</time>
      </trkpt>
      <trkpt lat="47.30312" lon="4.91522">
        <ele>334</ele>
        <time>2012-09-16T10:21:43Z</time>
      </trkpt>
      <trkpt lat="47.3033" lon="4.91518">
        <ele>330</ele>
        <time>2012-09-16T10:21:47Z</time>
      </trkpt>
      <trkpt lat="47.30347" lon="4.91515">
        <ele>325</ele>
        <time>2012-09-16T10:21:51Z</time>
      </trkpt>
      <trkpt lat="47.30362" lon="4.9151">
        <ele>321</ele>
        <time>2012-09-16T10:21:55Z</time>
      </trkpt>
      <trkpt lat="47.30377" lon="4.91502">
        <ele>322</ele>
        <time>2012-09-16T10:21:59Z</time>
      </trkpt>
      <trkpt lat="47.30392" lon="4.915">
        <ele>320</ele>
        <time>2012-09-16T10:22:03Z</time>
      </trkpt>
      <trkpt lat="47.3041" lon="4.9149">
        <ele>321</ele>
        <time>2012-09-16T10:22:22Z</time>
      </trkpt>
      <trkpt lat="47.30428" lon="4.91487">
        <ele>320</ele>
        <time>2012-09-16T10:22:26Z</time>
      </trkpt>
      <trkpt lat="47.30463" lon="4.91477">
        <ele>320</ele>
        <time>2012-09-16T10:22:35Z</time>
      </trkpt>
      <trkpt lat="47.30482" lon="4.91475">
        <ele>315</ele>
        <time>2012-09-16T10:22:41Z</time>
      </trkpt>
      <trkpt lat="47.30498" lon="4.91473">
        <ele>315</ele>
        <time>2012-09-16T10:22:45Z</time>
      </trkpt>
      <trkpt lat="47.30517" lon="4.91462">
        <ele>308</ele>
        <time>2012-09-16T10:22:51Z</time>
      </trkpt>
      <trkpt lat="47.30533" lon="4.91457">
        <ele>305</ele>
        <time>2012-09-16T10:22:56Z</time>
      </trkpt>
      <trkpt lat="47.30547" lon="4.9145">
        <ele>309</ele>
        <time>2012-09-16T10:23:00Z</time>
      </trkpt>
      <trkpt lat="47.30565" lon="4.91433">
        <ele>319</ele>
        <time>2012-09-16T10:23:06Z</time>
      </trkpt>
      <trkpt lat="47.30582" lon="4.91408">
        <ele>327</ele>
        <time>2012-09-16T10:23:10Z</time>
      </trkpt>
      <trkpt lat="47.30592" lon="4.91393">
        <ele>332</ele>
        <time>2012-09-16T10:23:14Z</time>
      </trkpt>
      <trkpt lat="47.30602" lon="4.91378">
        <ele>331</ele>
        <time>2012-09-16T10:23:19Z</time>
      </trkpt>
      <trkpt lat="47.30605" lon="4.91355">
        <ele>331</ele>
        <time>2012-09-16T10:23:23Z</time>
      </trkpt>
      <trkpt lat="47.30602" lon="4.91332">
        <ele>329</ele>
        <time>2012-09-16T10:23:27Z</time>
      </trkpt>
      <trkpt lat="47.30585" lon="4.91312">
        <ele>329</ele>
        <time>2012-09-16T10:23:31Z</time>
      </trkpt>
      <trkpt lat="47.30572" lon="4.91288">
        <ele>317</ele>
        <time>2012-09-16T10:23:37Z</time>
      </trkpt>
      <trkpt lat="47.30572" lon="4.91265">
        <ele>310</ele>
        <time>2012-09-16T10:23:42Z</time>
      </trkpt>
      <trkpt lat="47.30582" lon="4.91242">
        <ele>305</ele>
        <time>2012-09-16T10:23:46Z</time>
      </trkpt>
      <trkpt lat="47.30588" lon="4.91215">
        <ele>302</ele>
        <time>2012-09-16T10:23:52Z</time>
      </trkpt>
      <trkpt lat="47.306" lon="4.91192">
        <ele>305</ele>
        <time>2012-09-16T10:23:56Z</time>
      </trkpt>
      <trkpt lat="47.30618" lon="4.91185">
        <ele>309</ele>
        <time>2012-09-16T10:24:01Z</time>
      </trkpt>
      <trkpt lat="47.30638" lon="4.91185">
        <ele>311</ele>
        <time>2012-09-16T10:24:05Z</time>
      </trkpt>
      <trkpt lat="47.30675" lon="4.91188">
        <ele>304</ele>
        <time>2012-09-16T10:24:11Z</time>
      </trkpt>
      <trkpt lat="47.30688" lon="4.91192">
        <ele>301</ele>
        <time>2012-09-16T10:24:13Z</time>
      </trkpt>
      <trkpt lat="47.30705" lon="4.91198">
        <ele>299</ele>
        <time>2012-09-16T10:24:15Z</time>
      </trkpt>
      <trkpt lat="47.30727" lon="4.91207">
        <ele>297</ele>
        <time>2012-09-16T10:24:20Z</time>
      </trkpt>
      <trkpt lat="47.3075" lon="4.91213">
        <ele>295</ele>
        <time>2012-09-16T10:24:24Z</time>
      </trkpt>
      <trkpt lat="47.30772" lon="4.91217">
        <ele>294</ele>
        <time>2012-09-16T10:24:28Z</time>
      </trkpt>
      <trkpt lat="47.30798" lon="4.91223">
        <ele>293</ele>
        <time>2012-09-16T10:24:32Z</time>
      </trkpt>
      <trkpt lat="47.3082" lon="4.91228">
        <ele>292</ele>
        <time>2012-09-16T10:24:37Z</time>
      </trkpt>
      <trkpt lat="47.30838" lon="4.91233">
        <ele>292</ele>
        <time>2012-09-16T10:24:41Z</time>
      </trkpt>
      <trkpt lat="47.3086" lon="4.91235">
        <ele>291</ele>
        <time>2012-09-16T10:24:45Z</time>
      </trkpt>
      <trkpt lat="47.30917" lon="4.91237">
        <ele>299</ele>
        <time>2012-09-16T10:24:55Z</time>
      </trkpt>
      <trkpt lat="47.30935" lon="4.91225">
        <ele>303</ele>
        <time>2012-09-16T10:24:59Z</time>
      </trkpt>
      <trkpt lat="47.30958" lon="4.91218">
        <ele>302</ele>
        <time>2012-09-16T10:25:04Z</time>
      </trkpt>
      <trkpt lat="47.30983" lon="4.91217">
        <ele>299</ele>
        <time>2012-09-16T10:25:08Z</time>
      </trkpt>
      <trkpt lat="47.31018" lon="4.91217">
        <ele>295</ele>
        <time>2012-09-16T10:25:14Z</time>
      </trkpt>
      <trkpt lat="47.31037" lon="4.9122">
        <ele>292</ele>
        <time>2012-09-16T10:25:16Z</time>
      </trkpt>
      <trkpt lat="47.3106" lon="4.91228">
        <ele>290</ele>
        <time>2012-09-16T10:25:20Z</time>
      </trkpt>
      <trkpt lat="47.31082" lon="4.91238">
        <ele>289</ele>
        <time>2012-09-16T10:25:25Z</time>
      </trkpt>
      <trkpt lat="47.31103" lon="4.9125">
        <ele>286</ele>
        <time>2012-09-16T10:25:29Z</time>
      </trkpt>
      <trkpt lat="47.31122" lon="4.91268">
        <ele>286</ele>
        <time>2012-09-16T10:25:33Z</time>
      </trkpt>
      <trkpt lat="47.3114" lon="4.91283">
        <ele>284</ele>
        <time>2012-09-16T10:25:37Z</time>
      </trkpt>
      <trkpt lat="47.31163" lon="4.91297">
        <ele>283</ele>
        <time>2012-09-16T10:25:41Z</time>
      </trkpt>
      <trkpt lat="47.31183" lon="4.91307">
        <ele>282</ele>
        <time>2012-09-16T10:25:45Z</time>
      </trkpt>
      <trkpt lat="47.31215" lon="4.91318">
        <ele>282</ele>
        <time>2012-09-16T10:25:52Z</time>
      </trkpt>
      <trkpt lat="47.31235" lon="4.91323">
        <ele>281</ele>
        <time>2012-09-16T10:25:56Z</time>
      </trkpt>
      <trkpt lat="47.31257" lon="4.91323">
        <ele>281</ele>
        <time>2012-09-16T10:26:00Z</time>
      </trkpt>
      <trkpt lat="47.31277" lon="4.91322">
        <ele>283</ele>
        <time>2012-09-16T10:26:04Z</time>
      </trkpt>
      <trkpt lat="47.31292" lon="4.91317">
        <ele>284</ele>
        <time>2012-09-16T10:26:06Z</time>
      </trkpt>
      <trkpt lat="47.31323" lon="4.91302">
        <ele>285</ele>
        <time>2012-09-16T10:26:12Z</time>
      </trkpt>
      <trkpt lat="47.31368" lon="4.9128">
        <ele>286</ele>
        <time>2012-09-16T10:26:21Z</time>
      </trkpt>
      <trkpt lat="47.31382" lon="4.91275">
        <ele>286</ele>
        <time>2012-09-16T10:26:23Z</time>
      </trkpt>
      <trkpt lat="47.31408" lon="4.91267">
        <ele>285</ele>
        <time>2012-09-16T10:26:27Z</time>
      </trkpt>
      <trkpt lat="47.31448" lon="4.9126">
        <ele>283</ele>
        <time>2012-09-16T10:26:31Z</time>
      </trkpt>
      <trkpt lat="47.31477" lon="4.91258">
        <ele>282</ele>
        <time>2012-09-16T10:26:36Z</time>
      </trkpt>
      <trkpt lat="47.31503" lon="4.91257">
        <ele>281</ele>
        <time>2012-09-16T10:26:40Z</time>
      </trkpt>
      <trkpt lat="47.31518" lon="4.91257">
        <ele>280</ele>
        <time>2012-09-16T10:26:42Z</time>
      </trkpt>
      <trkpt lat="47.31543" lon="4.91257">
        <ele>280</ele>
        <time>2012-09-16T10:26:46Z</time>
      </trkpt>
      <trkpt lat="47.31607" lon="4.91253">
        <ele>281</ele>
        <time>2012-09-16T10:26:56Z</time>
      </trkpt>
      <trkpt lat="47.31632" lon="4.9125">
        <ele>280</ele>
        <time>2012-09-16T10:27:01Z</time>
      </trkpt>
      <trkpt lat="47.31655" lon="4.91247">
        <ele>279</ele>
        <time>2012-09-16T10:27:05Z</time>
      </trkpt>
      <trkpt lat="47.31668" lon="4.9125">
        <ele>279</ele>
        <time>2012-09-16T10:27:07Z</time>
      </trkpt>
      <trkpt lat="47.31695" lon="4.91262">
        <ele>277</ele>
        <time>2012-09-16T10:27:11Z</time>
      </trkpt>
      <trkpt lat="47.31723" lon="4.91285">
        <ele>275</ele>
        <time>2012-09-16T10:27:16Z</time>
      </trkpt>
      <trkpt lat="47.31735" lon="4.91302">
        <ele>273</ele>
        <time>2012-09-16T10:27:20Z</time>
      </trkpt>
      <trkpt lat="47.31737" lon="4.91325">
        <ele>273</ele>
        <time>2012-09-16T10:27:24Z</time>
      </trkpt>
      <trkpt lat="47.31742" lon="4.91347">
        <ele>272</ele>
        <time>2012-09-16T10:27:28Z</time>
      </trkpt>
      <trkpt lat="47.31747" lon="4.91375">
        <ele>272</ele>
        <time>2012-09-16T10:27:32Z</time>
      </trkpt>
      <trkpt lat="47.31747" lon="4.91398">
        <ele>274</ele>
        <time>2012-09-16T10:27:37Z</time>
      </trkpt>
      <trkpt lat="47.31748" lon="4.9142">
        <ele>276</ele>
        <time>2012-09-16T10:27:41Z</time>
      </trkpt>
      <trkpt lat="47.3175" lon="4.9144">
        <ele>276</ele>
        <time>2012-09-16T10:27:45Z</time>
      </trkpt>
      <trkpt lat="47.31755" lon="4.91468">
        <ele>277</ele>
        <time>2012-09-16T10:27:51Z</time>
      </trkpt>
      <trkpt lat="47.31758" lon="4.91492">
        <ele>278</ele>
        <time>2012-09-16T10:27:55Z</time>
      </trkpt>
      <trkpt lat="47.31768" lon="4.91523">
        <ele>280</ele>
        <time>2012-09-16T10:28:04Z</time>
      </trkpt>
      <trkpt lat="47.31787" lon="4.9153">
        <ele>279</ele>
        <time>2012-09-16T10:28:10Z</time>
      </trkpt>
      <trkpt lat="47.31802" lon="4.91527">
        <ele>279</ele>
        <time>2012-09-16T10:28:14Z</time>
      </trkpt>
      <trkpt lat="47.31815" lon="4.91522">
        <ele>278</ele>
        <time>2012-09-16T10:28:16Z</time>
      </trkpt>
      <trkpt lat="47.31832" lon="4.91515">
        <ele>278</ele>
        <time>2012-09-16T10:28:20Z</time>
      </trkpt>
      <trkpt lat="47.31868" lon="4.91498">
        <ele>278</ele>
        <time>2012-09-16T10:28:29Z</time>
      </trkpt>
      <trkpt lat="47.31887" lon="4.91492">
        <ele>278</ele>
        <time>2012-09-16T10:28:33Z</time>
      </trkpt>
      <trkpt lat="47.3193" lon="4.91472">
        <ele>278</ele>
        <time>2012-09-16T10:28:41Z</time>
      </trkpt>
      <trkpt lat="47.31947" lon="4.91458">
        <ele>278</ele>
        <time>2012-09-16T10:28:45Z</time>
      </trkpt>
      <trkpt lat="47.3196" lon="4.91433">
        <ele>277</ele>
        <time>2012-09-16T10:28:50Z</time>
      </trkpt>
      <trkpt lat="47.31962" lon="4.914">
        <ele>276</ele>
        <time>2012-09-16T10:28:54Z</time>
      </trkpt>
      <trkpt lat="47.3195" lon="4.91367">
        <ele>275</ele>
        <time>2012-09-16T10:28:58Z</time>
      </trkpt>
      <trkpt lat="47.31928" lon="4.91325">
        <ele>273</ele>
        <time>2012-09-16T10:29:02Z</time>
      </trkpt>
      <trkpt lat="47.31832" lon="4.91145">
        <ele>266</ele>
        <time>2012-09-16T10:29:23Z</time>
      </trkpt>
      <trkpt lat="47.31825" lon="4.91113">
        <ele>266</ele>
        <time>2012-09-16T10:29:25Z</time>
      </trkpt>
      <trkpt lat="47.31828" lon="4.91092">
        <ele>265</ele>
        <time>2012-09-16T10:29:27Z</time>
      </trkpt>
      <trkpt lat="47.31842" lon="4.91058">
        <ele>266</ele>
        <time>2012-09-16T10:29:32Z</time>
      </trkpt>
      <trkpt lat="47.31848" lon="4.91023">
        <ele>265</ele>
        <time>2012-09-16T10:29:36Z</time>
      </trkpt>
      <trkpt lat="47.3185" lon="4.91003">
        <ele>265</ele>
        <time>2012-09-16T10:29:38Z</time>
      </trkpt>
      <trkpt lat="47.3185" lon="4.90965">
        <ele>264</ele>
        <time>2012-09-16T10:29:42Z</time>
      </trkpt>
      <trkpt lat="47.31857" lon="4.90915">
        <ele>263</ele>
        <time>2012-09-16T10:29:46Z</time>
      </trkpt>
      <trkpt lat="47.31868" lon="4.90878">
        <ele>263</ele>
        <time>2012-09-16T10:29:50Z</time>
      </trkpt>
      <trkpt lat="47.31883" lon="4.90848">
        <ele>263</ele>
        <time>2012-09-16T10:29:55Z</time>
      </trkpt>
      <trkpt lat="47.31897" lon="4.90822">
        <ele>264</ele>
        <time>2012-09-16T10:29:59Z</time>
      </trkpt>
      <trkpt lat="47.31912" lon="4.90793">
        <ele>267</ele>
        <time>2012-09-16T10:30:03Z</time>
      </trkpt>
      <trkpt lat="47.31922" lon="4.9078">
        <ele>268</ele>
        <time>2012-09-16T10:30:05Z</time>
      </trkpt>
      <trkpt lat="47.31942" lon="4.90753">
        <ele>271</ele>
        <time>2012-09-16T10:30:09Z</time>
      </trkpt>
      <trkpt lat="47.31952" lon="4.90738">
        <ele>276</ele>
        <time>2012-09-16T10:30:14Z</time>
      </trkpt>
      <trkpt lat="47.3197" lon="4.9074">
        <ele>275</ele>
        <time>2012-09-16T10:30:22Z</time>
      </trkpt>
      <trkpt lat="47.31985" lon="4.90748">
        <ele>276</ele>
        <time>2012-09-16T10:30:28Z</time>
      </trkpt>
      <trkpt lat="47.32003" lon="4.90758">
        <ele>281</ele>
        <time>2012-09-16T10:30:39Z</time>
      </trkpt>
      <trkpt lat="47.32018" lon="4.90767">
        <ele>282</ele>
        <time>2012-09-16T10:30:47Z</time>
      </trkpt>
      <trkpt lat="47.3203" lon="4.90778">
        <ele>283</ele>
        <time>2012-09-16T10:30:53Z</time>
      </trkpt>
      <trkpt lat="47.32043" lon="4.90792">
        <ele>284</ele>
        <time>2012-09-16T10:31:02Z</time>
      </trkpt>
      <trkpt lat="47.32058" lon="4.90798">
        <ele>285</ele>
        <time>2012-09-16T10:31:10Z</time>
      </trkpt>
      <trkpt lat="47.32073" lon="4.90805">
        <ele>288</ele>
        <time>2012-09-16T10:31:19Z</time>
      </trkpt>
      <trkpt lat="47.32087" lon="4.90802">
        <ele>288</ele>
        <time>2012-09-16T10:31:27Z</time>
      </trkpt>
      <trkpt lat="47.32105" lon="4.908">
        <ele>296</ele>
        <time>2012-09-16T10:31:39Z</time>
      </trkpt>
      <trkpt lat="47.32122" lon="4.90798">
        <ele>295</ele>
        <time>2012-09-16T10:31:50Z</time>
      </trkpt>
      <trkpt lat="47.32137" lon="4.9079">
        <ele>293</ele>
        <time>2012-09-16T10:31:58Z</time>
      </trkpt>
      <trkpt lat="47.32147" lon="4.90777">
        <ele>293</ele>
        <time>2012-09-16T10:32:07Z</time>
      </trkpt>
      <trkpt lat="47.32155" lon="4.90755">
        <ele>289</ele>
        <time>2012-09-16T10:32:15Z</time>
      </trkpt>
      <trkpt lat="47.32168" lon="4.90742">
        <ele>291</ele>
        <time>2012-09-16T10:32:23Z</time>
      </trkpt>
      <trkpt lat="47.32182" lon="4.90728">
        <ele>294</ele>
        <time>2012-09-16T10:32:34Z</time>
      </trkpt>
      <trkpt lat="47.32195" lon="4.90715">
        <ele>297</ele>
        <time>2012-09-16T10:32:44Z</time>
      </trkpt>
      <trkpt lat="47.32212" lon="4.90717">
        <ele>299</ele>
        <time>2012-09-16T10:32:57Z</time>
      </trkpt>
      <trkpt lat="47.32223" lon="4.90727">
        <ele>302</ele>
        <time>2012-09-16T10:33:05Z</time>
      </trkpt>
      <trkpt lat="47.32238" lon="4.90732">
        <ele>305</ele>
        <time>2012-09-16T10:33:16Z</time>
      </trkpt>
      <trkpt lat="47.32253" lon="4.9073">
        <ele>311</ele>
        <time>2012-09-16T10:33:28Z</time>
      </trkpt>
      <trkpt lat="47.32268" lon="4.90728">
        <ele>310</ele>
        <time>2012-09-16T10:33:37Z</time>
      </trkpt>
      <trkpt lat="47.32293" lon="4.90725">
        <ele>309</ele>
        <time>2012-09-16T10:33:47Z</time>
      </trkpt>
      <trkpt lat="47.32308" lon="4.90722">
        <ele>309</ele>
        <time>2012-09-16T10:33:56Z</time>
      </trkpt>
      <trkpt lat="47.32325" lon="4.90723">
        <ele>313</ele>
        <time>2012-09-16T10:34:20Z</time>
      </trkpt>
      <trkpt lat="47.3234" lon="4.90718">
        <ele>313</ele>
        <time>2012-09-16T10:34:31Z</time>
      </trkpt>
      <trkpt lat="47.32355" lon="4.90715">
        <ele>315</ele>
        <time>2012-09-16T10:34:37Z</time>
      </trkpt>
      <trkpt lat="47.3237" lon="4.9071">
        <ele>315</ele>
        <time>2012-09-16T10:34:46Z</time>
      </trkpt>
      <trkpt lat="47.32385" lon="4.90707">
        <ele>317</ele>
        <time>2012-09-16T10:34:54Z</time>
      </trkpt>
      <trkpt lat="47.32402" lon="4.90707">
        <ele>320</ele>
        <time>2012-09-16T10:35:02Z</time>
      </trkpt>
      <trkpt lat="47.32417" lon="4.90708">
        <ele>322</ele>
        <time>2012-09-16T10:35:11Z</time>
      </trkpt>
      <trkpt lat="47.3245" lon="4.90713">
        <ele>326</ele>
        <time>2012-09-16T10:35:29Z</time>
      </trkpt>
      <trkpt lat="47.32472" lon="4.90718">
        <ele>328</ele>
        <time>2012-09-16T10:35:42Z</time>
      </trkpt>
      <trkpt lat="47.32487" lon="4.90722">
        <ele>329</ele>
        <time>2012-09-16T10:35:50Z</time>
      </trkpt>
      <trkpt lat="47.32503" lon="4.90727">
        <ele>331</ele>
        <time>2012-09-16T10:35:59Z</time>
      </trkpt>
      <trkpt lat="47.32517" lon="4.90732">
        <ele>334</ele>
        <time>2012-09-16T10:36:07Z</time>
      </trkpt>
      <trkpt lat="47.32532" lon="4.90738">
        <ele>338</ele>
        <time>2012-09-16T10:36:17Z</time>
      </trkpt>
      <trkpt lat="47.32545" lon="4.90743">
        <ele>339</ele>
        <time>2012-09-16T10:36:25Z</time>
      </trkpt>
      <trkpt lat="47.3256" lon="4.90752">
        <ele>338</ele>
        <time>2012-09-16T10:36:36Z</time>
      </trkpt>
      <trkpt lat="47.32572" lon="4.90763">
        <ele>338</ele>
        <time>2012-09-16T10:36:46Z</time>
      </trkpt>
      <trkpt lat="47.32583" lon="4.90777">
        <ele>341</ele>
        <time>2012-09-16T10:36:56Z</time>
      </trkpt>
      <trkpt lat="47.32593" lon="4.90792">
        <ele>344</ele>
        <time>2012-09-16T10:37:07Z</time>
      </trkpt>
      <trkpt lat="47.326" lon="4.90812">
        <ele>347</ele>
        <time>2012-09-16T10:37:19Z</time>
      </trkpt>
      <trkpt lat="47.326" lon="4.90833">
        <ele>350</ele>
        <time>2012-09-16T10:37:30Z</time>
      </trkpt>
      <trkpt lat="47.32597" lon="4.90873">
        <ele>355</ele>
        <time>2012-09-16T10:37:48Z</time>
      </trkpt>
      <trkpt lat="47.32605" lon="4.90895">
        <ele>356</ele>
        <time>2012-09-16T10:37:59Z</time>
      </trkpt>
      <trkpt lat="47.32615" lon="4.90912">
        <ele>358</ele>
        <time>2012-09-16T10:38:09Z</time>
      </trkpt>
      <trkpt lat="47.32627" lon="4.90923">
        <ele>359</ele>
        <time>2012-09-16T10:38:20Z</time>
      </trkpt>
      <trkpt lat="47.3264" lon="4.90932">
        <ele>360</ele>
        <time>2012-09-16T10:38:30Z</time>
      </trkpt>
      <trkpt lat="47.32652" lon="4.90942">
        <ele>361</ele>
        <time>2012-09-16T10:38:38Z</time>
      </trkpt>
      <trkpt lat="47.32667" lon="4.90952">
        <ele>362</ele>
        <time>2012-09-16T10:38:49Z</time>
      </trkpt>
      <trkpt lat="47.3268" lon="4.90965">
        <ele>363</ele>
        <time>2012-09-16T10:38:59Z</time>
      </trkpt>
      <trkpt lat="47.32692" lon="4.90975">
        <ele>364</ele>
        <time>2012-09-16T10:39:05Z</time>
      </trkpt>
      <trkpt lat="47.32715" lon="4.90997">
        <ele>366</ele>
        <time>2012-09-16T10:39:22Z</time>
      </trkpt>
      <trkpt lat="47.3273" lon="4.9101">
        <ele>368</ele>
        <time>2012-09-16T10:39:30Z</time>
      </trkpt>
      <trkpt lat="47.32743" lon="4.9102">
        <ele>370</ele>
        <time>2012-09-16T10:39:37Z</time>
      </trkpt>
      <trkpt lat="47.32763" lon="4.91033">
        <ele>371</ele>
        <time>2012-09-16T10:39:45Z</time>
      </trkpt>
      <trkpt lat="47.32778" lon="4.91043">
        <ele>376</ele>
        <time>2012-09-16T10:39:51Z</time>
      </trkpt>
      <trkpt lat="47.32807" lon="4.91062">
        <ele>380</ele>
        <time>2012-09-16T10:40:01Z</time>
      </trkpt>
      <trkpt lat="47.32822" lon="4.9107">
        <ele>381</ele>
        <time>2012-09-16T10:40:08Z</time>
      </trkpt>
      <trkpt lat="47.32837" lon="4.91082">
        <ele>381</ele>
        <time>2012-09-16T10:40:14Z</time>
      </trkpt>
      <trkpt lat="47.32852" lon="4.91092">
        <ele>380</ele>
        <time>2012-09-16T10:40:20Z</time>
      </trkpt>
      <trkpt lat="47.32875" lon="4.91107">
        <ele>379</ele>
        <time>2012-09-16T10:40:28Z</time>
      </trkpt>
      <trkpt lat="47.32895" lon="4.91118">
        <ele>377</ele>
        <time>2012-09-16T10:40:35Z</time>
      </trkpt>
      <trkpt lat="47.32907" lon="4.91128">
        <ele>376</ele>
        <time>2012-09-16T10:40:39Z</time>
      </trkpt>
      <trkpt lat="47.32918" lon="4.91142">
        <ele>376</ele>
        <time>2012-09-16T10:40:43Z</time>
      </trkpt>
      <trkpt lat="47.32943" lon="4.91172">
        <ele>376</ele>
        <time>2012-09-16T10:40:51Z</time>
      </trkpt>
      <trkpt lat="47.32953" lon="4.91188">
        <ele>376</ele>
        <time>2012-09-16T10:40:55Z</time>
      </trkpt>
      <trkpt lat="47.32963" lon="4.91203">
        <ele>376</ele>
        <time>2012-09-16T10:41:00Z</time>
      </trkpt>
      <trkpt lat="47.32975" lon="4.91217">
        <ele>377</ele>
        <time>2012-09-16T10:41:04Z</time>
      </trkpt>
      <trkpt lat="47.32985" lon="4.91232">
        <ele>377</ele>
        <time>2012-09-16T10:41:08Z</time>
      </trkpt>
      <trkpt lat="47.33002" lon="4.91258">
        <ele>379</ele>
        <time>2012-09-16T10:41:14Z</time>
      </trkpt>
      <trkpt lat="47.33022" lon="4.91285">
        <ele>379</ele>
        <time>2012-09-16T10:41:20Z</time>
      </trkpt>
      <trkpt lat="47.33037" lon="4.91308">
        <ele>380</ele>
        <time>2012-09-16T10:41:26Z</time>
      </trkpt>
      <trkpt lat="47.33048" lon="4.91323">
        <ele>380</ele>
        <time>2012-09-16T10:41:30Z</time>
      </trkpt>
      <trkpt lat="47.33075" lon="4.91362">
        <ele>381</ele>
        <time>2012-09-16T10:41:41Z</time>
      </trkpt>
      <trkpt lat="47.33085" lon="4.91377">
        <ele>381</ele>
        <time>2012-09-16T10:41:45Z</time>
      </trkpt>
      <trkpt lat="47.33097" lon="4.91393">
        <ele>382</ele>
        <time>2012-09-16T10:41:49Z</time>
      </trkpt>
      <trkpt lat="47.33127" lon="4.91437">
        <ele>383</ele>
        <time>2012-09-16T10:42:02Z</time>
      </trkpt>
      <trkpt lat="47.33138" lon="4.91452">
        <ele>384</ele>
        <time>2012-09-16T10:42:06Z</time>
      </trkpt>
      <trkpt lat="47.33153" lon="4.91472">
        <ele>384</ele>
        <time>2012-09-16T10:42:12Z</time>
      </trkpt>
      <trkpt lat="47.33202" lon="4.91537">
        <ele>387</ele>
        <time>2012-09-16T10:42:31Z</time>
      </trkpt>
      <trkpt lat="47.33213" lon="4.91548">
        <ele>387</ele>
        <time>2012-09-16T10:42:35Z</time>
      </trkpt>
      <trkpt lat="47.33237" lon="4.91572">
        <ele>388</ele>
        <time>2012-09-16T10:42:43Z</time>
      </trkpt>
      <trkpt lat="47.33248" lon="4.91582">
        <ele>389</ele>
        <time>2012-09-16T10:42:48Z</time>
      </trkpt>
      <trkpt lat="47.33262" lon="4.91592">
        <ele>389</ele>
        <time>2012-09-16T10:42:52Z</time>
      </trkpt>
      <trkpt lat="47.33275" lon="4.91598">
        <ele>389</ele>
        <time>2012-09-16T10:42:56Z</time>
      </trkpt>
      <trkpt lat="47.33307" lon="4.91615">
        <ele>391</ele>
        <time>2012-09-16T10:43:09Z</time>
      </trkpt>
      <trkpt lat="47.3332" lon="4.91622">
        <ele>393</ele>
        <time>2012-09-16T10:43:15Z</time>
      </trkpt>
      <trkpt lat="47.33335" lon="4.9163">
        <ele>394</ele>
        <time>2012-09-16T10:43:21Z</time>
      </trkpt>
      <trkpt lat="47.3335" lon="4.91635">
        <ele>394</ele>
        <time>2012-09-16T10:43:25Z</time>
      </trkpt>
      <trkpt lat="47.33373" lon="4.91643">
        <ele>394</ele>
        <time>2012-09-16T10:43:34Z</time>
      </trkpt>
      <trkpt lat="47.33392" lon="4.91648">
        <ele>394</ele>
        <time>2012-09-16T10:43:40Z</time>
      </trkpt>
      <trkpt lat="47.33413" lon="4.9165">
        <ele>395</ele>
        <time>2012-09-16T10:43:46Z</time>
      </trkpt>
      <trkpt lat="47.3344" lon="4.9165">
        <ele>394</ele>
        <time>2012-09-16T10:43:55Z</time>
      </trkpt>
      <trkpt lat="47.33473" lon="4.91653">
        <ele>394</ele>
        <time>2012-09-16T10:44:03Z</time>
      </trkpt>
      <trkpt lat="47.33493" lon="4.91652">
        <ele>394</ele>
        <time>2012-09-16T10:44:07Z</time>
      </trkpt>
      <trkpt lat="47.33508" lon="4.9165">
        <ele>394</ele>
        <time>2012-09-16T10:44:11Z</time>
      </trkpt>
      <trkpt lat="47.33525" lon="4.91643">
        <ele>394</ele>
        <time>2012-09-16T10:44:18Z</time>
      </trkpt>
      <trkpt lat="47.33532" lon="4.91667">
        <ele>394</ele>
        <time>2012-09-16T10:44:24Z</time>
      </trkpt>
      <trkpt lat="47.3353" lon="4.91693">
        <ele>393</ele>
        <time>2012-09-16T10:44:28Z</time>
      </trkpt>
      <trkpt lat="47.3353" lon="4.91715">
        <ele>392</ele>
        <time>2012-09-16T10:44:30Z</time>
      </trkpt>
      <trkpt lat="47.33528" lon="4.91735">
        <ele>391</ele>
        <time>2012-09-16T10:44:34Z</time>
      </trkpt>
      <trkpt lat="47.33528" lon="4.91715">
        <ele>391</ele>
        <time>2012-09-16T10:45:31Z</time>
      </trkpt>
      <trkpt lat="47.3353" lon="4.9174">
        <ele>389</ele>
        <time>2012-09-16T10:46:19Z</time>
      </trkpt>
      <trkpt lat="47.33528" lon="4.91762">
        <ele>389</ele>
        <time>2012-09-16T10:46:23Z</time>
      </trkpt>
      <trkpt lat="47.33528" lon="4.91782">
        <ele>388</ele>
        <time>2012-09-16T10:46:27Z</time>
      </trkpt>
      <trkpt lat="47.33528" lon="4.91803">
        <ele>387</ele>
        <time>2012-09-16T10:46:32Z</time>
      </trkpt>
      <trkpt lat="47.33528" lon="4.91847">
        <ele>386</ele>
        <time>2012-09-16T10:46:38Z</time>
      </trkpt>
      <trkpt lat="47.3353" lon="4.92028">
        <ele>385</ele>
        <time>2012-09-16T10:47:01Z</time>
      </trkpt>
      <trkpt lat="47.33532" lon="4.92057">
        <ele>384</ele>
        <time>2012-09-16T10:47:05Z</time>
      </trkpt>
      <trkpt lat="47.33535" lon="4.92122">
        <ele>385</ele>
        <time>2012-09-16T10:47:16Z</time>
      </trkpt>
      <trkpt lat="47.33535" lon="4.92142">
        <ele>385</ele>
        <time>2012-09-16T10:47:20Z</time>
      </trkpt>
      <trkpt lat="47.33535" lon="4.92203">
        <ele>386</ele>
        <time>2012-09-16T10:47:31Z</time>
      </trkpt>
      <trkpt lat="47.33535" lon="4.92245">
        <ele>387</ele>
        <time>2012-09-16T10:47:39Z</time>
      </trkpt>
      <trkpt lat="47.33533" lon="4.92268">
        <ele>387</ele>
        <time>2012-09-16T10:47:45Z</time>
      </trkpt>
      <trkpt lat="47.33537" lon="4.92293">
        <ele>388</ele>
        <time>2012-09-16T10:48:12Z</time>
      </trkpt>
      <trkpt lat="47.33542" lon="4.92317">
        <ele>388</ele>
        <time>2012-09-16T10:48:17Z</time>
      </trkpt>
      <trkpt lat="47.33545" lon="4.9234">
        <ele>390</ele>
        <time>2012-09-16T10:48:21Z</time>
      </trkpt>
      <trkpt lat="47.33545" lon="4.92363">
        <ele>393</ele>
        <time>2012-09-16T10:48:25Z</time>
      </trkpt>
      <trkpt lat="47.33545" lon="4.92387">
        <ele>394</ele>
        <time>2012-09-16T10:48:29Z</time>
      </trkpt>
      <trkpt lat="47.33547" lon="4.92417">
        <ele>395</ele>
        <time>2012-09-16T10:48:33Z</time>
      </trkpt>
      <trkpt lat="47.33548" lon="4.9244">
        <ele>396</ele>
        <time>2012-09-16T10:48:38Z</time>
      </trkpt>
      <trkpt lat="47.33548" lon="4.92462">
        <ele>396</ele>
        <time>2012-09-16T10:48:42Z</time>
      </trkpt>
      <trkpt lat="47.33547" lon="4.92483">
        <ele>396</ele>
        <time>2012-09-16T10:48:46Z</time>
      </trkpt>
      <trkpt lat="47.33543" lon="4.9251">
        <ele>396</ele>
        <time>2012-09-16T10:48:50Z</time>
      </trkpt>
      <trkpt lat="47.33545" lon="4.92548">
        <ele>394</ele>
        <time>2012-09-16T10:48:54Z</time>
      </trkpt>
      <trkpt lat="47.33548" lon="4.92587">
        <ele>393</ele>
        <time>2012-09-16T10:49:01Z</time>
      </trkpt>
      <trkpt lat="47.33555" lon="4.92613">
        <ele>393</ele>
        <time>2012-09-16T10:49:05Z</time>
      </trkpt>
      <trkpt lat="47.33562" lon="4.92642">
        <ele>391</ele>
        <time>2012-09-16T10:49:09Z</time>
      </trkpt>
      <trkpt lat="47.33562" lon="4.9267">
        <ele>392</ele>
        <time>2012-09-16T10:49:13Z</time>
      </trkpt>
      <trkpt lat="47.3356" lon="4.92703">
        <ele>392</ele>
        <time>2012-09-16T10:49:17Z</time>
      </trkpt>
      <trkpt lat="47.33558" lon="4.92742">
        <ele>390</ele>
        <time>2012-09-16T10:49:24Z</time>
      </trkpt>
      <trkpt lat="47.33555" lon="4.92772">
        <ele>390</ele>
        <time>2012-09-16T10:49:28Z</time>
      </trkpt>
      <trkpt lat="47.3355" lon="4.928">
        <ele>391</ele>
        <time>2012-09-16T10:49:32Z</time>
      </trkpt>
      <trkpt lat="47.33542" lon="4.92853">
        <ele>390</ele>
        <time>2012-09-16T10:49:38Z</time>
      </trkpt>
      <trkpt lat="47.33542" lon="4.92883">
        <ele>388</ele>
        <time>2012-09-16T10:49:42Z</time>
      </trkpt>
      <trkpt lat="47.33542" lon="4.92937">
        <ele>384</ele>
        <time>2012-09-16T10:49:51Z</time>
      </trkpt>
      <trkpt lat="47.33532" lon="4.92963">
        <ele>383</ele>
        <time>2012-09-16T10:49:55Z</time>
      </trkpt>
      <trkpt lat="47.33518" lon="4.92983">
        <ele>382</ele>
        <time>2012-09-16T10:49:59Z</time>
      </trkpt>
      <trkpt lat="47.335" lon="4.92995">
        <ele>383</ele>
        <time>2012-09-16T10:50:03Z</time>
      </trkpt>
      <trkpt lat="47.33472" lon="4.93015">
        <ele>382</ele>
        <time>2012-09-16T10:50:09Z</time>
      </trkpt>
      <trkpt lat="47.33457" lon="4.93035">
        <ele>381</ele>
        <time>2012-09-16T10:50:13Z</time>
      </trkpt>
      <trkpt lat="47.33437" lon="4.93047">
        <ele>380</ele>
        <time>2012-09-16T10:50:18Z</time>
      </trkpt>
      <trkpt lat="47.33417" lon="4.93057">
        <ele>379</ele>
        <time>2012-09-16T10:50:22Z</time>
      </trkpt>
      <trkpt lat="47.33397" lon="4.9307">
        <ele>377</ele>
        <time>2012-09-16T10:50:26Z</time>
      </trkpt>
      <trkpt lat="47.33375" lon="4.93093">
        <ele>377</ele>
        <time>2012-09-16T10:50:30Z</time>
      </trkpt>
      <trkpt lat="47.33358" lon="4.93118">
        <ele>375</ele>
        <time>2012-09-16T10:50:35Z</time>
      </trkpt>
      <trkpt lat="47.33343" lon="4.93148">
        <ele>375</ele>
        <time>2012-09-16T10:50:39Z</time>
      </trkpt>
      <trkpt lat="47.33327" lon="4.93197">
        <ele>375</ele>
        <time>2012-09-16T10:50:45Z</time>
      </trkpt>
      <trkpt lat="47.3332" lon="4.93218">
        <ele>375</ele>
        <time>2012-09-16T10:50:47Z</time>
      </trkpt>
      <trkpt lat="47.33313" lon="4.93253">
        <ele>372</ele>
        <time>2012-09-16T10:50:51Z</time>
      </trkpt>
      <trkpt lat="47.33302" lon="4.93332">
        <ele>370</ele>
        <time>2012-09-16T10:51:00Z</time>
      </trkpt>
      <trkpt lat="47.33307" lon="4.93355">
        <ele>369</ele>
        <time>2012-09-16T10:51:04Z</time>
      </trkpt>
      <trkpt lat="47.33318" lon="4.93378">
        <ele>365</ele>
        <time>2012-09-16T10:51:08Z</time>
      </trkpt>
      <trkpt lat="47.33337" lon="4.9341">
        <ele>361</ele>
        <time>2012-09-16T10:51:12Z</time>
      </trkpt>
      <trkpt lat="47.3335" lon="4.93438">
        <ele>357</ele>
        <time>2012-09-16T10:51:17Z</time>
      </trkpt>
      <trkpt lat="47.3336" lon="4.93453">
        <ele>354</ele>
        <time>2012-09-16T10:51:19Z</time>
      </trkpt>
      <trkpt lat="47.3338" lon="4.93483">
        <ele>350</ele>
        <time>2012-09-16T10:51:23Z</time>
      </trkpt>
      <trkpt lat="47.334" lon="4.93517">
        <ele>346</ele>
        <time>2012-09-16T10:51:27Z</time>
      </trkpt>
      <trkpt lat="47.33422" lon="4.93553">
        <ele>344</ele>
        <time>2012-09-16T10:51:34Z</time>
      </trkpt>
      <trkpt lat="47.3343" lon="4.9357">
        <ele>343</ele>
        <time>2012-09-16T10:51:36Z</time>
      </trkpt>
      <trkpt lat="47.33442" lon="4.93585">
        <ele>340</ele>
        <time>2012-09-16T10:51:38Z</time>
      </trkpt>
      <trkpt lat="47.33458" lon="4.93617">
        <ele>334</ele>
        <time>2012-09-16T10:51:44Z</time>
      </trkpt>
      <trkpt lat="47.33467" lon="4.93643">
        <ele>330</ele>
        <time>2012-09-16T10:51:48Z</time>
      </trkpt>
      <trkpt lat="47.33478" lon="4.93678">
        <ele>327</ele>
        <time>2012-09-16T10:51:55Z</time>
      </trkpt>
      <trkpt lat="47.33485" lon="4.93697">
        <ele>326</ele>
        <time>2012-09-16T10:51:59Z</time>
      </trkpt>
      <trkpt lat="47.3349" lon="4.93717">
        <ele>324</ele>
        <time>2012-09-16T10:52:03Z</time>
      </trkpt>
      <trkpt lat="47.33497" lon="4.93738">
        <ele>322</ele>
        <time>2012-09-16T10:52:07Z</time>
      </trkpt>
      <trkpt lat="47.33507" lon="4.93765">
        <ele>318</ele>
        <time>2012-09-16T10:52:11Z</time>
      </trkpt>
      <trkpt lat="47.33518" lon="4.93802">
        <ele>313</ele>
        <time>2012-09-16T10:52:20Z</time>
      </trkpt>
      <trkpt lat="47.33528" lon="4.93823">
        <ele>308</ele>
        <time>2012-09-16T10:52:26Z</time>
      </trkpt>
      <trkpt lat="47.33537" lon="4.93848">
        <ele>305</ele>
        <time>2012-09-16T10:52:32Z</time>
      </trkpt>
      <trkpt lat="47.33545" lon="4.93872">
        <ele>302</ele>
        <time>2012-09-16T10:52:38Z</time>
      </trkpt>
      <trkpt lat="47.33557" lon="4.93908">
        <ele>299</ele>
        <time>2012-09-16T10:52:45Z</time>
      </trkpt>
      <trkpt lat="47.33563" lon="4.9393">
        <ele>298</ele>
        <time>2012-09-16T10:52:49Z</time>
      </trkpt>
      <trkpt lat="47.33578" lon="4.93975">
        <ele>293</ele>
        <time>2012-09-16T10:52:57Z</time>
      </trkpt>
      <trkpt lat="47.33588" lon="4.93992">
        <ele>291</ele>
        <time>2012-09-16T10:53:02Z</time>
      </trkpt>
      <trkpt lat="47.3362" lon="4.94043">
        <ele>287</ele>
        <time>2012-09-16T10:53:12Z</time>
      </trkpt>
      <trkpt lat="47.3369" lon="4.9416">
        <ele>275</ele>
        <time>2012-09-16T10:53:33Z</time>
      </trkpt>
      <trkpt lat="47.33703" lon="4.94197">
        <ele>272</ele>
        <time>2012-09-16T10:53:37Z</time>
      </trkpt>
      <trkpt lat="47.3372" lon="4.9422">
        <ele>269</ele>
        <time>2012-09-16T10:53:41Z</time>
      </trkpt>
      <trkpt lat="47.33725" lon="4.9425">
        <ele>267</ele>
        <time>2012-09-16T10:53:46Z</time>
      </trkpt>
      <trkpt lat="47.33723" lon="4.94277">
        <ele>266</ele>
        <time>2012-09-16T10:53:50Z</time>
      </trkpt>
      <trkpt lat="47.33718" lon="4.94302">
        <ele>264</ele>
        <time>2012-09-16T10:53:56Z</time>
      </trkpt>
      <trkpt lat="47.33727" lon="4.94327">
        <ele>267</ele>
        <time>2012-09-16T10:54:00Z</time>
      </trkpt>
      <trkpt lat="47.33733" lon="4.9435">
        <ele>269</ele>
        <time>2012-09-16T10:54:04Z</time>
      </trkpt>
      <trkpt lat="47.33737" lon="4.9438">
        <ele>272</ele>
        <time>2012-09-16T10:54:09Z</time>
      </trkpt>
      <trkpt lat="47.33735" lon="4.9441">
        <ele>274</ele>
        <time>2012-09-16T10:54:13Z</time>
      </trkpt>
      <trkpt lat="47.33728" lon="4.9444">
        <ele>276</ele>
        <time>2012-09-16T10:54:17Z</time>
      </trkpt>
      <trkpt lat="47.3371" lon="4.94528">
        <ele>273</ele>
        <time>2012-09-16T10:54:28Z</time>
      </trkpt>
      <trkpt lat="47.33707" lon="4.94562">
        <ele>271</ele>
        <time>2012-09-16T10:54:32Z</time>
      </trkpt>
      <trkpt lat="47.33708" lon="4.94595">
        <ele>271</ele>
        <time>2012-09-16T10:54:36Z</time>
      </trkpt>
      <trkpt lat="47.33717" lon="4.94635">
        <ele>269</ele>
        <time>2012-09-16T10:54:40Z</time>
      </trkpt>
      <trkpt lat="47.33727" lon="4.94668">
        <ele>268</ele>
        <time>2012-09-16T10:54:44Z</time>
      </trkpt>
      <trkpt lat="47.33742" lon="4.94702">
        <ele>268</ele>
        <time>2012-09-16T10:54:49Z</time>
      </trkpt>
      <trkpt lat="47.33757" lon="4.94735">
        <ele>267</ele>
        <time>2012-09-16T10:54:53Z</time>
      </trkpt>
      <trkpt lat="47.33777" lon="4.94768">
        <ele>266</ele>
        <time>2012-09-16T10:54:57Z</time>
      </trkpt>
      <trkpt lat="47.33858" lon="4.94908">
        <ele>264</ele>
        <time>2012-09-16T10:55:14Z</time>
      </trkpt>
      <trkpt lat="47.33868" lon="4.94927">
        <ele>264</ele>
        <time>2012-09-16T10:55:16Z</time>
      </trkpt>
      <trkpt lat="47.33965" lon="4.95112">
        <ele>261</ele>
        <time>2012-09-16T10:55:37Z</time>
      </trkpt>
      <trkpt lat="47.33985" lon="4.95143">
        <ele>261</ele>
        <time>2012-09-16T10:55:41Z</time>
      </trkpt>
      <trkpt lat="47.34067" lon="4.95285">
        <ele>262</ele>
        <time>2012-09-16T10:55:58Z</time>
      </trkpt>
      <trkpt lat="47.34083" lon="4.9532">
        <ele>262</ele>
        <time>2012-09-16T10:56:02Z</time>
      </trkpt>
      <trkpt lat="47.34097" lon="4.95355">
        <ele>263</ele>
        <time>2012-09-16T10:56:06Z</time>
      </trkpt>
      <trkpt lat="47.34108" lon="4.95402">
        <ele>266</ele>
        <time>2012-09-16T10:56:10Z</time>
      </trkpt>
      <trkpt lat="47.3412" lon="4.95448">
        <ele>265</ele>
        <time>2012-09-16T10:56:17Z</time>
      </trkpt>
      <trkpt lat="47.34115" lon="4.9548">
        <ele>263</ele>
        <time>2012-09-16T10:56:21Z</time>
      </trkpt>
      <trkpt lat="47.3412" lon="4.95513">
        <ele>261</ele>
        <time>2012-09-16T10:56:25Z</time>
      </trkpt>
      <trkpt lat="47.34102" lon="4.95528">
        <ele>258</ele>
        <time>2012-09-16T10:56:29Z</time>
      </trkpt>
      <trkpt lat="47.3408" lon="4.95533">
        <ele>256</ele>
        <time>2012-09-16T10:56:31Z</time>
      </trkpt>
      <trkpt lat="47.34065" lon="4.95537">
        <ele>256</ele>
        <time>2012-09-16T10:56:33Z</time>
      </trkpt>
      <trkpt lat="47.34052" lon="4.95542">
        <ele>256</ele>
        <time>2012-09-16T10:56:35Z</time>
      </trkpt>
      <trkpt lat="47.3403" lon="4.9554">
        <ele>255</ele>
        <time>2012-09-16T10:56:40Z</time>
      </trkpt>
      <trkpt lat="47.34017" lon="4.95515">
        <ele>255</ele>
        <time>2012-09-16T10:56:44Z</time>
      </trkpt>
      <trkpt lat="47.33997" lon="4.95515">
        <ele>255</ele>
        <time>2012-09-16T10:56:48Z</time>
      </trkpt>
      <trkpt lat="47.33973" lon="4.95535">
        <ele>255</ele>
        <time>2012-09-16T10:56:52Z</time>
      </trkpt>
      <trkpt lat="47.33968" lon="4.95567">
        <ele>255</ele>
        <time>2012-09-16T10:56:56Z</time>
      </trkpt>
      <trkpt lat="47.33973" lon="4.956">
        <ele>255</ele>
        <time>2012-09-16T10:57:01Z</time>
      </trkpt>
      <trkpt lat="47.33975" lon="4.95633">
        <ele>255</ele>
        <time>2012-09-16T10:57:05Z</time>
      </trkpt>
      <trkpt lat="47.33978" lon="4.95665">
        <ele>254</ele>
        <time>2012-09-16T10:57:09Z</time>
      </trkpt>
      <trkpt lat="47.33985" lon="4.95752">
        <ele>254</ele>
        <time>2012-09-16T10:57:19Z</time>
      </trkpt>
      <trkpt lat="47.33985" lon="4.95782">
        <ele>254</ele>
        <time>2012-09-16T10:57:24Z</time>
      </trkpt>
      <trkpt lat="47.33983" lon="4.95812">
        <ele>254</ele>
        <time>2012-09-16T10:57:28Z</time>
      </trkpt>
      <trkpt lat="47.33978" lon="4.95842">
        <ele>254</ele>
        <time>2012-09-16T10:57:32Z</time>
      </trkpt>
      <trkpt lat="47.33975" lon="4.95882">
        <ele>253</ele>
        <time>2012-09-16T10:57:36Z</time>
      </trkpt>
      <trkpt lat="47.33975" lon="4.95917">
        <ele>253</ele>
        <time>2012-09-16T10:57:40Z</time>
      </trkpt>
      <trkpt lat="47.33977" lon="4.95953">
        <ele>253</ele>
        <time>2012-09-16T10:57:45Z</time>
      </trkpt>
      <trkpt lat="47.33978" lon="4.96005">
        <ele>253</ele>
        <time>2012-09-16T10:57:51Z</time>
      </trkpt>
      <trkpt lat="47.33978" lon="4.96058">
        <ele>252</ele>
        <time>2012-09-16T10:57:57Z</time>
      </trkpt>
      <trkpt lat="47.3398" lon="4.96085">
        <ele>252</ele>
        <time>2012-09-16T10:57:59Z</time>
      </trkpt>
      <trkpt lat="47.33983" lon="4.96118">
        <ele>251</ele>
        <time>2012-09-16T10:58:03Z</time>
      </trkpt>
      <trkpt lat="47.33988" lon="4.96152">
        <ele>251</ele>
        <time>2012-09-16T10:58:08Z</time>
      </trkpt>
      <trkpt lat="47.33993" lon="4.96183">
        <ele>251</ele>
        <time>2012-09-16T10:58:12Z</time>
      </trkpt>
      <trkpt lat="47.33995" lon="4.96215">
        <ele>252</ele>
        <time>2012-09-16T10:58:16Z</time>
      </trkpt>
      <trkpt lat="47.34" lon="4.96272">
        <ele>252</ele>
        <time>2012-09-16T10:58:22Z</time>
      </trkpt>
      <trkpt lat="47.34003" lon="4.96305">
        <ele>252</ele>
        <time>2012-09-16T10:58:27Z</time>
      </trkpt>
      <trkpt lat="47.3401" lon="4.9637">
        <ele>252</ele>
        <time>2012-09-16T10:58:35Z</time>
      </trkpt>
      <trkpt lat="47.34012" lon="4.96402">
        <ele>252</ele>
        <time>2012-09-16T10:58:39Z</time>
      </trkpt>
      <trkpt lat="47.34008" lon="4.96425">
        <ele>253</ele>
        <time>2012-09-16T10:58:41Z</time>
      </trkpt>
      <trkpt lat="47.33998" lon="4.96453">
        <ele>253</ele>
        <time>2012-09-16T10:58:45Z</time>
      </trkpt>
      <trkpt lat="47.33982" lon="4.9649">
        <ele>252</ele>
        <time>2012-09-16T10:58:52Z</time>
      </trkpt>
      <trkpt lat="47.33963" lon="4.96528">
        <ele>252</ele>
        <time>2012-09-16T10:58:58Z</time>
      </trkpt>
      <trkpt lat="47.33957" lon="4.96558">
        <ele>252</ele>
        <time>2012-09-16T10:59:02Z</time>
      </trkpt>
      <trkpt lat="47.33952" lon="4.96602">
        <ele>252</ele>
        <time>2012-09-16T10:59:06Z</time>
      </trkpt>
      <trkpt lat="47.33952" lon="4.96635">
        <ele>252</ele>
        <time>2012-09-16T10:59:11Z</time>
      </trkpt>
      <trkpt lat="47.33963" lon="4.96662">
        <ele>252</ele>
        <time>2012-09-16T10:59:15Z</time>
      </trkpt>
      <trkpt lat="47.33978" lon="4.96683">
        <ele>253</ele>
        <time>2012-09-16T10:59:19Z</time>
      </trkpt>
      <trkpt lat="47.33988" lon="4.96707">
        <ele>253</ele>
        <time>2012-09-16T10:59:23Z</time>
      </trkpt>
      <trkpt lat="47.3399" lon="4.96728">
        <ele>254</ele>
        <time>2012-09-16T10:59:25Z</time>
      </trkpt>
      <trkpt lat="47.3399" lon="4.96757">
        <ele>255</ele>
        <time>2012-09-16T10:59:29Z</time>
      </trkpt>
      <trkpt lat="47.33988" lon="4.96783">
        <ele>257</ele>
        <time>2012-09-16T10:59:34Z</time>
      </trkpt>
      <trkpt lat="47.33985" lon="4.96812">
        <ele>260</ele>
        <time>2012-09-16T10:59:38Z</time>
      </trkpt>
      <trkpt lat="47.33985" lon="4.96835">
        <ele>262</ele>
        <time>2012-09-16T10:59:42Z</time>
      </trkpt>
      <trkpt lat="47.3398" lon="4.9686">
        <ele>262</ele>
        <time>2012-09-16T10:59:46Z</time>
      </trkpt>
      <trkpt lat="47.33963" lon="4.96885">
        <ele>262</ele>
        <time>2012-09-16T10:59:51Z</time>
      </trkpt>
      <trkpt lat="47.33953" lon="4.96912">
        <ele>260</ele>
        <time>2012-09-16T10:59:55Z</time>
      </trkpt>
      <trkpt lat="47.33948" lon="4.9695">
        <ele>259</ele>
        <time>2012-09-16T11:00:01Z</time>
      </trkpt>
      <trkpt lat="47.33967" lon="4.96962">
        <ele>259</ele>
        <time>2012-09-16T11:00:05Z</time>
      </trkpt>
      <trkpt lat="47.33972" lon="4.96985">
        <ele>261</ele>
        <time>2012-09-16T11:00:11Z</time>
      </trkpt>
      <trkpt lat="47.33965" lon="4.97012">
        <ele>261</ele>
        <time>2012-09-16T11:00:16Z</time>
      </trkpt>
      <trkpt lat="47.33958" lon="4.97045">
        <ele>260</ele>
        <time>2012-09-16T11:00:20Z</time>
      </trkpt>
      <trkpt lat="47.33955" lon="4.9708">
        <ele>261</ele>
        <time>2012-09-16T11:00:24Z</time>
      </trkpt>
      <trkpt lat="47.33947" lon="4.9714">
        <ele>264</ele>
        <time>2012-09-16T11:00:30Z</time>
      </trkpt>
      <trkpt lat="47.33942" lon="4.97175">
        <ele>261</ele>
        <time>2012-09-16T11:00:34Z</time>
      </trkpt>
      <trkpt lat="47.3393" lon="4.97237">
        <ele>266</ele>
        <time>2012-09-16T11:00:43Z</time>
      </trkpt>
      <trkpt lat="47.3392" lon="4.97262">
        <ele>264</ele>
        <time>2012-09-16T11:00:49Z</time>
      </trkpt>
      <trkpt lat="47.33908" lon="4.97287">
        <ele>262</ele>
        <time>2012-09-16T11:00:53Z</time>
      </trkpt>
      <trkpt lat="47.33897" lon="4.97307">
        <ele>260</ele>
        <time>2012-09-16T11:00:55Z</time>
      </trkpt>
      <trkpt lat="47.33875" lon="4.9734">
        <ele>258</ele>
        <time>2012-09-16T11:01:01Z</time>
      </trkpt>
      <trkpt lat="47.33853" lon="4.97352">
        <ele>259</ele>
        <time>2012-09-16T11:01:06Z</time>
      </trkpt>
      <trkpt lat="47.33832" lon="4.97355">
        <ele>260</ele>
        <time>2012-09-16T11:01:10Z</time>
      </trkpt>
      <trkpt lat="47.33808" lon="4.9735">
        <ele>260</ele>
        <time>2012-09-16T11:01:14Z</time>
      </trkpt>
      <trkpt lat="47.33783" lon="4.9735">
        <ele>261</ele>
        <time>2012-09-16T11:01:18Z</time>
      </trkpt>
      <trkpt lat="47.3377" lon="4.97353">
        <ele>261</ele>
        <time>2012-09-16T11:01:20Z</time>
      </trkpt>
      <trkpt lat="47.33735" lon="4.97367">
        <ele>259</ele>
        <time>2012-09-16T11:01:24Z</time>
      </trkpt>
      <trkpt lat="47.33707" lon="4.97382">
        <ele>258</ele>
        <time>2012-09-16T11:01:28Z</time>
      </trkpt>
      <trkpt lat="47.33695" lon="4.97393">
        <ele>257</ele>
        <time>2012-09-16T11:01:30Z</time>
      </trkpt>
      <trkpt lat="47.33673" lon="4.97412">
        <ele>255</ele>
        <time>2012-09-16T11:01:35Z</time>
      </trkpt>
      <trkpt lat="47.33655" lon="4.97403">
        <ele>255</ele>
        <time>2012-09-16T11:01:39Z</time>
      </trkpt>
      <trkpt lat="47.33632" lon="4.97405">
        <ele>253</ele>
        <time>2012-09-16T11:01:43Z</time>
      </trkpt>
      <trkpt lat="47.33605" lon="4.97425">
        <ele>253</ele>
        <time>2012-09-16T11:01:47Z</time>
      </trkpt>
      <trkpt lat="47.33585" lon="4.97447">
        <ele>253</ele>
        <time>2012-09-16T11:01:51Z</time>
      </trkpt>
      <trkpt lat="47.33565" lon="4.97468">
        <ele>253</ele>
        <time>2012-09-16T11:01:56Z</time>
      </trkpt>
      <trkpt lat="47.33547" lon="4.97483">
        <ele>252</ele>
        <time>2012-09-16T11:02:00Z</time>
      </trkpt>
      <trkpt lat="47.33532" lon="4.97505">
        <ele>252</ele>
        <time>2012-09-16T11:02:04Z</time>
      </trkpt>
      <trkpt lat="47.33523" lon="4.97532">
        <ele>252</ele>
        <time>2012-09-16T11:02:08Z</time>
      </trkpt>
      <trkpt lat="47.33513" lon="4.9755">
        <ele>252</ele>
        <time>2012-09-16T11:02:12Z</time>
      </trkpt>
      <trkpt lat="47.33502" lon="4.97577">
        <ele>251</ele>
        <time>2012-09-16T11:02:16Z</time>
      </trkpt>
      <trkpt lat="47.33448" lon="4.97693">
        <ele>250</ele>
        <time>2012-09-16T11:02:41Z</time>
      </trkpt>
      <trkpt lat="47.33432" lon="4.9773">
        <ele>250</ele>
        <time>2012-09-16T11:02:52Z</time>
      </trkpt>
      <trkpt lat="47.33423" lon="4.97748">
        <ele>250</ele>
        <time>2012-09-16T11:02:56Z</time>
      </trkpt>
      <trkpt lat="47.33383" lon="4.9784">
        <ele>250</ele>
        <time>2012-09-16T11:03:14Z</time>
      </trkpt>
      <trkpt lat="47.3336" lon="4.9789">
        <ele>249</ele>
        <time>2012-09-16T11:03:25Z</time>
      </trkpt>
      <trkpt lat="47.33338" lon="4.9794">
        <ele>248</ele>
        <time>2012-09-16T11:03:35Z</time>
      </trkpt>
      <trkpt lat="47.33325" lon="4.97967">
        <ele>247</ele>
        <time>2012-09-16T11:03:41Z</time>
      </trkpt>
      <trkpt lat="47.33305" lon="4.9801">
        <ele>247</ele>
        <time>2012-09-16T11:03:52Z</time>
      </trkpt>
      <trkpt lat="47.33295" lon="4.9803">
        <ele>247</ele>
        <time>2012-09-16T11:03:56Z</time>
      </trkpt>
      <trkpt lat="47.33278" lon="4.98053">
        <ele>246</ele>
        <time>2012-09-16T11:04:00Z</time>
      </trkpt>
      <trkpt lat="47.33263" lon="4.98065">
        <ele>247</ele>
        <time>2012-09-16T11:04:04Z</time>
      </trkpt>
      <trkpt lat="47.33208" lon="4.98107">
        <ele>248</ele>
        <time>2012-09-16T11:04:21Z</time>
      </trkpt>
      <trkpt lat="47.33183" lon="4.98128">
        <ele>248</ele>
        <time>2012-09-16T11:04:27Z</time>
      </trkpt>
      <trkpt lat="47.3317" lon="4.98142">
        <ele>247</ele>
        <time>2012-09-16T11:04:31Z</time>
      </trkpt>
      <trkpt lat="47.33157" lon="4.98157">
        <ele>247</ele>
        <time>2012-09-16T11:04:36Z</time>
      </trkpt>
      <trkpt lat="47.33145" lon="4.98172">
        <ele>247</ele>
        <time>2012-09-16T11:04:40Z</time>
      </trkpt>
      <trkpt lat="47.33135" lon="4.98192">
        <ele>247</ele>
        <time>2012-09-16T11:04:44Z</time>
      </trkpt>
      <trkpt lat="47.33122" lon="4.98213">
        <ele>246</ele>
        <time>2012-09-16T11:04:48Z</time>
      </trkpt>
      <trkpt lat="47.33102" lon="4.98247">
        <ele>246</ele>
        <time>2012-09-16T11:04:54Z</time>
      </trkpt>
      <trkpt lat="47.33075" lon="4.98287">
        <ele>247</ele>
        <time>2012-09-16T11:05:05Z</time>
      </trkpt>
      <trkpt lat="47.33057" lon="4.98313">
        <ele>251</ele>
        <time>2012-09-16T11:05:13Z</time>
      </trkpt>
      <trkpt lat="47.33038" lon="4.98338">
        <ele>253</ele>
        <time>2012-09-16T11:05:19Z</time>
      </trkpt>
      <trkpt lat="47.3302" lon="4.98362">
        <ele>254</ele>
        <time>2012-09-16T11:05:26Z</time>
      </trkpt>
      <trkpt lat="47.33005" lon="4.98377">
        <ele>254</ele>
        <time>2012-09-16T11:05:30Z</time>
      </trkpt>
      <trkpt lat="47.32988" lon="4.98385">
        <ele>255</ele>
        <time>2012-09-16T11:05:34Z</time>
      </trkpt>
      <trkpt lat="47.3297" lon="4.98392">
        <ele>254</ele>
        <time>2012-09-16T11:05:38Z</time>
      </trkpt>
      <trkpt lat="47.32955" lon="4.984">
        <ele>253</ele>
        <time>2012-09-16T11:05:43Z</time>
      </trkpt>
      <trkpt lat="47.32938" lon="4.98412">
        <ele>255</ele>
        <time>2012-09-16T11:05:47Z</time>
      </trkpt>
      <trkpt lat="47.32922" lon="4.98425">
        <ele>255</ele>
        <time>2012-09-16T11:05:51Z</time>
      </trkpt>
      <trkpt lat="47.32907" lon="4.9844">
        <ele>254</ele>
        <time>2012-09-16T11:05:55Z</time>
      </trkpt>
      <trkpt lat="47.32895" lon="4.98468">
        <ele>252</ele>
        <time>2012-09-16T11:05:59Z</time>
      </trkpt>
      <trkpt lat="47.32887" lon="4.98495">
        <ele>251</ele>
        <time>2012-09-16T11:06:03Z</time>
      </trkpt>
      <trkpt lat="47.3288" lon="4.9852">
        <ele>251</ele>
        <time>2012-09-16T11:06:08Z</time>
      </trkpt>
      <trkpt lat="47.32873" lon="4.98545">
        <ele>254</ele>
        <time>2012-09-16T11:06:12Z</time>
      </trkpt>
      <trkpt lat="47.3286" lon="4.9858">
        <ele>254</ele>
        <time>2012-09-16T11:06:18Z</time>
      </trkpt>
      <trkpt lat="47.32845" lon="4.98632">
        <ele>257</ele>
        <time>2012-09-16T11:06:26Z</time>
      </trkpt>
      <trkpt lat="47.32858" lon="4.98638">
        <ele>257</ele>
        <time>2012-09-16T11:06:30Z</time>
      </trkpt>
      <trkpt lat="47.32873" lon="4.98648">
        <ele>257</ele>
        <time>2012-09-16T11:06:35Z</time>
      </trkpt>
      <trkpt lat="47.32888" lon="4.98655">
        <ele>257</ele>
        <time>2012-09-16T11:06:39Z</time>
      </trkpt>
      <trkpt lat="47.32903" lon="4.98668">
        <ele>257</ele>
        <time>2012-09-16T11:06:43Z</time>
      </trkpt>
      <trkpt lat="47.3292" lon="4.98678">
        <ele>258</ele>
        <time>2012-09-16T11:06:47Z</time>
      </trkpt>
      <trkpt lat="47.32937" lon="4.98693">
        <ele>258</ele>
        <time>2012-09-16T11:06:51Z</time>
      </trkpt>
      <trkpt lat="47.32945" lon="4.98712">
        <ele>258</ele>
        <time>2012-09-16T11:06:55Z</time>
      </trkpt>
      <trkpt lat="47.32935" lon="4.9873">
        <ele>256</ele>
        <time>2012-09-16T11:07:00Z</time>
      </trkpt>
      <trkpt lat="47.32927" lon="4.98752">
        <ele>255</ele>
        <time>2012-09-16T11:07:04Z</time>
      </trkpt>
      <trkpt lat="47.32908" lon="4.98772">
        <ele>254</ele>
        <time>2012-09-16T11:07:08Z</time>
      </trkpt>
      <trkpt lat="47.32873" lon="4.98812">
        <ele>252</ele>
        <time>2012-09-16T11:07:14Z</time>
      </trkpt>
      <trkpt lat="47.32853" lon="4.98832">
        <ele>251</ele>
        <time>2012-09-16T11:07:18Z</time>
      </trkpt>
      <trkpt lat="47.32833" lon="4.9884">
        <ele>250</ele>
        <time>2012-09-16T11:07:23Z</time>
      </trkpt>
      <trkpt lat="47.32815" lon="4.98855">
        <ele>250</ele>
        <time>2012-09-16T11:07:27Z</time>
      </trkpt>
      <trkpt lat="47.32802" lon="4.98875">
        <ele>250</ele>
        <time>2012-09-16T11:07:31Z</time>
      </trkpt>
      <trkpt lat="47.3279" lon="4.9889">
        <ele>250</ele>
        <time>2012-09-16T11:07:35Z</time>
      </trkpt>
      <trkpt lat="47.32775" lon="4.9891">
        <ele>249</ele>
        <time>2012-09-16T11:07:39Z</time>
      </trkpt>
      <trkpt lat="47.32772" lon="4.98933">
        <ele>249</ele>
        <time>2012-09-16T11:07:43Z</time>
      </trkpt>
      <trkpt lat="47.32767" lon="4.9896">
        <ele>251</ele>
        <time>2012-09-16T11:07:48Z</time>
      </trkpt>
      <trkpt lat="47.32763" lon="4.9899">
        <ele>252</ele>
        <time>2012-09-16T11:07:52Z</time>
      </trkpt>
      <trkpt lat="47.32757" lon="4.99018">
        <ele>251</ele>
        <time>2012-09-16T11:07:56Z</time>
      </trkpt>
      <trkpt lat="47.32743" lon="4.99067">
        <ele>251</ele>
        <time>2012-09-16T11:08:02Z</time>
      </trkpt>
      <trkpt lat="47.3274" lon="4.99098">
        <ele>251</ele>
        <time>2012-09-16T11:08:06Z</time>
      </trkpt>
      <trkpt lat="47.32733" lon="4.99128">
        <ele>252</ele>
        <time>2012-09-16T11:08:10Z</time>
      </trkpt>
      <trkpt lat="47.32727" lon="4.99157">
        <ele>252</ele>
        <time>2012-09-16T11:08:15Z</time>
      </trkpt>
      <trkpt lat="47.32718" lon="4.99185">
        <ele>251</ele>
        <time>2012-09-16T11:08:19Z</time>
      </trkpt>
      <trkpt lat="47.32713" lon="4.99222">
        <ele>252</ele>
        <time>2012-09-16T11:08:23Z</time>
      </trkpt>
      <trkpt lat="47.32705" lon="4.99257">
        <ele>252</ele>
        <time>2012-09-16T11:08:27Z</time>
      </trkpt>
      <trkpt lat="47.32703" lon="4.99277">
        <ele>251</ele>
        <time>2012-09-16T11:08:29Z</time>
      </trkpt>
      <trkpt lat="47.32698" lon="4.99297">
        <ele>252</ele>
        <time>2012-09-16T11:08:31Z</time>
      </trkpt>
      <trkpt lat="47.32692" lon="4.99347">
        <ele>253</ele>
        <time>2012-09-16T11:08:35Z</time>
      </trkpt>
      <trkpt lat="47.32687" lon="4.99383">
        <ele>253</ele>
        <time>2012-09-16T11:08:39Z</time>
      </trkpt>
      <trkpt lat="47.32675" lon="4.99437">
        <ele>253</ele>
        <time>2012-09-16T11:08:46Z</time>
      </trkpt>
      <trkpt lat="47.32672" lon="4.99472">
        <ele>253</ele>
        <time>2012-09-16T11:08:50Z</time>
      </trkpt>
      <trkpt lat="47.3267" lon="4.99507">
        <ele>253</ele>
        <time>2012-09-16T11:08:54Z</time>
      </trkpt>
      <trkpt lat="47.32658" lon="4.99537">
        <ele>252</ele>
        <time>2012-09-16T11:08:58Z</time>
      </trkpt>
      <trkpt lat="47.3263" lon="4.99603">
        <ele>251</ele>
        <time>2012-09-16T11:09:06Z</time>
      </trkpt>
      <trkpt lat="47.3262" lon="4.99632">
        <ele>252</ele>
        <time>2012-09-16T11:09:10Z</time>
      </trkpt>
      <trkpt lat="47.3261" lon="4.9966">
        <ele>253</ele>
        <time>2012-09-16T11:09:15Z</time>
      </trkpt>
      <trkpt lat="47.32603" lon="4.99688">
        <ele>254</ele>
        <time>2012-09-16T11:09:19Z</time>
      </trkpt>
      <trkpt lat="47.32598" lon="4.99718">
        <ele>254</ele>
        <time>2012-09-16T11:09:23Z</time>
      </trkpt>
      <trkpt lat="47.32592" lon="4.9975">
        <ele>255</ele>
        <time>2012-09-16T11:09:27Z</time>
      </trkpt>
      <trkpt lat="47.3259" lon="4.9978">
        <ele>255</ele>
        <time>2012-09-16T11:09:31Z</time>
      </trkpt>
      <trkpt lat="47.32592" lon="4.99818">
        <ele>256</ele>
        <time>2012-09-16T11:09:35Z</time>
      </trkpt>
      <trkpt lat="47.32593" lon="4.9984">
        <ele>256</ele>
        <time>2012-09-16T11:09:39Z</time>
      </trkpt>
      <trkpt lat="47.32588" lon="4.9986">
        <ele>257</ele>
        <time>2012-09-16T11:09:48Z</time>
      </trkpt>
      <trkpt lat="47.32587" lon="4.99887">
        <ele>256</ele>
        <time>2012-09-16T11:09:54Z</time>
      </trkpt>
      <trkpt lat="47.32587" lon="4.99917">
        <ele>254</ele>
        <time>2012-09-16T11:09:58Z</time>
      </trkpt>
      <trkpt lat="47.3259" lon="4.99947">
        <ele>252</ele>
        <time>2012-09-16T11:10:02Z</time>
      </trkpt>
      <trkpt lat="47.3259" lon="4.99968">
        <ele>251</ele>
        <time>2012-09-16T11:10:04Z</time>
      </trkpt>
      <trkpt lat="47.32588" lon="4.99998">
        <ele>251</ele>
        <time>2012-09-16T11:10:08Z</time>
      </trkpt>
      <trkpt lat="47.32583" lon="5.00042">
        <ele>253</ele>
        <time>2012-09-16T11:10:15Z</time>
      </trkpt>
      <trkpt lat="47.32577" lon="5.0007">
        <ele>254</ele>
        <time>2012-09-16T11:10:19Z</time>
      </trkpt>
      <trkpt lat="47.3257" lon="5.00095">
        <ele>255</ele>
        <time>2012-09-16T11:10:23Z</time>
      </trkpt>
      <trkpt lat="47.3256" lon="5.00122">
        <ele>255</ele>
        <time>2012-09-16T11:10:27Z</time>
      </trkpt>
      <trkpt lat="47.32548" lon="5.00147">
        <ele>256</ele>
        <time>2012-09-16T11:10:31Z</time>
      </trkpt>
      <trkpt lat="47.32525" lon="5.00187">
        <ele>257</ele>
        <time>2012-09-16T11:10:37Z</time>
      </trkpt>
      <trkpt lat="47.32512" lon="5.00207">
        <ele>259</ele>
        <time>2012-09-16T11:10:41Z</time>
      </trkpt>
      <trkpt lat="47.32497" lon="5.00225">
        <ele>258</ele>
        <time>2012-09-16T11:10:46Z</time>
      </trkpt>
      <trkpt lat="47.3248" lon="5.00243">
        <ele>257</ele>
        <time>2012-09-16T11:10:50Z</time>
      </trkpt>
      <trkpt lat="47.32458" lon="5.0027">
        <ele>257</ele>
        <time>2012-09-16T11:10:56Z</time>
      </trkpt>
      <trkpt lat="47.3238" lon="5.00373">
        <ele>257</ele>
        <time>2012-09-16T11:11:15Z</time>
      </trkpt>
      <trkpt lat="47.32365" lon="5.00398">
        <ele>256</ele>
        <time>2012-09-16T11:11:19Z</time>
      </trkpt>
      <trkpt lat="47.32353" lon="5.00427">
        <ele>255</ele>
        <time>2012-09-16T11:11:23Z</time>
      </trkpt>
      <trkpt lat="47.3234" lon="5.00462">
        <ele>254</ele>
        <time>2012-09-16T11:11:27Z</time>
      </trkpt>
      <trkpt lat="47.32332" lon="5.00488">
        <ele>254</ele>
        <time>2012-09-16T11:11:31Z</time>
      </trkpt>
      <trkpt lat="47.32325" lon="5.00517">
        <ele>255</ele>
        <time>2012-09-16T11:11:36Z</time>
      </trkpt>
      <trkpt lat="47.32322" lon="5.00547">
        <ele>256</ele>
        <time>2012-09-16T11:11:40Z</time>
      </trkpt>
      <trkpt lat="47.32318" lon="5.00578">
        <ele>256</ele>
        <time>2012-09-16T11:11:44Z</time>
      </trkpt>
      <trkpt lat="47.3232" lon="5.0061">
        <ele>253</ele>
        <time>2012-09-16T11:11:48Z</time>
      </trkpt>
      <trkpt lat="47.32323" lon="5.00648">
        <ele>251</ele>
        <time>2012-09-16T11:11:52Z</time>
      </trkpt>
      <trkpt lat="47.32327" lon="5.00678">
        <ele>251</ele>
        <time>2012-09-16T11:11:57Z</time>
      </trkpt>
      <trkpt lat="47.32332" lon="5.00708">
        <ele>250</ele>
        <time>2012-09-16T11:12:01Z</time>
      </trkpt>
      <trkpt lat="47.32345" lon="5.00777">
        <ele>251</ele>
        <time>2012-09-16T11:12:11Z</time>
      </trkpt>
      <trkpt lat="47.32348" lon="5.00802">
        <ele>251</ele>
        <time>2012-09-16T11:12:15Z</time>
      </trkpt>
      <trkpt lat="47.32363" lon="5.00808">
        <ele>252</ele>
        <time>2012-09-16T11:12:26Z</time>
      </trkpt>
      <trkpt lat="47.32377" lon="5.008">
        <ele>253</ele>
        <time>2012-09-16T11:12:30Z</time>
      </trkpt>
      <trkpt lat="47.324" lon="5.0079">
        <ele>254</ele>
        <time>2012-09-16T11:12:36Z</time>
      </trkpt>
      <trkpt lat="47.3241" lon="5.00775">
        <ele>251</ele>
        <time>2012-09-16T11:12:40Z</time>
      </trkpt>
      <trkpt lat="47.32395" lon="5.00778">
        <ele>249</ele>
        <time>2012-09-16T11:12:44Z</time>
      </trkpt>
      <trkpt lat="47.32375" lon="5.00787">
        <ele>247</ele>
        <time>2012-09-16T11:12:49Z</time>
      </trkpt>
      <trkpt lat="47.32352" lon="5.00785">
        <ele>247</ele>
        <time>2012-09-16T11:12:53Z</time>
      </trkpt>
      <trkpt lat="47.32307" lon="5.0078">
        <ele>250</ele>
        <time>2012-09-16T11:13:01Z</time>
      </trkpt>
      <trkpt lat="47.32285" lon="5.00788">
        <ele>250</ele>
        <time>2012-09-16T11:13:05Z</time>
      </trkpt>
      <trkpt lat="47.32265" lon="5.00798">
        <ele>251</ele>
        <time>2012-09-16T11:13:10Z</time>
      </trkpt>
      <trkpt lat="47.32247" lon="5.00812">
        <ele>253</ele>
        <time>2012-09-16T11:13:14Z</time>
      </trkpt>
      <trkpt lat="47.32228" lon="5.00832">
        <ele>254</ele>
        <time>2012-09-16T11:13:18Z</time>
      </trkpt>
      <trkpt lat="47.32213" lon="5.00852">
        <ele>252</ele>
        <time>2012-09-16T11:13:22Z</time>
      </trkpt>
      <trkpt lat="47.32187" lon="5.00892">
        <ele>251</ele>
        <time>2012-09-16T11:13:28Z</time>
      </trkpt>
      <trkpt lat="47.32177" lon="5.0092">
        <ele>249</ele>
        <time>2012-09-16T11:13:33Z</time>
      </trkpt>
      <trkpt lat="47.3217" lon="5.00952">
        <ele>249</ele>
        <time>2012-09-16T11:13:37Z</time>
      </trkpt>
      <trkpt lat="47.32162" lon="5.0098">
        <ele>247</ele>
        <time>2012-09-16T11:13:41Z</time>
      </trkpt>
      <trkpt lat="47.3214" lon="5.01038">
        <ele>247</ele>
        <time>2012-09-16T11:13:49Z</time>
      </trkpt>
      <trkpt lat="47.32125" lon="5.01067">
        <ele>247</ele>
        <time>2012-09-16T11:13:54Z</time>
      </trkpt>
      <trkpt lat="47.32112" lon="5.01093">
        <ele>246</ele>
        <time>2012-09-16T11:13:58Z</time>
      </trkpt>
      <trkpt lat="47.32092" lon="5.0111">
        <ele>244</ele>
        <time>2012-09-16T11:14:02Z</time>
      </trkpt>
      <trkpt lat="47.32073" lon="5.01133">
        <ele>245</ele>
        <time>2012-09-16T11:14:06Z</time>
      </trkpt>
      <trkpt lat="47.3206" lon="5.0115">
        <ele>244</ele>
        <time>2012-09-16T11:14:08Z</time>
      </trkpt>
      <trkpt lat="47.32038" lon="5.01165">
        <ele>244</ele>
        <time>2012-09-16T11:14:12Z</time>
      </trkpt>
      <trkpt lat="47.32025" lon="5.01168">
        <ele>245</ele>
        <time>2012-09-16T11:14:14Z</time>
      </trkpt>
      <trkpt lat="47.32" lon="5.01172">
        <ele>245</ele>
        <time>2012-09-16T11:14:19Z</time>
      </trkpt>
      <trkpt lat="47.31973" lon="5.01172">
        <ele>245</ele>
        <time>2012-09-16T11:14:23Z</time>
      </trkpt>
      <trkpt lat="47.31947" lon="5.0118">
        <ele>246</ele>
        <time>2012-09-16T11:14:27Z</time>
      </trkpt>
      <trkpt lat="47.31903" lon="5.01203">
        <ele>246</ele>
        <time>2012-09-16T11:14:33Z</time>
      </trkpt>
      <trkpt lat="47.31882" lon="5.01225">
        <ele>246</ele>
        <time>2012-09-16T11:14:38Z</time>
      </trkpt>
      <trkpt lat="47.31872" lon="5.01238">
        <ele>245</ele>
        <time>2012-09-16T11:14:40Z</time>
      </trkpt>
      <trkpt lat="47.31853" lon="5.0126">
        <ele>245</ele>
        <time>2012-09-16T11:14:44Z</time>
      </trkpt>
      <trkpt lat="47.3184" lon="5.01277">
        <ele>245</ele>
        <time>2012-09-16T11:14:48Z</time>
      </trkpt>
      <trkpt lat="47.31827" lon="5.01267">
        <ele>245</ele>
        <time>2012-09-16T11:14:52Z</time>
      </trkpt>
      <trkpt lat="47.31807" lon="5.01258">
        <ele>245</ele>
        <time>2012-09-16T11:14:56Z</time>
      </trkpt>
      <trkpt lat="47.31792" lon="5.01262">
        <ele>244</ele>
        <time>2012-09-16T11:15:01Z</time>
      </trkpt>
      <trkpt lat="47.31787" lon="5.01287">
        <ele>245</ele>
        <time>2012-09-16T11:15:05Z</time>
      </trkpt>
      <trkpt lat="47.31783" lon="5.0131">
        <ele>246</ele>
        <time>2012-09-16T11:15:09Z</time>
      </trkpt>
      <trkpt lat="47.31783" lon="5.01333">
        <ele>248</ele>
        <time>2012-09-16T11:15:13Z</time>
      </trkpt>
      <trkpt lat="47.31765" lon="5.01345">
        <ele>248</ele>
        <time>2012-09-16T11:15:19Z</time>
      </trkpt>
      <trkpt lat="47.31748" lon="5.01347">
        <ele>248</ele>
        <time>2012-09-16T11:15:24Z</time>
      </trkpt>
      <trkpt lat="47.31735" lon="5.01355">
        <ele>247</ele>
        <time>2012-09-16T11:15:30Z</time>
      </trkpt>
      <trkpt lat="47.31737" lon="5.01377">
        <ele>248</ele>
        <time>2012-09-16T11:15:34Z</time>
      </trkpt>
      <trkpt lat="47.31757" lon="5.01563">
        <ele>243</ele>
        <time>2012-09-16T11:15:57Z</time>
      </trkpt>
      <trkpt lat="47.31762" lon="5.01622">
        <ele>243</ele>
        <time>2012-09-16T11:16:03Z</time>
      </trkpt>
      <trkpt lat="47.31773" lon="5.01762">
        <ele>243</ele>
        <time>2012-09-16T11:16:20Z</time>
      </trkpt>
      <trkpt lat="47.31785" lon="5.0189">
        <ele>243</ele>
        <time>2012-09-16T11:16:37Z</time>
      </trkpt>
      <trkpt lat="47.31793" lon="5.02027">
        <ele>243</ele>
        <time>2012-09-16T11:16:54Z</time>
      </trkpt>
      <trkpt lat="47.31788" lon="5.02062">
        <ele>243</ele>
        <time>2012-09-16T11:16:58Z</time>
      </trkpt>
      <trkpt lat="47.3178" lon="5.02093">
        <ele>243</ele>
        <time>2012-09-16T11:17:02Z</time>
      </trkpt>
      <trkpt lat="47.31768" lon="5.02128">
        <ele>243</ele>
        <time>2012-09-16T11:17:06Z</time>
      </trkpt>
      <trkpt lat="47.31705" lon="5.02317">
        <ele>241</ele>
        <time>2012-09-16T11:17:31Z</time>
      </trkpt>
      <trkpt lat="47.31695" lon="5.0235">
        <ele>242</ele>
        <time>2012-09-16T11:17:36Z</time>
      </trkpt>
      <trkpt lat="47.31683" lon="5.02382">
        <ele>242</ele>
        <time>2012-09-16T11:17:40Z</time>
      </trkpt>
      <trkpt lat="47.31663" lon="5.02427">
        <ele>243</ele>
        <time>2012-09-16T11:17:46Z</time>
      </trkpt>
      <trkpt lat="47.31635" lon="5.02473">
        <ele>243</ele>
        <time>2012-09-16T11:17:52Z</time>
      </trkpt>
      <trkpt lat="47.31612" lon="5.02487">
        <ele>244</ele>
        <time>2012-09-16T11:17:57Z</time>
      </trkpt>
      <trkpt lat="47.31457" lon="5.02575">
        <ele>242</ele>
        <time>2012-09-16T11:18:24Z</time>
      </trkpt>
      <trkpt lat="47.31353" lon="5.02635">
        <ele>242</ele>
        <time>2012-09-16T11:18:43Z</time>
      </trkpt>
      <trkpt lat="47.3132" lon="5.02653">
        <ele>242</ele>
        <time>2012-09-16T11:18:49Z</time>
      </trkpt>
      <trkpt lat="47.31228" lon="5.02708">
        <ele>241</ele>
        <time>2012-09-16T11:19:06Z</time>
      </trkpt>
      <trkpt lat="47.31212" lon="5.02715">
        <ele>241</ele>
        <time>2012-09-16T11:19:10Z</time>
      </trkpt>
      <trkpt lat="47.31207" lon="5.02735">
        <ele>242</ele>
        <time>2012-09-16T11:19:20Z</time>
      </trkpt>
      <trkpt lat="47.31207" lon="5.02755">
        <ele>241</ele>
        <time>2012-09-16T11:19:31Z</time>
      </trkpt>
      <trkpt lat="47.31185" lon="5.0277">
        <ele>240</ele>
        <time>2012-09-16T11:19:35Z</time>
      </trkpt>
      <trkpt lat="47.31172" lon="5.02777">
        <ele>240</ele>
        <time>2012-09-16T11:19:37Z</time>
      </trkpt>
      <trkpt lat="47.31132" lon="5.028">
        <ele>240</ele>
        <time>2012-09-16T11:19:43Z</time>
      </trkpt>
      <trkpt lat="47.30803" lon="5.02988">
        <ele>243</ele>
        <time>2012-09-16T11:20:31Z</time>
      </trkpt>
      <trkpt lat="47.30762" lon="5.0301">
        <ele>246</ele>
        <time>2012-09-16T11:20:37Z</time>
      </trkpt>
      <trkpt lat="47.30733" lon="5.0302">
        <ele>249</ele>
        <time>2012-09-16T11:20:42Z</time>
      </trkpt>
      <trkpt lat="47.30692" lon="5.03037">
        <ele>252</ele>
        <time>2012-09-16T11:20:48Z</time>
      </trkpt>
      <trkpt lat="47.30667" lon="5.03053">
        <ele>253</ele>
        <time>2012-09-16T11:20:52Z</time>
      </trkpt>
      <trkpt lat="47.30647" lon="5.03057">
        <ele>255</ele>
        <time>2012-09-16T11:20:56Z</time>
      </trkpt>
      <trkpt lat="47.30615" lon="5.03038">
        <ele>254</ele>
        <time>2012-09-16T11:21:00Z</time>
      </trkpt>
      <trkpt lat="47.30595" lon="5.03075">
        <ele>247</ele>
        <time>2012-09-16T11:21:04Z</time>
      </trkpt>
      <trkpt lat="47.30583" lon="5.03095">
        <ele>245</ele>
        <time>2012-09-16T11:21:07Z</time>
      </trkpt>
      <trkpt lat="47.3057" lon="5.0311">
        <ele>244</ele>
        <time>2012-09-16T11:21:09Z</time>
      </trkpt>
      <trkpt lat="47.30545" lon="5.03133">
        <ele>241</ele>
        <time>2012-09-16T11:21:13Z</time>
      </trkpt>
      <trkpt lat="47.30517" lon="5.03152">
        <ele>239</ele>
        <time>2012-09-16T11:21:17Z</time>
      </trkpt>
      <trkpt lat="47.30345" lon="5.03258">
        <ele>237</ele>
        <time>2012-09-16T11:21:44Z</time>
      </trkpt>
      <trkpt lat="47.3007" lon="5.0342">
        <ele>238</ele>
        <time>2012-09-16T11:22:31Z</time>
      </trkpt>
      <trkpt lat="47.30017" lon="5.03452">
        <ele>237</ele>
        <time>2012-09-16T11:22:39Z</time>
      </trkpt>
      <trkpt lat="47.2981" lon="5.03575">
        <ele>238</ele>
        <time>2012-09-16T11:23:15Z</time>
      </trkpt>
      <trkpt lat="47.29788" lon="5.03593">
        <ele>238</ele>
        <time>2012-09-16T11:23:19Z</time>
      </trkpt>
      <trkpt lat="47.29768" lon="5.03613">
        <ele>237</ele>
        <time>2012-09-16T11:23:23Z</time>
      </trkpt>
      <trkpt lat="47.2975" lon="5.03635">
        <ele>237</ele>
        <time>2012-09-16T11:23:27Z</time>
      </trkpt>
      <trkpt lat="47.29643" lon="5.03767">
        <ele>237</ele>
        <time>2012-09-16T11:23:48Z</time>
      </trkpt>
      <trkpt lat="47.29485" lon="5.03962">
        <ele>236</ele>
        <time>2012-09-16T11:24:13Z</time>
      </trkpt>
      <trkpt lat="47.29448" lon="5.04012">
        <ele>236</ele>
        <time>2012-09-16T11:24:19Z</time>
      </trkpt>
      <trkpt lat="47.29425" lon="5.04042">
        <ele>235</ele>
        <time>2012-09-16T11:24:23Z</time>
      </trkpt>
      <trkpt lat="47.2941" lon="5.04053">
        <ele>236</ele>
        <time>2012-09-16T11:24:30Z</time>
      </trkpt>
      <trkpt lat="47.2939" lon="5.04067">
        <ele>235</ele>
        <time>2012-09-16T11:24:34Z</time>
      </trkpt>
      <trkpt lat="47.2937" lon="5.04095">
        <ele>236</ele>
        <time>2012-09-16T11:24:38Z</time>
      </trkpt>
      <trkpt lat="47.2933" lon="5.04153">
        <ele>237</ele>
        <time>2012-09-16T11:24:44Z</time>
      </trkpt>
      <trkpt lat="47.29318" lon="5.0417">
        <ele>237</ele>
        <time>2012-09-16T11:24:46Z</time>
      </trkpt>
      <trkpt lat="47.29295" lon="5.042">
        <ele>237</ele>
        <time>2012-09-16T11:24:50Z</time>
      </trkpt>
      <trkpt lat="47.2928" lon="5.04228">
        <ele>237</ele>
        <time>2012-09-16T11:24:55Z</time>
      </trkpt>
      <trkpt lat="47.29262" lon="5.04268">
        <ele>236</ele>
        <time>2012-09-16T11:25:01Z</time>
      </trkpt>
      <trkpt lat="47.29248" lon="5.04298">
        <ele>235</ele>
        <time>2012-09-16T11:25:05Z</time>
      </trkpt>
      <trkpt lat="47.29235" lon="5.04342">
        <ele>234</ele>
        <time>2012-09-16T11:25:09Z</time>
      </trkpt>
      <trkpt lat="47.2923" lon="5.04378">
        <ele>233</ele>
        <time>2012-09-16T11:25:13Z</time>
      </trkpt>
      <trkpt lat="47.29228" lon="5.04417">
        <ele>233</ele>
        <time>2012-09-16T11:25:18Z</time>
      </trkpt>
      <trkpt lat="47.29227" lon="5.0446">
        <ele>234</ele>
        <time>2012-09-16T11:25:24Z</time>
      </trkpt>
      <trkpt lat="47.29222" lon="5.04488">
        <ele>233</ele>
        <time>2012-09-16T11:25:28Z</time>
      </trkpt>
      <trkpt lat="47.292" lon="5.04523">
        <ele>234</ele>
        <time>2012-09-16T11:25:32Z</time>
      </trkpt>
      <trkpt lat="47.2919" lon="5.04562">
        <ele>234</ele>
        <time>2012-09-16T11:25:36Z</time>
      </trkpt>
      <trkpt lat="47.29187" lon="5.04583">
        <ele>233</ele>
        <time>2012-09-16T11:25:38Z</time>
      </trkpt>
      <trkpt lat="47.29185" lon="5.04608">
        <ele>233</ele>
        <time>2012-09-16T11:25:41Z</time>
      </trkpt>
      <trkpt lat="47.29183" lon="5.04635">
        <ele>233</ele>
        <time>2012-09-16T11:25:43Z</time>
      </trkpt>
      <trkpt lat="47.29177" lon="5.04683">
        <ele>233</ele>
        <time>2012-09-16T11:25:47Z</time>
      </trkpt>
      <trkpt lat="47.29173" lon="5.04732">
        <ele>233</ele>
        <time>2012-09-16T11:25:51Z</time>
      </trkpt>
      <trkpt lat="47.29165" lon="5.04863">
        <ele>234</ele>
        <time>2012-09-16T11:26:01Z</time>
      </trkpt>
      <trkpt lat="47.29162" lon="5.04887">
        <ele>235</ele>
        <time>2012-09-16T11:26:04Z</time>
      </trkpt>
      <trkpt lat="47.29152" lon="5.0493">
        <ele>236</ele>
        <time>2012-09-16T11:26:08Z</time>
      </trkpt>
      <trkpt lat="47.29137" lon="5.0497">
        <ele>235</ele>
        <time>2012-09-16T11:26:12Z</time>
      </trkpt>
      <trkpt lat="47.2911" lon="5.05033">
        <ele>234</ele>
        <time>2012-09-16T11:26:18Z</time>
      </trkpt>
      <trkpt lat="47.29085" lon="5.05087">
        <ele>233</ele>
        <time>2012-09-16T11:26:24Z</time>
      </trkpt>
      <trkpt lat="47.29077" lon="5.05103">
        <ele>232</ele>
        <time>2012-09-16T11:26:27Z</time>
      </trkpt>
      <trkpt lat="47.29067" lon="5.05118">
        <ele>232</ele>
        <time>2012-09-16T11:26:29Z</time>
      </trkpt>
      <trkpt lat="47.29057" lon="5.05133">
        <ele>232</ele>
        <time>2012-09-16T11:26:31Z</time>
      </trkpt>
      <trkpt lat="47.2904" lon="5.05163">
        <ele>232</ele>
        <time>2012-09-16T11:26:35Z</time>
      </trkpt>
      <trkpt lat="47.28995" lon="5.05238">
        <ele>232</ele>
        <time>2012-09-16T11:26:45Z</time>
      </trkpt>
      <trkpt lat="47.28973" lon="5.05253">
        <ele>233</ele>
        <time>2012-09-16T11:26:50Z</time>
      </trkpt>
      <trkpt lat="47.2896" lon="5.05265">
        <ele>233</ele>
        <time>2012-09-16T11:26:54Z</time>
      </trkpt>
      <trkpt lat="47.28968" lon="5.05282">
        <ele>233</ele>
        <time>2012-09-16T11:26:58Z</time>
      </trkpt>
      <trkpt lat="47.28992" lon="5.05283">
        <ele>231</ele>
        <time>2012-09-16T11:27:04Z</time>
      </trkpt>
      <trkpt lat="47.28985" lon="5.05317">
        <ele>233</ele>
        <time>2012-09-16T11:27:11Z</time>
      </trkpt>
      <trkpt lat="47.2897" lon="5.05342">
        <ele>234</ele>
        <time>2012-09-16T11:27:15Z</time>
      </trkpt>
      <trkpt lat="47.28918" lon="5.05418">
        <ele>233</ele>
        <time>2012-09-16T11:27:25Z</time>
      </trkpt>
      <trkpt lat="47.28892" lon="5.05462">
        <ele>233</ele>
        <time>2012-09-16T11:27:32Z</time>
      </trkpt>
      <trkpt lat="47.28878" lon="5.05483">
        <ele>232</ele>
        <time>2012-09-16T11:27:36Z</time>
      </trkpt>
      <trkpt lat="47.28888" lon="5.05503">
        <ele>231</ele>
        <time>2012-09-16T11:27:40Z</time>
      </trkpt>
      <trkpt lat="47.28902" lon="5.05522">
        <ele>230</ele>
        <time>2012-09-16T11:27:44Z</time>
      </trkpt>
      <trkpt lat="47.2889" lon="5.0554">
        <ele>229</ele>
        <time>2012-09-16T11:27:48Z</time>
      </trkpt>
      <trkpt lat="47.28872" lon="5.05572">
        <ele>229</ele>
        <time>2012-09-16T11:27:55Z</time>
      </trkpt>
      <trkpt lat="47.28858" lon="5.05595">
        <ele>230</ele>
        <time>2012-09-16T11:27:59Z</time>
      </trkpt>
      <trkpt lat="47.28847" lon="5.05623">
        <ele>231</ele>
        <time>2012-09-16T11:28:03Z</time>
      </trkpt>
      <trkpt lat="47.28837" lon="5.05653">
        <ele>231</ele>
        <time>2012-09-16T11:28:07Z</time>
      </trkpt>
      <trkpt lat="47.28822" lon="5.05677">
        <ele>230</ele>
        <time>2012-09-16T11:28:11Z</time>
      </trkpt>
      <trkpt lat="47.28802" lon="5.05695">
        <ele>230</ele>
        <time>2012-09-16T11:28:15Z</time>
      </trkpt>
      <trkpt lat="47.28797" lon="5.05715">
        <ele>231</ele>
        <time>2012-09-16T11:28:18Z</time>
      </trkpt>
      <trkpt lat="47.28788" lon="5.05747">
        <ele>231</ele>
        <time>2012-09-16T11:28:22Z</time>
      </trkpt>
      <trkpt lat="47.28775" lon="5.05775">
        <ele>230</ele>
        <time>2012-09-16T11:28:26Z</time>
      </trkpt>
      <trkpt lat="47.28757" lon="5.05815">
        <ele>229</ele>
        <time>2012-09-16T11:28:32Z</time>
      </trkpt>
      <trkpt lat="47.28718" lon="5.05897">
        <ele>229</ele>
        <time>2012-09-16T11:28:45Z</time>
      </trkpt>
      <trkpt lat="47.28667" lon="5.06018">
        <ele>227</ele>
        <time>2012-09-16T11:29:04Z</time>
      </trkpt>
      <trkpt lat="47.28648" lon="5.06057">
        <ele>230</ele>
        <time>2012-09-16T11:29:10Z</time>
      </trkpt>
      <trkpt lat="47.28622" lon="5.06103">
        <ele>235</ele>
        <time>2012-09-16T11:29:18Z</time>
      </trkpt>
      <trkpt lat="47.28602" lon="5.0614">
        <ele>241</ele>
        <time>2012-09-16T11:29:24Z</time>
      </trkpt>
      <trkpt lat="47.28575" lon="5.06187">
        <ele>242</ele>
        <time>2012-09-16T11:29:33Z</time>
      </trkpt>
      <trkpt lat="47.28563" lon="5.0621">
        <ele>242</ele>
        <time>2012-09-16T11:29:37Z</time>
      </trkpt>
      <trkpt lat="47.28557" lon="5.06243">
        <ele>244</ele>
        <time>2012-09-16T11:29:41Z</time>
      </trkpt>
      <trkpt lat="47.28565" lon="5.06262">
        <ele>243</ele>
        <time>2012-09-16T11:29:45Z</time>
      </trkpt>
      <trkpt lat="47.2858" lon="5.06272">
        <ele>242</ele>
        <time>2012-09-16T11:29:52Z</time>
      </trkpt>
      <trkpt lat="47.28597" lon="5.06265">
        <ele>243</ele>
        <time>2012-09-16T11:30:04Z</time>
      </trkpt>
      <trkpt lat="47.2861" lon="5.0626">
        <ele>245</ele>
        <time>2012-09-16T11:30:08Z</time>
      </trkpt>
      <trkpt lat="47.28625" lon="5.06263">
        <ele>245</ele>
        <time>2012-09-16T11:30:13Z</time>
      </trkpt>
      <trkpt lat="47.28637" lon="5.06275">
        <ele>245</ele>
        <time>2012-09-16T11:30:17Z</time>
      </trkpt>
      <trkpt lat="47.28652" lon="5.06283">
        <ele>241</ele>
        <time>2012-09-16T11:30:25Z</time>
      </trkpt>
      <trkpt lat="47.28652" lon="5.06307">
        <ele>240</ele>
        <time>2012-09-16T11:30:31Z</time>
      </trkpt>
      <trkpt lat="47.28667" lon="5.06317">
        <ele>237</ele>
        <time>2012-09-16T11:30:38Z</time>
      </trkpt>
      <trkpt lat="47.28678" lon="5.06335">
        <ele>238</ele>
        <time>2012-09-16T11:30:44Z</time>
      </trkpt>
      <trkpt lat="47.2869" lon="5.06345">
        <ele>237</ele>
        <time>2012-09-16T11:30:48Z</time>
      </trkpt>
      <trkpt lat="47.28707" lon="5.06358">
        <ele>236</ele>
        <time>2012-09-16T11:30:52Z</time>
      </trkpt>
      <trkpt lat="47.2872" lon="5.06373">
        <ele>235</ele>
        <time>2012-09-16T11:30:57Z</time>
      </trkpt>
      <trkpt lat="47.28742" lon="5.06395">
        <ele>233</ele>
        <time>2012-09-16T11:31:03Z</time>
      </trkpt>
      <trkpt lat="47.28758" lon="5.0641">
        <ele>233</ele>
        <time>2012-09-16T11:31:07Z</time>
      </trkpt>
      <trkpt lat="47.2877" lon="5.06422">
        <ele>233</ele>
        <time>2012-09-16T11:31:10Z</time>
      </trkpt>
      <trkpt lat="47.28807" lon="5.06462">
        <ele>234</ele>
        <time>2012-09-16T11:31:20Z</time>
      </trkpt>
      <trkpt lat="47.28822" lon="5.06477">
        <ele>234</ele>
        <time>2012-09-16T11:31:24Z</time>
      </trkpt>
      <trkpt lat="47.28835" lon="5.06492">
        <ele>233</ele>
        <time>2012-09-16T11:31:28Z</time>
      </trkpt>
      <trkpt lat="47.28852" lon="5.06507">
        <ele>233</ele>
        <time>2012-09-16T11:31:32Z</time>
      </trkpt>
      <trkpt lat="47.2887" lon="5.06527">
        <ele>232</ele>
        <time>2012-09-16T11:31:36Z</time>
      </trkpt>
      <trkpt lat="47.28907" lon="5.06567">
        <ele>234</ele>
        <time>2012-09-16T11:31:47Z</time>
      </trkpt>
      <trkpt lat="47.28897" lon="5.06595">
        <ele>234</ele>
        <time>2012-09-16T11:31:53Z</time>
      </trkpt>
      <trkpt lat="47.28905" lon="5.06617">
        <ele>233</ele>
        <time>2012-09-16T11:31:57Z</time>
      </trkpt>
      <trkpt lat="47.28917" lon="5.0663">
        <ele>232</ele>
        <time>2012-09-16T11:32:01Z</time>
      </trkpt>
    </trkseg>
  </trk>
</gpx>